[[{"header":{"parameterUnit":"m.s-1","parameterCategory":1,"la1":31.0,"la2":29.5877,"lo1":-88.7671,"lo2":-86.6584,"dy":0.0162,"dx":0.0185,"nx":115,"ny":88,"refTime":"2023-10-01T06:00:00:Z","depth":0,"parameterNumber":2,"parameterNumberName":"U-component_of_WINDS"},"data":[0.0,0.0,0.0,0.0,0.0,0.0,0.0,0.0,0.0,0.0,0.0,0.0,0.0,0.0,0.0,0.0,0.0,0.0,0.0,0.0,0.0,0.0,0.0,0.0,0.0,0.0,0.0,0.0,0.0,0.0,0.0,0.0,0.0,0.0,0.0,0.0,0.0,0.0,0.0,0.0,0.0,0.0,0.0,0.0,0.0,0.0,0.0,0.0,0.0,0.0,0.0,0.0,0.0,0.0,0.0,0.0,0.0,0.0,0.0,0.0,0.0,0.0,0.0,0.0,0.0,0.0,0.0,0.0,0.0,0.0,0.0,0.0,0.0,0.0,0.0,0.0,0.0,0.0,0.0,0.0,0.0,0.0,0.0,0.0,0.0,0.0,0.0,0.0,0.0,0.0,0.0,0.0,0.0,0.0,0.0,0.0,0.0,0.0,0.0,0.0,0.0,0.0,0.0,0.0,0.0,0.0,0.0,0.0,0.0,0.0,0.0,0.0,0.0,0.0,0.0,0.0,0.0,0.0,0.0,0.0,0.0,0.0,0.0,0.0,0.0,0.0,0.0,0.0,0.0,0.0,0.0,0.0,0.0,0.0,0.0,0.0,0.0,0.0,0.0,0.0,0.0,0.0,0.0,0.0,0.0,0.0,0.0,0.0,0.0,0.0,0.0,0.0,0.0,0.0,0.0,0.0,0.0,0.0,0.0,0.0,0.0,0.0,0.0,0.0,0.0,0.0,0.0,0.0,0.0,0.0,0.0,0.0,0.0,0.0,0.0,0.0,0.0,0.0,0.0,0.0,0.0,0.0,0.0,0.0,0.0,0.0,0.0,0.0,0.0,0.0,0.0,0.0,0.0,0.0,0.0,0.0,0.0,0.0,0.0,0.0,0.0,0.0,0.0,0.0,0.0,0.0,0.0,0.0,0.0,0.0,0.0,0.0,0.0,0.0,0.0,0.0,0.0,0.0,0.0,0.0,0.0,0.0,0.0,0.0,0.0,0.0,0.0,0.0,0.0,0.0,0.0,0.0,0.0,0.0,0.0,0.0,0.0,0.0,0.0,0.0,0.0,0.0,0.0,0.0,0.0,0.0,0.0,0.0,0.0,0.0,0.0,0.0,0.0,0.0,0.0,0.0,0.0,0.0,0.0,0.0,0.0,0.0,0.0,0.0,0.0,0.0,0.0,0.0,0.0,0.0,0.0,0.0,0.0,0.0,0.0,0.0,0.0,0.0,0.0,0.0,0.0,0.0,0.0,0.0,0.0,0.0,0.0,0.0,0.0,0.0,0.0,0.0,0.0,0.0,0.0,0.0,0.0,0.0,0.0,0.0,0.0,0.0,0.0,0.0,0.0,0.0,0.0,0.0,0.0,0.0,0.0,0.0,0.0,0.0,0.0,0.0,0.0,0.0,0.0,0.0,0.0,0.0,0.0,0.0,0.0,0.0,0.0,0.0,0.0,0.0,0.0,0.0,0.0,0.0,0.0,0.0,0.0,0.0,0.0,0.0,0.0,0.0,0.0,0.0,0.0,0.0,0.0,0.0,0.0,0.0,0.0,0.0,0.0,0.0,0.0,0.0,0.0,0.0,0.0,0.0,0.0,0.0,0.0,0.0,0.0,0.0,0.0,0.0,0.0,0.0,0.0,0.0,0.0,0.0,0.0,0.0,0.0,0.0,0.0,0.0,0.0,0.0,0.0,0.0,0.0,0.0,0.0,0.0,0.0,0.0,0.0,0.0,0.0,0.0,0.0,0.0,0.0,0.0,0.0,0.0,0.0,0.0,0.0,0.0,0.0,0.0,0.0,0.0,0.0,0.0,0.0,0.0,0.0,0.0,0.0,0.0,0.0,0.0,0.0,0.0,0.0,0.0,0.0,0.0,0.0,0.0,0.0,0.0,0.0,0.0,0.0,0.0,0.0,0.0,0.0,0.0,0.0,0.0,0.0,0.0,0.0,0.0,0.0,0.0,0.0,0.0,0.0,0.0,0.0,0.0,0.0,0.0,0.0,0.0,0.0,0.0,0.0,0.0,0.0,0.0,0.0,0.0,0.0,0.0,0.0,0.0,0.0,0.0,0.0,0.0,0.0,0.0,0.0,0.0,0.0,0.0,0.0,0.0,0.0,0.0,0.0,0.0,0.0,0.0,0.0,0.0,0.0,0.0,0.0,0.0,0.0,0.0,0.0,0.0,0.0,0.0,0.0,0.0,0.0,0.0,0.0,0.0,0.0,0.0,0.0,0.0,0.0,0.0,0.0,0.0,0.0,0.0,0.0,0.0,0.0,0.0,0.0,0.0,0.0,0.0,0.0,0.0,0.0,0.0,0.0,0.0,0.0,0.0,0.0,0.0,0.0,0.0,0.0,0.0,0.0,0.0,0.0,0.0,0.0,0.0,0.0,0.0,0.0,0.0,0.0,0.0,0.0,0.0,0.0,0.0,0.0,0.0,0.0,0.0,0.0,0.0,0.0,0.0,0.0,0.0,0.0,0.0,0.0,0.0,0.0,0.0,0.0,0.0,0.0,0.0,0.0,0.0,0.0,0.0,0.0,0.0,0.0,0.0,0.0,0.0,0.0,0.0,0.0,0.0,0.0,0.0,0.0,0.0,0.0,0.0,0.0,0.0,0.0,0.0,0.0,0.0,0.0,0.0,0.0,0.0,0.0,0.0,0.0,0.0,0.0,0.0,0.0,0.0,0.0,0.0,0.0,0.0,0.0,0.0,0.0,0.0,0.0,0.0,0.0,0.0,0.0,0.0,0.0,0.0,0.0,0.0,0.0,0.0,0.0,0.0,0.0,0.0,0.0,0.0,0.0,0.0,0.0,0.0,0.0,0.0,0.0,0.0,0.0,0.0,0.0,0.0,0.0,0.0,0.0,0.0,0.0,0.0,0.0,0.0,0.0,0.0,0.0,0.0,0.0,0.0,0.0,0.0,0.0,0.0,0.0,0.0,0.0,0.0,0.0,0.0,0.0,0.0,0.0,0.0,0.0,0.0,0.0,0.0,0.0,0.0,0.0,0.0,0.0,0.0,0.0,0.0,0.0,0.0,0.0,0.0,0.0,0.0,0.0,0.0,0.0,0.0,0.0,0.0,0.0,0.0,0.0,0.0,0.0,0.0,0.0,0.0,0.0,0.0,0.0,0.0,0.0,0.0,0.0,0.0,0.0,0.0,0.0,0.0,0.0,0.0,0.0,0.0,0.0,0.0,0.0,0.0,0.0,0.0,0.0,0.0,0.0,0.0,0.0,0.0,0.0,0.0,0.0,0.0,0.0,0.0,0.0,0.0,0.0,0.0,0.0,0.0,0.0,0.0,0.0,0.0,0.0,0.0,0.0,0.0,0.0,0.0,0.0,0.0,0.0,0.0,0.0,0.0,0.0,0.0,0.0,0.0,0.0,0.0,0.0,0.0,0.0,0.0,0.0,0.0,0.0,0.0,0.0,0.0,0.0,0.0,0.0,0.0,0.0,0.0,0.0,0.0,0.0,0.0,0.0,0.0,0.0,0.0,0.0,0.0,0.0,0.0,0.0,0.0,0.0,0.0,0.0,0.0,0.0,0.0,0.0,0.0,0.0,0.0,0.0,0.0,0.0,0.0,0.0,0.0,0.0,0.0,0.0,0.0,0.0,0.0,0.0,0.0,0.0,0.0,0.0,0.0,0.0,0.0,0.0,0.0,0.0,0.0,0.0,0.0,0.0,0.0,0.0,0.0,0.0,0.0,0.0,0.0,0.0,0.0,0.0,0.0,0.0,0.0,0.0,0.0,0.0,0.0,0.0,0.0,0.0,0.0,0.0,0.0,0.0,0.0,0.0,0.0,0.0,0.0,0.0,0.0,0.0,0.0,0.0,0.0,0.0,0.0,0.0,0.0,0.0,0.0,0.0,0.0,0.0,0.0,0.0,0.0,0.0,0.0,0.0,0.0,0.0,0.0,0.0,0.0,0.0,0.0,0.0,0.0,0.0,0.0,0.0,0.0,0.0,0.0,0.0,0.0,0.0,0.0,0.0,0.0,0.0,0.0,0.0,0.0,0.0,0.0,0.0,0.0,0.0,0.0,0.0,0.0,0.0,0.0,0.0,0.0,0.0,0.0,0.0,0.0,0.0,0.0,0.0,0.0,0.0,0.0,0.0,0.0,0.0,0.0,0.0,0.0,0.0,0.0,0.0,0.0,0.0,0.0,0.0,0.0,0.0,0.0,0.0,0.0,0.0,0.0,0.0,0.0,0.0,0.0,0.0,0.0,0.0,0.0,0.0,0.0,0.0,0.0,0.0,0.0,1.1658,0.0,0.0,0.0,0.0,0.0,0.0,0.0,0.0,0.0,0.0,0.0,0.0,0.0,0.0,0.0,0.0,0.0,0.0,0.0,0.0,0.0,0.0,0.0,0.0,0.0,0.0,0.0,0.0,0.0,0.0,0.0,0.0,0.0,0.0,0.0,0.0,0.0,0.0,0.0,0.0,0.0,0.0,0.0,0.0,0.0,0.0,0.0,0.0,0.0,0.0,0.0,0.0,0.0,0.0,0.0,0.0,0.0,0.0,0.0,0.0,0.0,0.0,0.0,0.0,0.0,0.0,0.0,0.0,0.0,0.0,0.0,0.0,0.0,0.0,0.0,0.0,0.0,0.0,0.0,0.0,0.0,0.0,0.0,0.0,0.0,0.0,0.0,0.0,0.0,0.0,0.0,0.0,0.0,0.0,0.0,0.0,0.0,0.0,0.0,0.0,0.0,0.0,0.0,0.0,0.0,0.0,0.0,0.0,0.0,0.0,1.5523,1.5516,1.3996,1.286,1.2126,0.0,0.0,0.0,0.0,0.0,0.0,0.0,0.0,0.0,0.0,0.0,0.0,0.0,0.0,0.0,0.0,0.0,0.0,0.0,0.0,0.0,0.0,0.0,0.0,0.0,0.0,0.0,0.0,0.0,0.0,0.0,0.0,0.0,0.0,0.0,0.0,0.0,0.0,0.0,0.0,0.0,0.0,0.0,0.0,0.0,0.0,0.0,0.0,0.0,0.0,0.0,0.0,0.0,0.0,0.0,0.0,0.0,0.0,0.0,0.0,0.0,0.0,0.0,0.0,0.0,0.0,0.0,0.0,0.0,0.0,0.0,0.0,0.0,0.0,0.0,0.0,0.0,0.0,0.0,0.0,0.0,0.0,0.0,0.0,0.0,0.0,0.0,0.0,0.0,0.0,0.0,0.0,0.0,0.0,0.0,0.0,0.0,0.0,0.0,0.0,0.0,0.0,0.0,0.0,0.0,0.0,0.0,0.0,0.0,0.0,0.0,0.0,1.4775,1.3436,1.2149,0.0,0.0,0.0,0.0,0.0,0.0,0.0,0.0,0.0,0.0,0.0,0.0,0.0,0.0,0.0,0.0,0.0,0.0,0.0,0.0,0.0,0.0,0.0,0.0,0.0,0.0,0.0,0.0,0.0,0.0,0.0,0.0,0.0,0.0,0.0,0.0,0.0,0.0,0.0,0.0,0.0,0.0,0.0,0.0,0.0,0.0,0.0,0.0,0.0,0.0,0.0,0.0,0.0,0.0,0.0,0.0,0.0,0.0,0.0,0.0,0.0,0.0,0.0,0.0,0.0,0.0,0.0,0.0,0.0,0.0,0.0,0.0,0.0,0.0,0.0,0.0,0.0,0.0,0.0,0.0,0.0,0.0,0.0,0.0,0.0,0.0,0.0,0.0,0.0,0.0,0.0,0.0,0.0,0.0,0.0,0.0,0.0,0.0,0.0,0.0,0.0,0.0,0.0,0.0,0.0,0.0,0.0,0.0,0.0,0.0,1.7206,1.6559,1.5917,0.0,1.1876,0.0,0.0,0.0,0.0,0.0,0.0,0.0,0.0,0.0,0.0,0.0,0.0,0.0,0.0,0.0,0.0,0.0,0.0,0.0,0.0,0.0,0.0,0.0,0.0,0.0,0.0,0.0,0.0,0.0,0.0,0.0,0.0,0.0,0.0,0.0,0.0,0.0,0.0,0.0,0.0,0.0,0.0,0.0,0.0,0.0,0.0,0.0,0.0,0.0,0.0,0.0,0.0,0.0,0.0,0.0,0.0,0.0,0.0,0.0,0.0,0.0,0.0,0.0,0.0,0.0,0.0,0.0,0.0,0.0,0.0,0.0,0.0,0.0,0.0,0.0,0.0,0.0,0.0,0.0,0.0,0.0,0.0,0.0,0.0,0.0,0.0,0.0,0.0,0.0,0.0,0.0,0.0,0.0,0.0,0.0,0.0,0.0,0.0,0.0,0.0,0.0,0.0,0.0,0.0,0.0,0.0,0.0,0.0,0.0,0.0,1.7051,1.6616,1.5951,1.4364,0.0,0.0,0.0,0.0,0.0,0.0,0.0,0.0,0.0,0.0,0.0,0.0,0.0,0.0,0.0,0.0,0.0,0.0,0.0,0.0,0.0,0.0,0.0,0.0,0.0,0.0,0.0,0.0,0.0,0.0,0.0,0.0,0.0,0.0,0.0,0.0,0.0,0.0,0.0,0.0,0.0,0.0,0.0,0.0,0.0,0.0,0.0,0.0,0.0,0.0,0.0,0.0,0.0,0.0,0.0,0.0,0.0,0.0,0.0,0.0,0.0,0.0,0.0,0.0,0.0,0.0,0.0,0.0,0.0,0.0,0.0,0.0,0.0,0.0,0.0,0.0,0.0,0.0,0.0,0.0,0.0,0.0,0.0,0.0,0.0,0.0,0.0,0.0,0.0,0.0,0.0,0.0,0.0,0.0,0.0,0.0,0.0,0.0,0.0,0.0,0.0,0.0,0.0,0.0,0.0,0.0,0.0,0.0,0.0,0.0,1.699,1.6935,1.6713,1.591,1.4339,1.201,0.0,0.0,0.0,0.0,0.0,0.0,0.0,0.0,0.0,0.0,0.0,0.0,0.0,0.0,0.0,0.0,0.0,0.0,0.0,0.0,0.0,0.0,0.0,0.0,0.0,0.0,0.0,0.0,0.0,0.0,0.0,0.0,0.0,0.0,0.0,0.0,0.0,0.0,0.0,0.0,0.0,0.0,0.0,0.0,0.0,0.0,0.0,0.0,0.0,0.0,0.0,0.0,0.0,0.0,0.0,0.0,0.0,0.0,0.0,0.0,0.0,0.0,0.0,0.0,0.0,0.0,0.0,0.0,0.0,0.0,0.0,0.0,0.0,0.0,0.0,0.0,0.0,0.0,0.0,0.0,0.0,0.0,0.0,0.0,0.0,0.0,0.0,0.0,0.0,0.0,0.0,0.0,0.0,0.0,0.0,0.0,0.0,0.0,0.0,0.0,0.0,0.0,0.0,0.0,0.0,0.0,0.0,0.0,1.8106,1.7567,1.7215,1.7055,1.5925,1.4408,0.0,0.0,0.0,0.0,0.0,0.0,0.0,0.0,0.0,0.0,0.0,0.0,0.0,0.0,0.0,0.0,0.0,0.0,0.0,0.0,0.0,0.0,0.0,0.0,0.0,0.0,0.0,0.0,0.0,0.0,0.0,0.0,0.0,0.0,0.0,0.0,0.0,0.0,0.0,0.0,0.0,0.0,0.0,0.0,0.0,0.0,0.0,0.0,0.0,0.0,0.0,0.0,0.0,0.0,0.0,0.0,0.0,0.0,0.0,0.0,0.0,0.0,0.0,0.0,0.0,0.0,0.0,0.0,0.0,0.0,0.0,0.0,0.0,0.0,0.0,0.0,0.0,0.0,0.0,0.0,0.0,0.0,0.0,0.0,0.0,0.0,0.0,0.0,0.0,0.0,0.0,0.0,0.0,0.0,0.0,0.0,0.0,0.0,0.0,0.0,0.0,0.0,0.0,0.0,0.0,0.0,0.0,0.0,0.0,1.6932,1.7033,1.7159,1.7354,1.6177,1.4553,0.0,0.0,0.0,0.0,0.0,0.0,0.0,0.0,0.0,0.0,0.0,0.0,0.0,0.0,0.0,0.0,0.0,0.0,0.0,0.0,0.0,0.0,0.0,0.0,0.0,0.0,0.0,0.0,0.0,0.0,0.0,0.0,0.0,0.0,0.0,0.0,0.0,0.0,0.0,0.0,0.0,0.0,0.0,0.0,0.0,0.0,0.0,0.0,0.0,0.0,0.0,0.0,0.0,0.0,0.0,0.0,0.0,0.0,0.0,0.0,0.0,0.0,0.0,0.0,0.0,0.0,0.0,0.0,0.0,0.0,0.0,0.0,0.0,0.0,0.0,0.0,0.0,0.0,0.0,0.0,0.0,0.0,0.0,0.0,0.0,0.0,0.0,0.0,0.0,0.0,0.0,0.0,0.0,0.0,0.0,0.0,0.0,0.0,0.0,0.0,0.0,0.0,0.0,0.0,0.0,0.0,0.0,0.0,0.0,1.6449,0.0,1.7016,1.6976,1.6074,1.4511,0.0,0.0,0.0,0.0,0.0,0.0,0.0,0.0,0.0,0.0,0.0,0.0,0.0,0.0,0.0,0.0,0.0,0.0,0.0,0.0,0.0,0.0,0.0,0.0,0.0,0.0,0.0,0.0,0.0,0.0,0.0,0.0,0.0,0.0,0.0,0.0,0.0,0.0,0.0,0.0,0.0,0.0,0.0,0.0,0.0,0.0,0.0,0.0,0.0,0.0,0.0,0.0,0.0,0.0,0.0,0.0,0.0,0.0,0.0,0.0,0.0,0.0,0.0,0.0,0.0,0.0,0.0,0.0,0.0,0.0,0.0,0.0,0.0,0.0,0.0,0.0,0.0,0.0,0.0,0.0,0.0,0.0,0.0,0.0,0.0,0.0,0.0,0.0,0.0,0.0,0.0,0.0,0.0,0.0,0.0,0.0,0.0,0.0,0.0,0.0,0.0,0.0,0.0,0.0,0.0,0.0,0.0,0.0,1.6728,1.6879,1.7053,1.6764,1.5872,1.5596,1.4334,0.0,0.0,0.0,0.0,0.0,0.0,0.0,0.0,0.0,0.0,0.0,0.0,0.0,0.0,0.0,0.0,0.0,0.0,0.0,0.0,0.0,0.0,0.0,0.0,0.0,0.0,0.0,0.0,0.0,0.0,0.0,0.0,0.0,0.0,0.0,0.0,0.0,0.0,0.0,0.0,0.0,0.0,0.0,0.0,0.0,0.0,0.0,0.0,0.0,0.0,0.0,0.0,0.0,0.0,0.0,0.0,0.0,0.0,0.0,0.0,0.0,0.0,0.0,0.0,0.0,0.0,0.0,0.0,0.0,0.0,0.0,0.0,0.0,0.0,0.0,0.0,0.0,0.0,0.0,0.0,0.0,0.0,0.0,0.0,0.0,0.0,0.0,0.0,0.0,0.0,0.0,0.0,0.0,0.0,0.0,0.0,0.0,0.0,0.0,0.0,0.0,0.0,0.0,0.0,0.0,0.0,0.0,0.0,0.0,1.6323,1.6438,1.6705,1.7034,1.5576,1.4191,0.0,0.0,0.0,0.0,0.0,0.0,0.0,0.0,0.0,0.0,0.0,0.0,0.0,0.0,0.0,0.0,0.0,0.0,0.0,0.0,0.0,0.0,0.0,0.0,0.0,0.0,0.0,0.0,0.0,0.0,0.0,0.0,0.0,0.0,0.0,0.0,0.0,0.0,0.0,0.0,0.0,0.0,0.0,0.0,0.0,0.0,0.0,0.0,0.0,0.0,0.0,0.0,0.0,0.0,0.0,0.0,0.0,0.0,0.0,0.0,0.0,0.0,0.0,0.0,0.0,0.0,0.0,0.0,0.0,0.0,0.0,0.0,0.0,0.0,0.0,0.0,0.0,0.0,0.0,0.0,0.0,0.0,0.0,0.0,0.0,0.0,0.0,0.0,0.0,0.0,0.0,0.0,0.0,0.0,0.0,0.0,0.0,0.0,0.0,0.0,0.0,0.0,0.0,0.0,0.0,0.0,0.0,0.0,0.0,1.6038,1.6248,1.6592,1.7044,1.5706,1.4326,1.2988,0.0,0.0,0.0,0.0,0.0,0.0,0.0,0.0,0.0,0.0,0.0,0.0,0.0,0.0,0.0,0.0,0.0,0.0,0.0,0.0,0.0,0.0,0.0,0.0,0.0,0.0,0.0,0.0,0.0,0.0,0.0,0.0,0.0,0.0,0.0,0.0,0.0,0.0,0.0,0.0,0.0,0.0,0.0,0.0,0.0,0.0,0.0,0.0,0.0,0.0,0.0,0.0,0.0,0.0,0.0,0.0,0.0,0.0,0.0,0.0,0.0,0.0,0.0,0.0,0.0,0.0,0.0,0.0,0.0,0.0,0.0,0.0,0.0,0.0,0.0,0.0,0.0,0.0,0.0,0.0,0.0,0.0,0.0,0.0,0.0,0.0,0.0,0.0,0.0,0.0,0.0,0.0,0.0,0.0,0.0,0.0,0.0,0.0,0.0,0.0,0.0,0.0,0.0,0.0,0.0,0.0,0.0,0.0,1.6082,1.6454,1.6505,1.6173,1.6065,1.479,0.0,0.0,0.0,0.0,0.0,0.0,0.0,0.0,0.0,0.0,0.0,0.0,0.0,0.0,0.0,0.0,0.0,0.0,0.0,0.0,0.0,0.0,0.0,0.0,0.0,0.0,0.0,0.0,0.0,0.0,0.0,0.0,0.0,0.0,0.0,0.0,0.0,0.0,0.0,0.0,0.0,0.0,0.0,0.0,0.0,0.0,0.0,0.0,0.0,0.0,0.0,0.0,0.0,0.0,0.0,0.0,0.0,0.0,0.0,0.0,0.0,0.0,0.0,0.0,0.0,0.0,0.0,0.0,0.0,0.0,0.0,0.0,0.0,0.0,0.0,0.0,0.0,0.0,0.0,0.0,0.0,0.0,0.0,0.0,0.0,0.0,0.0,0.0,0.0,0.0,0.0,0.0,0.0,0.0,0.0,0.0,0.0,0.0,0.0,0.0,0.0,0.0,0.0,0.0,0.0,0.0,0.0,0.0,0.0,1.699,1.7146,1.7343,1.7662,1.6627,1.5215,0.0,0.0,0.0,0.0,0.0,0.0,0.0,0.0,0.0,0.0,0.0,0.0,0.0,0.0,0.0,0.0,0.0,0.0,0.0,0.0,0.0,0.0,0.0,0.0,0.0,0.0,0.0,0.0,0.0,0.0,0.0,0.0,0.0,0.0,0.0,0.0,0.0,0.0,0.0,0.0,0.0,0.0,0.0,0.0,0.0,0.0,0.0,0.0,0.0,0.0,0.0,0.0,0.0,0.0,0.0,0.0,0.0,0.0,0.0,0.0,0.0,0.0,0.0,0.0,0.0,0.0,0.0,0.0,0.0,0.0,0.0,0.0,0.0,0.0,0.0,0.0,0.0,0.0,0.0,0.0,0.0,0.0,0.0,0.0,0.0,0.0,0.0,0.0,0.0,0.0,0.0,0.0,0.0,0.0,0.0,0.0,0.0,0.0,0.0,0.0,0.0,0.0,0.0,0.0,0.0,0.0,0.0,0.0,1.6471,1.7223,1.7807,1.8151,1.8248,1.7356,1.5681,0.0,0.0,0.0,0.0,0.0,0.0,0.0,0.0,0.0,0.0,0.0,0.0,0.0,0.0,0.0,0.0,0.0,0.0,0.0,0.0,0.0,0.0,0.0,0.0,0.0,0.0,0.0,0.0,0.0,0.0,0.0,0.0,0.0,0.0,0.0,0.0,0.0,0.0,0.0,0.0,0.0,0.0,0.0,0.0,0.0,0.0,0.0,0.0,0.0,0.0,0.0,0.0,0.0,0.0,0.0,0.0,0.0,0.0,0.0,0.0,0.0,0.0,0.0,0.0,0.0,0.0,0.0,0.0,0.0,0.0,0.0,0.0,0.0,0.0,0.0,0.0,0.0,0.0,0.0,0.0,0.0,0.0,0.0,0.0,0.0,0.0,0.0,0.0,0.0,0.0,0.0,0.0,0.0,0.0,0.0,0.0,0.0,0.0,0.0,0.0,0.0,0.0,0.0,0.0,0.0,0.0,0.0,0.0,1.7338,1.7215,1.8496,1.8928,1.8356,1.802,1.6127,0.0,0.0,0.0,0.0,0.0,0.0,0.0,0.0,0.0,0.0,0.0,0.0,0.0,0.0,0.0,0.0,0.0,0.0,0.0,0.0,0.0,0.0,0.0,0.0,0.0,0.0,0.0,0.0,0.0,0.0,0.0,0.0,0.0,0.0,0.0,0.0,0.0,0.0,0.0,0.0,0.0,0.0,0.0,0.0,0.0,0.0,0.0,0.0,0.0,0.0,0.0,0.0,0.0,0.0,0.0,0.0,0.0,0.0,0.0,0.0,0.0,0.0,0.0,0.0,0.0,0.0,0.0,0.0,0.0,0.0,0.0,0.0,0.0,0.0,0.0,0.0,0.0,0.0,0.0,0.0,0.0,0.0,0.0,0.0,0.0,0.0,0.0,0.0,0.0,0.0,0.0,0.0,0.0,0.0,0.0,0.0,0.0,0.0,0.0,0.0,0.0,0.0,0.0,0.0,0.0,0.0,0.0,0.0,1.7805,1.8654,1.9342,1.9546,1.9225,1.8163,1.6329,0.0,0.0,0.0,0.0,0.0,0.0,0.0,0.0,0.0,0.0,0.0,0.0,0.0,0.0,0.0,0.0,0.0,0.0,0.0,0.0,0.0,0.0,0.0,0.0,0.0,0.0,0.0,0.0,0.0,0.0,0.0,0.0,0.0,0.0,0.0,0.0,0.0,0.0,0.0,0.0,0.0,0.0,0.0,0.0,0.0,0.0,0.0,0.0,1.9149,0.0,0.0,0.0,0.0,0.0,0.0,0.0,0.0,0.0,0.0,0.0,0.0,0.0,0.0,0.0,0.0,0.0,0.0,0.0,0.0,0.0,0.0,0.0,0.0,0.0,0.0,0.0,0.0,0.0,0.0,0.0,0.0,0.0,0.0,0.0,0.0,0.0,0.0,0.0,0.0,0.0,0.0,0.0,0.0,0.0,0.0,0.0,0.0,0.0,0.0,0.0,0.0,0.0,0.0,0.0,0.0,0.0,0.0,0.0,1.8127,1.9068,1.9601,1.9742,1.9451,1.8551,1.6976,0.0,0.0,0.0,0.0,0.0,0.0,0.0,0.0,0.0,0.0,0.0,0.0,0.0,0.0,0.0,0.0,0.0,0.0,0.0,0.0,0.0,0.0,0.0,0.0,0.0,0.0,0.0,0.0,0.0,0.0,0.0,0.0,0.0,0.0,0.0,0.0,0.0,0.0,0.0,0.0,0.0,0.0,0.0,0.0,0.0,0.0,0.0,0.0,0.0,0.0,0.0,0.0,0.0,0.0,0.0,0.0,0.0,0.0,0.0,0.0,0.0,0.0,0.0,0.0,0.0,0.0,0.0,0.0,0.0,0.0,0.0,0.0,0.0,0.0,0.0,0.0,0.0,0.0,0.0,0.0,0.0,0.0,0.0,0.0,0.0,0.0,0.0,0.0,0.0,0.0,0.0,0.0,0.0,0.0,0.0,0.0,0.0,0.0,0.0,0.0,0.0,0.0,0.0,0.0,0.0,0.0,0.0,1.7403,1.8348,1.9301,1.9796,1.9867,1.9608,1.9079,1.7749,1.546,0.0,0.0,0.0,0.0,0.0,0.0,0.0,0.0,0.0,0.0,0.0,0.0,0.0,0.0,0.0,0.0,0.0,0.0,0.0,0.0,0.0,0.0,0.0,0.0,0.0,0.0,0.0,0.0,0.0,0.0,0.0,0.0,0.0,0.0,0.0,0.0,0.0,0.0,1.6993,1.762,0.0,0.0,0.0,0.0,0.0,0.0,0.0,0.0,1.8852,0.0,0.0,0.0,0.0,0.0,0.0,0.0,0.0,0.0,0.0,0.0,0.0,0.0,0.0,0.0,0.0,0.0,0.0,0.0,0.0,0.0,0.0,0.0,0.0,0.0,0.0,0.0,0.0,0.0,0.0,0.0,0.0,0.0,0.0,0.0,0.0,0.0,0.0,0.0,0.0,0.0,0.0,0.0,0.0,0.0,0.0,0.0,0.0,0.0,0.0,0.0,0.0,0.0,0.0,0.0,0.0,1.8221,1.7982,1.8647,2.0381,2.0541,2.0533,2.0474,1.9768,1.833,1.6183,0.0,0.0,0.0,0.0,0.0,0.0,0.0,0.0,0.0,0.0,0.0,0.0,0.0,0.0,0.0,0.0,0.0,0.0,0.0,0.0,0.0,0.0,0.0,0.0,0.0,0.0,0.0,0.0,0.0,0.0,0.0,0.0,0.0,0.0,0.0,0.0,0.0,0.0,0.0,1.8471,1.9094,0.0,0.0,0.0,0.0,0.0,0.0,0.0,0.0,1.9106,0.0,0.0,0.0,0.0,0.0,0.0,0.0,0.0,0.0,0.0,0.0,0.0,0.0,0.0,0.0,0.0,0.0,0.0,0.0,0.0,0.0,0.0,0.0,0.0,0.0,0.0,0.0,0.0,0.0,0.0,0.0,0.0,0.0,0.0,0.0,0.0,0.0,0.0,0.0,0.0,0.0,0.0,0.0,0.0,0.0,0.0,0.0,0.0,0.0,0.0,0.0,0.0,0.0,0.0,0.0,1.8143,1.8519,1.932,2.0628,2.07,2.07,2.0676,1.9622,1.797,0.0,0.0,0.0,0.0,0.0,0.0,0.0,0.0,0.0,0.0,0.0,0.0,0.0,0.0,0.0,0.0,0.0,0.0,0.0,0.0,0.0,0.0,0.0,0.0,0.0,0.0,0.0,0.0,0.0,0.0,0.0,0.0,0.0,0.0,0.0,0.0,0.0,0.0,0.0,0.0,1.8652,1.9078,1.9634,0.0,0.0,0.0,0.0,0.0,0.0,1.8862,1.871,0.0,0.0,0.0,0.0,0.0,0.0,0.0,0.0,0.0,0.0,0.0,0.0,0.0,0.0,0.0,0.0,0.0,0.0,0.0,0.0,0.0,0.0,0.0,0.0,0.0,0.0,0.0,0.0,0.0,0.0,0.0,0.0,0.0,0.0,0.0,0.0,0.0,0.0,0.0,0.0,0.0,0.0,0.0,0.0,0.0,0.0,0.0,0.0,0.0,0.0,0.0,0.0,0.0,0.0,0.0,1.7887,1.8895,1.9838,2.064,2.07,2.0665,2.0572,1.9284,1.7497,0.0,0.0,0.0,0.0,0.0,0.0,0.0,0.0,0.0,0.0,0.0,0.0,0.0,0.0,0.0,0.0,0.0,0.0,0.0,0.0,0.0,0.0,0.0,0.0,0.0,0.0,0.0,0.0,0.0,0.0,0.0,0.0,0.0,0.0,0.0,0.0,0.0,0.0,0.0,0.0,0.0,1.9237,1.9989,1.962,0.0,0.0,0.0,0.0,1.8488,1.8534,0.0,0.0,0.0,0.0,0.0,0.0,0.0,0.0,0.0,0.0,0.0,0.0,0.0,0.0,0.0,0.0,0.0,0.0,0.0,0.0,0.0,0.0,0.0,0.0,0.0,0.0,0.0,0.0,0.0,0.0,0.0,0.0,0.0,0.0,0.0,0.0,0.0,0.0,0.0,0.0,0.0,0.0,0.0,0.0,0.0,0.0,0.0,0.0,0.0,0.0,0.0,0.0,0.0,0.0,0.0,0.0,1.8193,1.879,1.9589,2.0628,2.07,2.0527,2.0156,1.9208,1.7422,0.0,0.0,0.0,0.0,0.0,0.0,0.0,0.0,0.0,0.0,0.0,0.0,0.0,0.0,0.0,0.0,0.0,0.0,0.0,0.0,0.0,0.0,0.0,0.0,0.0,0.0,0.0,0.0,0.0,0.0,0.0,0.0,0.0,0.0,0.0,0.0,0.0,0.0,0.0,0.0,0.0,2.0296,1.9892,1.9766,1.9724,0.0,0.0,1.8774,1.8842,1.9179,0.0,0.0,0.0,0.0,0.0,0.0,0.0,0.0,0.0,0.0,0.0,0.0,0.0,0.0,0.0,0.0,0.0,0.0,0.0,0.0,0.0,0.0,0.0,0.0,0.0,0.0,0.0,0.0,0.0,0.0,0.0,0.0,0.0,0.0,0.0,0.0,0.0,0.0,0.0,0.0,0.0,0.0,0.0,0.0,0.0,0.0,0.0,0.0,0.0,0.0,0.0,0.0,0.0,0.0,0.0,1.7203,1.8294,1.9407,2.0221,2.0676,2.07,2.0631,2.0422,1.897,1.753,0.0,0.0,0.0,0.0,0.0,0.0,0.0,0.0,0.0,0.0,0.0,0.0,0.0,0.0,0.0,0.0,0.0,0.0,0.0,0.0,0.0,0.0,0.0,0.0,0.0,0.0,0.0,0.0,0.0,0.0,0.0,0.0,0.0,0.0,0.0,0.0,0.0,0.0,0.0,0.0,0.0,0.0,2.0799,2.0375,0.0,0.0,0.0,1.9079,1.9296,0.0,0.0,0.0,0.0,0.0,0.0,0.0,0.0,0.0,0.0,0.0,0.0,0.0,0.0,0.0,0.0,0.0,0.0,0.0,0.0,0.0,0.0,0.0,0.0,0.0,0.0,0.0,0.0,0.0,0.0,0.0,0.0,0.0,0.0,0.0,0.0,0.0,0.0,0.0,0.0,0.0,0.0,0.0,0.0,0.0,0.0,0.0,0.0,0.0,0.0,0.0,0.0,0.0,0.0,0.0,0.0,0.0,1.8319,1.9887,2.07,2.07,2.07,2.0678,2.0525,1.9037,0.0,0.0,0.0,0.0,0.0,0.0,0.0,0.0,0.0,0.0,0.0,0.0,0.0,0.0,0.0,0.0,0.0,0.0,0.0,0.0,0.0,0.0,0.0,0.0,0.0,0.0,0.0,1.5987,0.0,0.0,0.0,0.0,0.0,0.0,0.0,0.0,0.0,0.0,0.0,0.0,0.0,0.0,2.0973,2.1416,2.0827,2.0465,0.0,0.0,1.9309,1.9653,1.9647,1.9379,0.0,0.0,0.0,0.0,0.0,0.0,0.0,0.0,0.0,0.0,0.0,0.0,0.0,0.0,0.0,0.0,0.0,0.0,0.0,0.0,0.0,0.0,0.0,0.0,0.0,0.0,0.0,0.0,0.0,0.0,0.0,0.0,0.0,0.0,0.0,0.0,0.0,0.0,0.0,0.0,0.0,0.0,0.0,0.0,0.0,0.0,0.0,0.0,0.0,0.0,0.0,0.0,0.0,0.0,0.0,1.8345,1.9887,2.0712,2.07,2.07,2.0527,2.0133,1.9641,1.8388,0.0,0.0,0.0,0.0,0.0,0.0,0.0,0.0,0.0,0.0,0.0,0.0,0.0,0.0,0.0,0.0,0.0,0.0,0.0,0.0,0.0,0.0,0.0,0.0,0.0,0.0,0.0,0.0,0.0,0.0,0.0,0.0,0.0,0.0,0.0,0.0,0.0,0.0,0.0,0.0,0.0,2.1078,2.1108,2.0889,2.0877,0.0,0.0,1.9592,1.9672,1.9794,1.9535,1.859,0.0,0.0,0.0,0.0,0.0,0.0,0.0,0.0,0.0,0.0,0.0,0.0,0.0,0.0,0.0,0.0,0.0,0.0,0.0,0.0,0.0,0.0,0.0,0.0,0.0,0.0,0.0,0.0,0.0,0.0,0.0,0.0,0.0,0.0,0.0,0.0,0.0,0.0,0.0,0.0,0.0,0.0,0.0,0.0,0.0,0.0,0.0,0.0,0.0,0.0,0.0,0.0,0.0,1.7862,1.8799,2.0205,2.1027,2.1196,2.1039,2.0872,2.0696,1.9956,1.892,0.0,0.0,0.0,0.0,0.0,0.0,0.0,0.0,0.0,0.0,0.0,0.0,0.0,0.0,0.0,0.0,0.0,0.0,0.0,0.0,0.0,0.0,0.0,0.0,0.0,0.0,0.0,0.0,1.7534,1.7804,1.834,0.0,0.0,0.0,0.0,0.0,0.0,0.0,0.0,0.0,0.0,2.2212,2.2211,2.1897,0.0,0.0,2.1012,2.0376,2.0638,2.0369,1.9869,1.9038,1.9013,0.0,0.0,0.0,0.0,0.0,0.0,0.0,0.0,0.0,0.0,0.0,0.0,0.0,0.0,0.0,0.0,0.0,0.0,0.0,0.0,0.0,0.0,0.0,0.0,0.0,0.0,0.0,0.0,0.0,0.0,0.0,0.0,0.0,0.0,0.0,0.0,0.0,0.0,0.0,0.0,0.0,0.0,0.0,0.0,0.0,0.0,0.0,0.0,0.0,0.0,0.0,0.0,1.8097,1.9114,2.05,2.1317,2.1474,2.1329,2.1184,2.111,2.0361,1.9646,0.0,0.0,0.0,0.0,0.0,0.0,0.0,0.0,0.0,0.0,0.0,0.0,0.0,0.0,0.0,0.0,0.0,0.0,0.0,0.0,0.0,0.0,0.0,0.0,0.0,0.0,0.0,0.0,1.8415,1.8661,1.8804,0.0,0.0,0.0,0.0,0.0,0.0,0.0,0.0,0.0,0.0,2.2936,2.2998,2.261,2.239,2.2469,2.1513,2.0923,2.1314,2.0923,2.0328,1.9464,0.0,0.0,0.0,0.0,0.0,0.0,0.0,0.0,0.0,0.0,0.0,0.0,0.0,0.0,0.0,0.0,0.0,0.0,0.0,0.0,0.0,0.0,0.0,0.0,0.0,0.0,0.0,0.0,0.0,0.0,1.123,0.0,0.0,0.0,0.0,0.0,0.0,0.0,0.0,0.0,0.0,0.0,0.0,0.0,0.0,0.0,0.0,0.0,0.0,0.0,0.0,0.0,0.0,1.8487,1.914,2.0674,2.151,2.1498,2.1474,2.1389,2.1123,2.1051,2.0559,1.9507,0.0,0.0,0.0,0.0,0.0,0.0,0.0,0.0,0.0,0.0,0.0,0.0,0.0,0.0,0.0,0.0,0.0,0.0,0.0,0.0,0.0,0.0,0.0,0.0,0.0,0.0,1.8749,1.9067,1.9168,0.0,0.0,0.0,0.0,0.0,0.0,0.0,0.0,0.0,0.0,2.252,2.2998,2.3241,2.2785,2.2558,2.2812,2.1799,2.1111,2.1476,2.1443,2.0969,0.0,0.0,0.0,0.0,0.0,0.0,0.0,0.0,0.0,0.0,0.0,0.0,0.0,0.0,0.0,0.0,0.0,0.0,0.0,0.0,0.0,0.0,0.0,0.0,0.0,0.0,0.0,1.397,1.3349,0.0,0.0,0.0,0.0,0.0,0.0,0.0,0.0,0.0,0.0,0.0,1.6577,1.7295,0.0,0.0,0.0,0.0,0.0,0.0,0.0,0.0,0.0,0.0,0.0,0.0,1.8794,1.996,2.1184,2.1861,2.203,2.1861,2.174,2.1631,2.1281,2.0556,1.9455,0.0,0.0,0.0,0.0,0.0,0.0,0.0,0.0,0.0,0.0,0.0,0.0,0.0,0.0,0.0,0.0,0.0,0.0,0.0,0.0,0.0,0.0,0.0,0.0,0.0,1.8636,0.0,0.0,0.0,0.0,0.0,0.0,0.0,0.0,0.0,0.0,0.0,2.1415,2.1932,2.2869,2.3467,2.3327,2.3241,2.3138,0.0,0.0,0.0,0.0,0.0,0.0,0.0,0.0,0.0,0.0,0.0,0.0,0.0,0.0,2.3288,2.1455,2.0639,2.0176,1.9942,0.0,0.0,0.0,0.0,0.0,0.0,0.0,0.0,0.0,0.0,0.0,0.0,0.0,0.0,0.0,0.0,1.5009,0.0,0.0,0.0,0.0,0.0,0.0,0.0,0.0,1.7159,1.7863,1.8215,1.8476,1.8314,0.0,1.7792,1.7657,0.0,0.0,0.0,0.0,0.0,0.0,0.0,0.0,1.9323,2.0409,2.1503,2.2127,2.2284,2.2139,2.1994,2.1897,2.1377,2.0693,1.9886,1.9046,1.8635,0.0,0.0,0.0,0.0,0.0,0.0,0.0,0.0,0.0,0.0,0.0,0.0,0.0,0.0,0.0,0.0,0.0,0.0,0.0,0.0,0.0,0.0,0.0,1.896,0.0,0.0,0.0,0.0,0.0,0.0,0.0,0.0,0.0,2.0897,2.1683,2.2458,2.2867,2.3475,2.3891,2.3919,0.0,0.0,0.0,0.0,0.0,0.0,0.0,2.2349,2.2439,2.2115,2.187,2.2049,2.2907,2.3509,2.3183,0.0,0.0,2.2407,2.1714,2.1357,2.1338,2.1601,2.1925,2.223,2.2469,2.2701,0.0,0.0,0.0,0.0,0.0,0.0,0.0,0.0,1.6011,1.6395,0.0,1.6836,0.0,0.0,0.0,0.0,0.0,1.5562,0.0,0.0,1.921,2.0194,2.0263,1.9917,1.9829,2.0017,2.006,1.9771,1.9213,1.8217,0.0,0.0,0.0,0.0,0.0,0.0,2.0086,2.0464,2.1651,2.2296,2.2296,2.2296,2.2175,2.1909,2.1389,2.0978,2.0723,2.0402,2.0023,1.9493,1.8694,0.0,0.0,0.0,0.0,0.0,0.0,0.0,0.0,0.0,0.0,0.0,0.0,0.0,0.0,0.0,0.0,0.0,0.0,0.0,0.0,1.9562,0.0,0.0,0.0,0.0,0.0,0.0,0.0,0.0,0.0,0.0,2.2136,2.3084,2.3995,2.4492,0.0,0.0,0.0,0.0,2.3763,2.409,2.3972,2.3919,2.4126,2.4072,2.3691,2.2839,0.0,0.0,2.2612,2.3499,2.4207,2.3956,2.4264,2.4622,2.4808,2.4188,2.3954,2.4453,2.404,2.4121,2.4778,2.456,2.4636,1.5819,0.0,0.0,0.0,0.0,1.5974,1.6535,1.6701,1.8047,1.7971,1.6904,1.688,0.0,0.0,0.0,0.0,0.0,0.0,1.8124,1.9604,2.0456,2.0883,2.1031,2.1089,2.0933,2.0577,2.0565,2.0533,2.0407,2.0321,1.9619,1.848,0.0,0.0,0.0,0.0,2.0555,2.1205,2.1922,2.2308,2.2308,2.2308,2.2175,2.1909,2.1535,2.1268,2.099,2.0569,2.0137,1.9814,1.912,0.0,0.0,0.0,0.0,0.0,0.0,0.0,0.0,0.0,0.0,0.0,0.0,0.0,0.0,0.0,0.0,0.0,0.0,0.0,1.9929,2.0053,2.0316,0.0,0.0,0.0,0.0,0.0,0.0,0.0,0.0,0.0,2.4,2.4223,2.4449,0.0,0.0,2.4791,2.4746,2.4424,2.4102,2.3953,0.0,0.0,0.0,2.4087,2.4278,2.4634,2.4669,2.469,2.4774,2.4638,2.4492,2.44,2.4645,2.496,2.5124,2.4489,2.3969,2.4056,2.4066,2.415,2.4418,2.4673,2.494,1.6983,1.6438,1.5726,1.561,1.5988,1.6964,1.7433,1.7621,1.8543,1.8515,1.7739,1.766,1.7011,1.6009,1.635,0.0,0.0,0.0,1.982,2.1289,2.1578,2.1898,2.2124,2.2124,2.2018,2.1731,2.1463,2.1461,2.1648,2.167,2.1167,2.017,0.0,0.0,2.0022,2.0565,2.1124,2.1648,2.2056,2.2308,2.2308,2.2308,2.2224,2.2066,2.18,2.1547,2.1268,2.0919,2.0615,2.0268,1.9769,1.9368,0.0,0.0,0.0,0.0,0.0,0.0,0.0,0.0,0.0,0.0,0.0,1.6179,1.5657,0.0,0.0,0.0,1.9606,2.0474,2.101,2.1247,0.0,0.0,0.0,0.0,0.0,0.0,0.0,2.346,2.4425,2.5045,2.5023,2.5283,2.5309,2.5021,2.4867,2.4881,2.5087,0.0,2.4889,2.4811,2.5152,2.5375,2.5119,2.4994,2.5069,2.538,2.5383,2.5364,2.5523,2.53,2.5108,2.5102,2.5367,2.568,2.5849,2.5415,2.4981,2.4788,2.4873,2.5005,2.5114,2.5403,2.5632,1.8507,1.8606,1.7031,1.6947,1.7917,1.786,1.795,1.8191,1.8245,1.8395,1.8695,1.8804,1.9007,1.931,1.9496,0.0,2.0169,2.085,2.1602,2.2465,2.2707,2.3056,2.3459,2.3115,2.3074,2.3298,2.2692,2.2565,2.2886,2.256,2.2395,2.2411,2.1956,2.1577,2.1313,2.1535,2.1733,2.1993,2.2263,2.2382,2.2369,2.2357,2.2357,2.2357,2.2103,2.18,2.1523,2.1426,2.1194,2.0678,2.0257,1.987,1.9466,0.0,0.0,0.0,0.0,0.0,0.0,0.0,0.0,0.0,0.0,0.0,0.0,0.0,0.0,0.0,2.0561,0.0,2.2317,2.266,0.0,0.0,0.0,2.1991,2.2111,2.234,2.2908,2.3983,0.0,0.0,2.5438,0.0,2.6306,2.5517,2.4963,2.4911,2.5833,2.5824,2.5857,2.6104,2.6449,2.6583,2.6368,2.6193,2.5903,2.5646,2.5487,2.5554,2.5615,2.5771,2.5861,2.5885,2.6283,2.6608,2.662,2.6716,2.687,2.6258,2.6198,2.6283,2.6427,2.6512,2.6536,2.0391,2.004,1.8426,1.7932,1.8281,1.9409,1.946,1.8818,1.9761,1.9672,1.8691,1.8568,1.883,1.9335,1.9942,2.0632,2.1391,2.2124,2.2897,2.3716,2.3788,2.4033,2.4306,2.4224,2.422,2.4267,2.4126,2.3965,2.3896,2.3977,2.3918,2.3711,2.3761,2.3267,2.2241,2.2483,2.2704,2.288,2.2941,2.2961,2.2927,2.2939,2.2927,2.2901,2.2647,2.2135,2.1374,2.0971,2.0391,1.9609,1.8851,1.8478,1.853,1.7125,0.0,0.0,0.0,0.0,0.0,0.0,0.0,0.0,0.0,1.7032,1.651,0.0,1.9654,0.0,2.1582,2.2268,2.2185,2.2438,0.0,0.0,2.3214,2.3484,2.392,2.4201,2.4469,2.4724,2.5413,2.5738,2.5378,2.5568,2.5518,2.5063,2.5634,2.6218,2.6495,2.6221,2.6029,2.6109,2.605,2.6025,2.6031,2.6122,2.6209,2.6315,2.6307,2.6379,2.6572,2.6656,2.6692,2.6704,2.6789,2.6885,2.6897,2.6945,2.6945,2.6825,2.6789,2.674,2.6632,2.6753,2.6825,2.2246,2.2353,2.0385,1.9771,2.0137,2.0041,1.9673,1.9282,2.022,2.019,1.9416,1.9594,1.9993,2.0575,2.1329,2.2088,2.2797,2.3378,2.3927,2.4366,2.4366,2.4511,2.4764,2.4776,2.4836,2.4933,2.4824,2.4704,2.4559,2.4571,2.4477,2.4335,2.4482,2.4212,2.3567,2.3466,2.3403,2.3467,2.329,2.316,2.3109,2.3121,2.299,2.2789,2.2221,2.1679,2.1085,2.0121,1.9346,1.8767,1.8115,1.7751,1.7668,1.7385,1.7321,0.0,0.0,0.0,0.0,0.0,0.0,0.0,0.0,0.0,0.0,0.0,2.057,2.1234,2.2163,2.2795,2.2867,2.3254,2.3502,2.3453,2.3671,2.3915,2.4099,2.4246,2.4478,2.4833,2.5237,2.5495,2.5381,2.5442,2.5497,2.5468,2.6,2.6226,2.5924,2.5846,2.5846,2.5739,2.571,2.5745,2.5807,2.6267,2.6571,2.6759,2.6989,2.7174,2.7307,2.7377,2.7377,2.7377,2.7331,2.7377,2.7331,2.7147,2.7021,2.6975,2.6825,2.6741,2.6759,2.6873,2.6933,2.3853,2.4617,2.2485,2.1892,2.2272,2.0501,1.9758,1.9852,2.0409,2.0591,2.0611,2.1249,2.1811,2.2316,2.3081,2.3709,2.4204,2.4586,2.4794,2.4788,2.4752,2.4873,2.5102,2.5065,2.5174,2.5379,2.5162,2.5053,2.5041,2.48,2.4709,2.4756,2.4727,2.4775,2.4851,2.4363,2.4023,2.3833,2.3491,2.3284,2.3208,2.315,2.2938,2.2435,2.1534,2.0904,2.0589,1.9276,1.8444,1.8304,1.7761,1.7423,1.7315,1.7925,1.8273,0.0,1.8433,0.0,0.0,0.0,0.0,0.0,0.0,0.0,0.0,2.0869,2.1492,2.198,2.2584,2.3171,2.3714,2.4328,2.4371,2.3651,2.3797,2.3943,2.3774,2.3756,2.406,2.4824,2.505,2.5239,2.5423,2.5514,2.5696,2.5909,2.5818,2.5536,2.5025,2.5354,2.5685,2.5365,2.5525,2.5834,2.5983,2.6457,2.6829,2.6958,2.7203,2.7578,2.7495,2.7554,2.7566,2.7566,2.7495,2.7554,2.7578,2.7192,2.6923,2.69,2.656,2.6457,2.6797,2.6905,2.6972,2.4616,2.4706,2.3553,2.2909,2.2645,2.2613,2.2011,2.1068,2.1879,2.2113,2.1985,2.2657,2.326,2.3721,2.4043,2.4543,2.5239,2.5483,2.5668,2.5904,2.5656,2.5584,2.562,2.5427,2.5343,2.5391,2.5343,2.5318,2.5318,2.527,2.5337,2.5494,2.5494,2.5455,2.5347,0.0,0.0,0.0,2.3927,2.3829,2.3815,2.3504,2.3166,2.28,2.174,0.0,1.9743,1.9346,1.9024,1.8752,1.7496,0.0,0.0,0.0,0.0,0.0,0.0,0.0,0.0,0.0,0.0,0.0,2.1816,2.1301,2.1582,2.2452,2.2791,2.2262,2.3043,2.3423,2.3028,2.3675,2.4009,2.3679,2.4132,2.4684,2.5053,2.5115,2.535,2.5926,2.5681,2.5332,2.5212,2.5175,2.5147,2.5152,2.5047,2.4894,2.4636,2.5461,2.6095,2.6073,2.6026,2.6141,2.6245,2.6349,2.6465,2.6466,2.6513,2.6618,2.6676,2.6676,2.6606,2.6618,2.6595,2.6618,2.6618,2.6513,2.6453,2.6419,2.6383,2.6362,2.6618,2.6686,2.6718,2.556,0.0,2.4902,2.443,0.0,2.4285,2.3675,2.268,2.2954,2.2974,2.286,2.3254,2.3797,2.4463,2.4548,2.5032,2.5854,2.5954,2.6085,2.6162,2.6042,2.6025,2.5969,2.5892,2.5618,2.5282,2.5239,2.511,2.4894,2.4883,2.5024,2.527,2.5239,2.5225,2.5144,2.4879,2.4596,2.419,2.3992,2.3747,2.3444,2.3164,2.2701,2.2048,0.0,0.0,0.0,0.0,0.0,0.0,0.0,0.0,0.0,0.0,0.0,1.8649,1.9171,1.9912,2.0944,2.1101,2.165,2.2934,2.2834,2.2567,2.2263,2.2895,2.3305,2.3103,2.3598,2.382,2.3632,2.3959,2.4129,2.4086,2.4274,2.4552,2.4913,2.4888,2.4976,2.5317,2.5191,2.5058,2.5141,2.5028,2.5021,2.5135,2.5055,2.499,2.5016,2.5297,2.5561,2.5561,2.5683,2.575,2.5808,2.6099,2.6309,2.632,2.65,2.669,2.669,2.669,2.6679,2.6679,2.669,2.669,2.669,2.65,2.632,2.6273,2.6071,2.5981,2.6218,2.6434,2.6641,2.6604,2.708,2.6338,2.6038,2.6079,2.5581,2.4958,2.4173,0.0,0.0,0.0,2.3504,2.4018,2.4821,2.4731,2.5264,2.6174,2.6094,2.6094,2.623,2.6094,2.6026,2.6026,2.5978,2.5583,2.4946,2.4934,2.4672,2.4224,2.418,2.4381,2.4629,2.464,2.4729,2.475,2.4317,2.4067,2.4116,2.3875,2.3485,2.2992,2.2682,2.2088,2.1242,2.0226,1.946,1.8833,1.7665,1.7087,1.7176,1.6892,1.7014,1.763,1.8428,1.9249,2.0228,2.0613,2.1184,2.2096,2.1834,2.1997,2.2706,2.3399,2.3464,2.2785,2.3136,2.3512,2.3909,2.3955,2.4039,2.4273,2.4327,2.4367,2.4401,2.4258,2.4315,2.466,2.4455,2.4523,2.4743,2.4819,2.4844,2.521,2.5066,2.5087,2.5443,2.5421,2.5356,2.5475,2.5264,2.5064,2.5085,2.5274,2.5286,2.5356,2.5705,2.6148,2.6115,2.6454,2.6837,2.6871,2.6882,2.6882,2.6763,2.6882,2.68,2.6777,2.6405,2.6159,2.6148,2.5809,2.5609,2.592,2.6265,2.6561,2.7574,2.7703,2.7563,2.7307,2.6899,2.6398,2.5617,2.4642,2.4002,2.3743,2.3754,2.3924,2.4274,2.4798,2.4552,2.5116,2.6216,2.5645,2.5656,0.0,2.5645,2.5316,2.5305,2.5098,2.4706,2.4185,2.4141,2.392,2.3521,2.3476,2.3675,2.4064,2.4108,2.4341,2.475,2.4477,2.4141,2.3768,2.3612,2.3499,2.34,2.2616,2.1874,2.1271,2.0053,1.8989,1.8246,1.8242,1.8382,1.8662,1.7895,1.8176,1.9702,1.8832,1.874,1.9875,2.0025,2.0541,2.1611,2.1776,2.24,2.3632,2.4158,2.4201,2.3831,2.3929,2.3931,2.3838,2.3849,2.3858,2.3888,2.4072,2.4188,2.4183,2.4323,2.4692,2.5307,2.5163,2.5289,2.5843,2.5619,2.5367,2.5464,2.5443,2.5507,2.5782,2.5701,2.5755,2.5723,2.5593,2.5432,2.5421,2.5443,2.5464,2.5453,2.5534,2.5664,2.5615,2.5712,2.5912,2.6125,2.6146,2.6146,2.6092,2.6108,2.6054,2.5853,2.5664,2.5653,2.5653,2.5566,2.562,2.606,2.6255,2.6375,2.7287,2.7157,2.7028,2.6876,2.6642,2.6079,2.5608,2.5152,2.4602,2.4294,2.4186,2.4118,2.4382,2.4761,2.4662,2.5082,2.5924,2.5582,2.5593,2.5867,2.5582,2.5252,2.4969,2.4868,2.434,2.3501,2.3445,2.3221,2.2816,2.2771,2.2924,2.3231,2.3357,2.3448,2.3603,2.3614,2.3414,2.3142,2.3189,2.3094,2.2833,2.2333,2.1695,2.0945,2.0297,1.9481,1.8416,1.8737,1.8826,1.8611,1.8651,1.9104,1.9988,1.977,1.9945,2.071,2.0679,2.1107,2.2285,2.2823,2.3355,2.4023,2.4167,2.435,2.4402,2.4363,2.4295,2.4164,2.4067,2.4,2.4164,2.4283,2.4355,2.4484,2.471,2.4988,2.5308,2.5538,2.5739,2.5994,2.5978,2.5856,2.5856,2.5856,2.5873,2.5884,2.5776,2.569,2.569,2.5593,2.5518,2.5518,2.5518,2.5518,2.5518,2.5518,2.5518,2.5518,2.5518,2.5561,2.5669,2.5679,2.569,2.5679,2.569,2.5636,2.5518,2.541,2.5399,2.5496,2.541,2.5534,2.5759,2.5858,2.6024,2.6918,2.6791,2.654,2.6343,2.6106,2.5822,2.548,2.5148,2.4809,2.455,2.4311,2.423,2.4334,2.46,2.4555,2.4783,2.5195,2.5012,2.4966,2.5103,2.4966,2.4692,2.4326,2.4326,2.3771,2.2839,2.2783,2.251,2.21,2.2095,2.229,2.2556,2.2867,2.2883,2.2671,2.2782,2.2732,2.2561,2.2668,2.2622,2.2329,2.2064,2.1533,2.08,2.058,1.9987,1.8961,1.9259,1.9194,1.8749,1.9319,1.9751,2.0007,2.0521,2.0981,2.1269,2.1282,2.1724,2.2926,2.3754,2.4215,2.4269,2.4377,2.4581,2.4893,2.485,2.4714,2.4542,2.4344,2.4334,2.4477,2.4552,2.4635,2.4861,2.5055,2.5254,2.5394,2.5707,2.5944,2.5949,2.6067,2.6153,2.6157,2.6093,2.6002,2.5862,2.5701,2.5604,2.5593,2.5561,2.5518,2.5518,2.5518,2.5518,2.5518,2.5518,2.5518,2.5518,2.5518,2.5561,2.5604,2.5615,2.5604,2.5636,2.5626,2.5593,2.5529,2.5399,2.5367,2.5475,2.5356,2.5254,2.5424,2.5443,2.5584,2.7184,2.7281,2.703,2.6468,2.5625,2.5974,2.5383,2.4297,2.4362,2.4173,2.3793,2.4213,2.4323,2.4129,2.3751,2.3786,2.4143,2.3271,2.3179,2.3536,2.3097,2.2867,2.2867,2.2821,2.2534,2.2054,2.2007,2.1833,2.1446,2.1552,2.1894,2.2513,2.3036,2.3115,2.2846,2.2685,2.253,2.2333,2.212,2.216,2.2399,2.189,2.1411,2.119,2.0542,2.0087,1.9743,1.9821,1.9811,1.9749,1.9826,1.9964,2.0163,2.0425,2.0644,2.0872,2.109,2.1706,2.2926,2.3908,2.4538,2.4743,2.512,2.5367,2.5443,2.5615,2.5405,2.4743,2.4646,2.4678,2.4552,2.4714,2.4893,2.5109,2.5195,2.5335,2.5701,2.589,2.5949,2.6185,2.6078,2.5981,2.6157,2.597,2.5744,2.5895,2.5841,2.5825,2.5744,2.5626,2.5518,2.5518,2.5518,2.5469,2.5469,2.5518,2.5518,2.5518,2.5518,2.5534,2.5652,2.5776,2.5819,2.5701,2.5776,2.5701,2.5583,2.5486,2.5464,2.5475,2.5372,2.522,2.5227,2.5224,2.5358,2.6706,2.6441,2.5896,2.5264,2.4692,2.4838,2.4594,2.4038,2.4103,2.3942,2.3665,2.3864,2.3775,2.3386,2.3067,2.3051,2.3179,2.2775,2.2729,2.2903,2.2683,2.2452,2.2222,2.2185,2.2013,2.1665,2.1674,2.1648,2.1574,2.1622,2.1802,2.2087,2.2432,2.2479,2.2304,2.2383,2.2401,2.2197,2.2179,2.2286,2.2392,2.2076,2.1694,2.1257,2.1184,2.0746,1.998,2.0215,2.0224,1.989,2.0112,2.033,2.0537,2.0904,2.1187,2.1395,2.2049,2.2689,2.3317,2.4144,2.4785,2.5168,2.5399,2.5572,2.5712,2.5858,2.5626,2.5216,2.5173,2.5184,2.5098,2.5173,2.527,2.5378,2.5496,2.5717,2.589,2.6002,2.6175,2.639,2.6358,2.6379,2.6501,2.6358,2.6142,2.6089,2.597,2.5869,2.569,2.5572,2.5529,2.5469,2.5227,2.5178,2.5421,2.5518,2.5518,2.5421,2.5227,2.5144,2.5479,2.5365,2.5257,2.5571,2.5631,2.5609,2.5539,2.5399,2.5335,2.5351,2.5416,2.5286,2.5047,2.4949,2.4936,2.6114,2.5584,2.4834,2.4194,2.3815,2.3961,2.3815,2.3609,2.3717,2.3627,2.3283,2.3224,2.3025,2.2718,2.2593,2.2526,2.2426,2.2337,2.2281,2.2231,2.2231,2.2076,2.1791,2.1743,2.1644,2.1536,2.1508,2.165,2.1839,2.1877,2.1905,2.1971,2.2104,2.2075,2.1924,2.2179,2.2208,2.2028,2.2151,2.2227,2.2219,2.2196,2.1942,2.1549,2.1706,2.1344,2.0354,2.0749,2.0758,2.0289,2.0608,2.0885,2.1056,2.1442,2.1735,2.2,2.277,2.3444,2.3781,2.4448,2.503,2.5528,2.5669,2.5787,2.5949,2.6089,2.6056,2.5841,2.5809,2.5787,2.5626,2.5679,2.5744,2.5809,2.597,2.6127,2.6185,2.6336,2.6498,2.6648,2.6595,2.6573,2.6605,2.6433,2.6229,2.6013,2.5862,2.5723,2.5572,2.5518,2.5469,2.5324,2.4935,2.4876,2.5227,2.5081,2.5129,2.5032,2.4692,2.4643,2.5032,2.4692,2.4546,2.4852,2.5005,2.5032,2.4886,2.4847,2.4971,2.5126,2.5169,2.5099,2.4908,2.4807,2.4667,2.5376,2.5043,2.4346,2.3707,2.3277,2.3717,2.3414,2.2632,2.3033,2.2965,2.2535,2.2325,2.2181,2.2173,2.2402,2.2299,2.193,2.175,2.1553,2.1401,2.1336,2.1375,2.148,2.1309,2.1338,2.1461,2.1527,2.1764,2.2066,2.2085,2.2179,2.234,2.2319,2.2283,2.2035,2.2063,2.2028,2.1895,2.1876,2.1867,2.1877,2.2019,2.2077,2.2039,2.1896,2.1697,2.1442,2.1433,2.1433,2.1423,2.1404,2.1508,2.1716,2.1934,2.2141,2.2398,2.307,2.3691,2.4215,2.4669,2.5233,2.5796,2.6017,2.6157,2.6272,2.6533,2.6692,2.6541,2.6476,2.6325,2.5953,2.6017,2.6261,2.6455,2.6519,2.6627,2.6791,2.6737,2.6856,2.6834,2.6735,2.6469,2.6078,2.5955,2.5895,2.5684,2.5534,2.555,2.5529,2.5518,2.5275,2.4935,2.4681,2.4681,2.4692,2.4594,2.4302,2.4205,2.4253,2.4048,2.4048,2.4058,2.4058,2.4107,2.4243,2.4243,2.4146,2.4154,2.4314,2.4449,2.4542,2.4508,2.4662,2.4756,2.4696,2.4856,2.3886,2.36,2.317,2.273,2.2877,2.2739,2.2436,2.2583,2.2593,2.2427,2.2312,2.2208,2.2085,2.2345,2.224,2.1829,2.1735,2.1631,2.1565,2.1565,2.1612,2.166,2.1603,2.1489,2.1409,2.1724,2.2009,2.2245,2.2283,2.2165,2.1965,2.1986,2.1866,2.1533,2.1583,2.175,2.2023,2.1962,2.2035,2.23,2.2321,2.2283,2.2283,2.2217,2.2019,2.1688,2.1792,2.1811,2.1688,2.1678,2.1716,2.1811,2.2104,2.2378,2.2586,2.2943,2.3408,2.3908,2.4158,2.4718,2.5714,2.5898,2.6177,2.6579,2.6791,2.6856,2.678,2.6759,2.6561,2.62,2.6256,2.6552,2.6767,2.677,2.6791,2.6834,2.677,2.6778,2.6845,2.6802,2.6582,2.6187,2.6211,2.6079,2.5557,2.5595,2.5641,2.5453,2.5227,2.4886,2.4633,2.4146,2.3707,2.3756,2.3951,2.4,2.3912,2.3863,2.3805,2.3756,2.3561,2.3522,2.3815,2.3805,2.3815,2.3805,2.3805,2.3929,2.4016,2.41,2.419,2.4466,2.4567,2.4673,2.4206,2.3248,2.3023,2.273,2.2436,2.2387,2.2387,2.2387,2.2387,2.2387,2.2387,2.2387,2.2312,2.2178,2.2135,2.2011,2.175,2.1819,2.1762,2.1544,2.1544,2.1486,2.1389,2.1295,2.1225,2.1099,2.1417,2.1712,2.1888,2.1971,2.1774,2.1375,2.1565,2.1429,2.1113,2.1309,2.1663,2.1936,2.2025,2.2249,2.2536,2.2472,2.2387,2.2387,2.2387,2.2236,2.1905,2.2019,2.2038,2.1915,2.1886,2.1952,2.2104,2.2406,2.2652,2.2812,2.3001,2.3317,2.3832,2.3982,2.4495,2.5501,2.5675,2.5911,2.6313,2.6386,2.6354,2.6301,2.627,2.6065,2.588,2.5908,2.6122,2.6333,2.6375,2.6488,2.658,2.6493,2.6595,2.6794,2.6802,2.6566,2.6136,2.6139,2.5888,2.544,2.5429,2.5307,2.5288,2.488,2.44,2.4205,2.3658,2.3219,2.3072,2.317,2.3268,2.3229,2.3268,2.3316,2.3365,2.3121,2.3131,2.3414,2.3522,2.3522,2.3522,2.3512,2.3561,2.3717,2.3736,2.3791,2.4107,2.4414,2.4571,2.3395,2.3111,2.2642,2.2455,2.2387,2.2387,2.2387,2.2387,2.2338,2.2289,2.2289,2.2338,2.2182,2.2182,2.1799,2.1594,2.1606,2.1809,2.1633,2.1083,2.1056,2.0916,2.0624,2.0531,2.0491,2.0619,2.0553,2.065,2.0924,2.1124,2.1083,2.0887,2.0978,2.0995,2.0794,2.121,2.1577,2.1752,2.2088,2.2336,2.2397,2.2397,2.2387,2.2387,2.2387,2.2302,2.2094,2.2104,2.2113,2.2094,2.2104,2.2293,2.2623,2.2869,2.3011,2.3039,2.3219,2.3578,2.4075,2.4273,2.4557,2.5152,2.5275,2.5317,2.5491,2.5501,2.5379,2.5236,2.5134,2.5012,2.4972,2.5012,2.5124,2.5306,2.5501,2.5656,2.5964,2.6067,2.6272,2.6662,2.6687,2.6363,2.5945,2.5699,2.5513,2.53,2.4885,2.4682,2.4947,2.4517,2.3875,2.3464,2.3287,2.3041,2.2718,2.2446,2.2446,2.2495,2.2583,2.2681,2.273,2.2632,2.2681,2.2877,2.2877,2.2877,2.2925,2.2925,2.2974,2.3072,2.317,2.3414,2.3754,2.4103,2.4473,2.3043,2.2871,2.2663,2.2519,2.2397,2.2387,2.2387,2.2338,2.2044,2.1848,2.1799,2.1465,2.1308,2.1259,2.1121,2.1102,2.1267,2.1353,2.1179,2.0911,2.0836,2.0814,2.0702,2.0619,2.0627,2.0631,2.0345,2.038,2.0727,2.0846,2.0681,2.0376,2.0431,2.0491,2.0481,2.0751,2.1221,2.1954,2.2035,2.2218,2.2546,2.2463,2.2387,2.2387,2.2387,2.2349,2.2302,2.2302,2.2302,2.2302,2.2434,2.2642,2.2897,2.3115,2.3177,2.3257,2.3375,2.354,2.3746,2.3855,2.4151,2.4616,2.4729,2.4935,2.5244,2.5244,2.5214,2.5143,2.5143,2.504,2.4733,2.463,2.4804,2.5234,2.5295,2.5295,2.5501,2.5553,2.581,2.6221,2.6261,2.6178,2.6023,2.5754,2.5417,2.5093,2.4719,2.4577,2.4607,2.4237,2.3869,2.362,2.3361,2.3006,2.2703,2.2519,2.2491,2.2434,2.2387,2.2387,2.2387,2.2387,2.2387,2.2387,2.2387,2.2387,2.2387,2.2436,2.2583,2.2583,2.273,2.3023,2.3414,2.3756,2.4156,2.3011,2.2831,2.2822,2.2597,2.2326,2.2326,2.2178,2.1979,2.1682,2.1533,2.1443,2.1185,2.1036,2.0987,2.0838,2.0807,2.087,2.0728,2.0559,2.0489,2.0611,2.0509,2.031,2.0312,2.038,2.039,2.0099,2.0057,2.0288,2.0356,2.0181,1.9849,1.9933,2.0083,2.0232,2.0525,2.1136,2.1868,2.2057,2.2249,2.2468,2.2463,2.2387,2.2387,2.2387,2.2387,2.2397,2.2463,2.251,2.2557,2.2784,2.3001,2.3134,2.3323,2.3394,2.3423,2.3498,2.3573,2.3583,2.3625,2.3738,2.41,2.4151,2.4316,2.4564,2.4677,2.4677,2.4667,2.4616,2.4522,2.4254,2.4151,2.4358,2.4625,2.4616,2.478,2.4935,2.5192,2.5398,2.5707,2.581,2.5707,2.5512,2.5399,2.5185,2.4798,2.4384,2.4296,2.4226,2.3915,2.3694,2.3473,2.3215,2.295,2.2777,2.2661,2.2605,2.2501,2.2387,2.2387,2.2387,2.2387,2.2387,2.2387,2.2387,2.2387,2.2387,2.2387,2.2485,2.2387,2.2387,2.2632,2.2974,2.3365,2.3756,2.3228,2.3039,2.2979,2.2658,2.2228,2.2177,2.1857,2.148,2.1329,2.1311,2.132,2.1142,2.116,2.1135,2.0679,2.0511,2.0511,2.0156,2.0003,2.0047,2.015,2.0058,1.9627,1.9675,1.9798,1.9871,1.9853,1.9729,1.9691,1.9856,1.9664,1.9544,1.9684,1.9825,2.0303,2.0637,2.1165,2.1765,2.217,2.2366,2.2406,2.2397,2.2387,2.2387,2.2387,2.2387,2.2406,2.2595,2.2737,2.2794,2.3055,2.3294,2.337,2.3479,2.3564,2.3555,2.3573,2.3583,2.3583,2.3583,2.3635,2.3686,2.3686,2.3583,2.3738,2.3841,2.3841,2.379,2.3738,2.3686,2.3686,2.3686,2.3686,2.3635,2.379,2.3996,2.4419,2.4832,2.5089,2.5192,2.5244,2.5141,2.478,2.4709,2.4596,2.4412,2.3968,2.383,2.3884,2.3654,2.3206,2.3096,2.3213,2.3061,2.2907,2.2812,2.2727,2.2482,2.2387,2.2387,2.2387,2.2387,2.2387,2.2387,2.2387,2.2387,2.2387,2.2387,2.2387,2.2387,2.2387,2.2387,2.2632,2.3023,2.3512,2.3385,2.3206,2.2789,2.2452,2.2163,2.181,2.1557,2.1355,2.095,2.0824,2.0756,2.0393,2.0316,2.0249,2.0105,2.0061,2.0168,2.0098,2.0047,2.0038,2.0108,1.9969,1.9737,1.9695,1.9743,1.98,1.9825,1.976,1.9719,1.9827,1.9931,2.0016,2.01,2.0489,2.1098,2.1286,2.1661,2.2093,2.2299,2.2406,2.2406,2.2406,2.2387,2.2387,2.2397,2.2406,2.2434,2.2746,2.302,2.3172,2.3206,2.3357,2.3479,2.3555,2.3583,2.3583,2.3583,2.3583,2.3583,2.3583,2.3583,2.3583,2.3583,2.3583,2.3583,2.3583,2.3583,2.3583,2.3583,2.3583,2.3583,2.3583,2.3583,2.3583,2.3583,2.3686,2.3841,2.3945,2.4203,2.4564,2.4677,2.478,2.4832,2.4677,2.4471,2.4348,2.3948,2.3531,2.3698,2.3689,2.3309,2.3385,2.3455,2.3247,2.3086,2.2992,2.2812,2.2491,2.2387,2.2387,2.2387,2.2387,2.2387,2.2387,2.2387,2.2387,2.2387,2.2387,2.2387,2.2387,2.2387,2.2387,2.2534,2.2877,2.3414,2.3207,2.3054,2.2488,2.2108,2.1754,2.1438,2.1182,2.0875,2.0627,2.0465,2.0422,2.0165,2.0011,2.0011,2.0011,2.0068,2.0166,2.0174,2.0174,2.0174,2.0166,2.0068,1.9938,1.9906,1.9946,2.0011,2.0011,1.9979,1.9973,2.011,2.0308,2.0469,2.0695,2.1077,2.1397,2.151,2.1659,2.1967,2.2156,2.2305,2.2305,2.2553,2.2652,2.2652,2.2652,2.268,2.2812,2.2979,2.3121,2.3177,2.33,2.346,2.3564,2.3583,2.3583,2.3583,2.3583,2.3583,2.3583,2.3583,2.3583,2.3583,2.3583,2.3583,2.3583,2.3583,2.3583,2.3583,2.3583,2.3583,2.3583,2.3583,2.3583,2.3583,2.3583,2.3583,2.3583,2.3635,2.3738,2.3996,2.4151,2.4203,2.4574,2.4306,2.4151,2.4048,2.3832,2.3616,2.3616,2.3583,2.3583,2.3583,2.3536,2.3379,2.3162,2.3039,2.2841,2.2538,2.2387,2.2387,2.2387,2.2387,2.2387,2.2387,2.2387,2.2387,2.2387,2.2387,2.2387,2.2387,2.2387,2.2436,2.2534,2.2632,2.317,2.2703,2.2651,2.2132,2.1665,2.1241,2.1093,2.08,2.0408,2.034,2.0288,2.0288,2.0312,2.0219,2.0268,2.0255,2.0304,2.0304,2.0296,2.0304,2.0304,2.0288,2.0214,2.0109,2.0093,2.015,2.0247,2.026,2.0223,2.022,2.0548,2.0756,2.0875,2.128,2.1465,2.1596,2.1563,2.1489,2.1563,2.188,2.2159,2.2278,2.2571,2.2804,2.3001,2.2945,2.302,2.3111,2.3234,2.3257,2.3058,2.3375,2.3545,2.3583,2.3583,2.3583,2.3583,2.3583,2.3583,2.3583,2.3583,2.3583,2.3583,2.3611,2.3592,2.3602,2.3611,2.3691,2.3583,2.3583,2.3583,2.3583,2.3583,2.3583,2.3583,2.3583,2.3583,2.3583,2.3583,2.3583,2.3583,2.3635,2.3583,2.3583,2.3583,2.3635,2.3841,2.3686,2.3635,2.3583,2.3583,2.3583,2.3583,2.3517,2.3423,2.3266,2.3077,2.2831,2.2576,2.2444,2.2387,2.2387,2.2387,2.2387,2.2387,2.2387,2.2387,2.2387,2.2387,2.2387,2.2387,2.2387,2.2387,2.2436,2.2485,2.2828,2.2184,2.2132,2.1622,2.131,2.1154,2.0737,2.0424,2.032,2.0268,2.0268,2.0268,2.0268,2.0268,2.0268,2.0268,2.0268,2.0268,2.0268,2.0268,2.0268,2.0268,2.0312,2.0263,2.0255,2.0279,2.0268,2.0268,2.0296,2.0315,2.0438,2.0795,2.1404,2.1523,2.1767,2.1947,2.1855,2.181,2.1507,2.1515,2.1917,2.2303,2.2434,2.2738,2.3145,2.3134,2.2998,2.3055,2.3196,2.3253,2.3291,2.3432,2.3583,2.3583,2.3583,2.3583,2.3583,2.3583,2.3583,2.3583,2.3583,2.3583,2.3592,2.3748,2.3824,2.3611,2.3776,2.3776,2.3682,2.3583,2.3583,2.3583,2.3583,2.3583,2.3583,2.3583,2.3583,2.3583,2.3583,2.3583,2.3583,2.3583,2.3583,2.3583,2.3583,2.3583,2.3583,2.3583,2.3583,2.3583,2.3583,2.3583,2.3583,2.3555,2.346,2.3281,2.3124,2.2897,2.268,2.2538,2.2397,2.2397,2.2387,2.2387,2.2387,2.2387,2.2387,2.2387,2.2387,2.2387,2.2387,2.2387,2.2387,2.2387,2.2387,2.2583,2.1622,2.157,2.0997,2.0789,2.0737,2.0424,2.0268,2.0268,2.0268,2.0268,2.0268,2.0268,2.0268,2.0268,2.0268,2.0268,2.0268,2.0268,2.0268,2.0268,2.0268,2.0268,2.0268,2.0268,2.0268,2.0268,2.0268,2.0268,2.032,2.0572,2.0999,2.1432,2.1673,2.1741,2.1738,2.1711,2.1379,2.1071,2.1217,2.1628,2.2152,2.2558,2.2927,2.3465,2.3427,2.3253,2.3281,2.3366,2.3413,2.3451,2.3526,2.3583,2.3583,2.3583,2.3583,2.3583,2.3583,2.3583,2.3583,2.3583,2.3583,2.3592,2.3757,2.3729,2.3621,2.3748,2.3748,2.3611,2.3583,2.3583,2.3583,2.3583,2.3583,2.3583,2.3583,2.3583,2.3583,2.3583,2.3583,2.3583,2.3583,2.3583,2.3583,2.3583,2.3583,2.3583,2.3583,2.3583,2.3583,2.3583,2.3583,2.3583,2.3583,2.3498,2.3319,2.313,2.2983,2.2794,2.2642,2.2501,2.2416,2.2397,2.2387,2.2387,2.2387,2.2387,2.2387,2.2387,2.2387,2.2387,2.2387,2.2387,2.2387,2.2387,2.2632,2.1049,2.0997,2.0529,2.0268,2.0268,2.032,2.0268,2.0268,2.0268,2.0268,2.0268,2.0268,2.0268,2.0268,2.0268,2.0328,2.0361,2.0328,2.0328,2.0393,2.0336,2.0328,2.0268,2.0268,2.0268,2.0268,2.0268,2.0268,2.0424,2.0789,2.0989,2.1241,2.1613,2.1622,2.1284,2.1197,2.1033,2.0633,2.1058,2.1621,2.2178,2.2755,2.3296,2.3682,2.3682,2.3616,2.3635,2.3682,2.3701,2.3729,2.3701,2.3682,2.3682,2.3592,2.3611,2.3621,2.3658,2.372,2.372,2.371,2.371,2.3668,2.371,2.3701,2.3701,2.372,2.3649,2.3611,2.3583,2.3583,2.3583,2.3583,2.3583,2.3583,2.3583,2.3583,2.3583,2.3583,2.3583,2.3583,2.3583,2.3583,2.3583,2.3583,2.3583,2.3583,2.3583,2.3583,2.3583,2.3583,2.3583,2.3583,2.3583,2.3583,2.3423,2.3262,2.3055,2.2973,2.2803,2.2661,2.2529,2.2519,2.251,2.2406,2.2387,2.2387,2.2387,2.2387,2.2387,2.2387,2.2387,2.2387,2.2387,2.2387,2.2681,2.0476,2.0476,2.0372,2.0268,2.0268,2.0268,2.0268,2.0268,2.0268,2.0268,2.0268,2.0268,2.0268,2.0268,2.0268,2.0393,2.045,2.0385,2.0385,2.0458,2.0393,2.0268,2.0268,2.0268,2.0268,2.0268,2.0268,2.0268,2.032,2.0424,2.0737,2.1101,2.1275,2.1223,2.1223,2.117,2.101,2.0742,2.1127,2.1705,2.2469,2.2961,2.3422,2.3771,2.3748,2.3776,2.388,2.397,2.4037,2.4179,2.4046,2.397,2.3923,2.3748,2.3739,2.3814,2.389,2.3899,2.3871,2.3951,2.4046,2.4069,2.4027,2.3942,2.388,2.3871,2.3767,2.3621,2.3583,2.3583,2.3583,2.3583,2.3583,2.3583,2.3583,2.3583,2.3583,2.3583,2.3583,2.3583,2.3583,2.3583,2.3583,2.3583,2.3583,2.3583,2.3583,2.3583,2.3583,2.3583,2.3583,2.3583,2.3583,2.3583,2.3545,2.3385,2.3215,2.3181,2.3039,2.2888,2.2775,2.2718,2.2652,2.2472,2.2387,2.2387,2.2387,2.2387,2.2387,2.2387,2.2387,2.2387,2.2387,2.2387,2.2387,2.0059,2.0268,2.0268,2.0268,2.0268,2.0268,2.0268,2.0268,2.0268,2.0268,2.0268,2.0268,2.0268,2.0268,2.0268,2.0377,2.0409,2.0377,2.0377,2.0418,2.0361,2.0268,2.0268,2.0268,2.0268,2.0268,2.0268,2.0268,2.0268,2.032,2.0485,2.0658,2.082,2.0886,2.0911,2.0994,2.1105,2.1143,2.1266,2.1831,2.292,2.3467,2.3825,2.4002,2.4003,2.4022,2.4131,2.4169,2.4207,2.4245,2.4122,2.4094,2.4075,2.3999,2.3805,2.3852,2.4003,2.4122,2.4127,2.4251,2.4495,2.4175,2.4275,2.417,2.3937,2.3767,2.3748,2.3672,2.3583,2.3583,2.3583,2.3583,2.3583,2.3583,2.3583,2.3583,2.3583,2.3583,2.3583,2.3583,2.3583,2.3583,2.3583,2.3583,2.3583,2.3583,2.3583,2.3583,2.3583,2.3583,2.3583,2.3583,2.3583,2.3583,2.3583,2.3489,2.3328,2.3243,2.3209,2.3058,2.2869,2.2737,2.2595,2.2425,2.2387,2.2387,2.2387,2.2387,2.2387,2.2387,2.2387,2.2387,2.2387,2.2387,2.2387,1.9911,2.0268,2.0268,2.0268,2.0268,2.0268,2.0268,2.0268,2.0268,2.0268,2.0268,2.0268,2.0268,2.0268,2.0328,2.0344,2.0361,2.0353,2.0353,2.0393,2.0344,2.0268,2.0268,2.0268,2.0268,2.0268,2.0268,2.0268,2.0336,2.0377,2.0385,2.0494,2.0616,2.0653,2.073,2.0902,2.1222,2.1494,2.1602,2.219,2.3419,2.4083,2.4387,2.4495,2.4406,2.4268,2.4378,2.4387,2.4372,2.4406,2.4311,2.4173,2.4268,2.4226,2.3984,2.3861,2.4126,2.4245,2.451,2.476,2.489,2.4658,2.4681,2.4379,2.397,2.3767,2.3592,2.3583,2.3583,2.3583,2.3583,2.3583,2.3583,2.3583,2.3583,2.3583,2.3583,2.3583,2.3583,2.3583,2.3583,2.3583,2.3583,2.3583,2.3583,2.3583,2.3583,2.3583,2.3583,2.3583,2.3583,2.3583,2.3583,2.3583,2.3583,2.3583,2.3423,2.3281,2.3238,2.3115,2.2888,2.2671,2.2548,2.2463,2.2397,2.2387,2.2387,2.2387,2.2387,2.2387,2.2387,2.2387,2.2387,2.2387,2.2387,2.0216,2.0268,2.0268,2.0268,2.0268,2.0268,2.0268,2.0268,2.0268,2.0268,2.0268,2.0268,2.0268,2.0268,2.0268,2.0409,2.0458,2.0393,2.0385,2.0458,2.0377,2.0268,2.0268,2.0268,2.0344,2.0353,2.0344,2.0268,2.0385,2.0507,2.0556,2.0596,2.0726,2.0877,2.0832,2.0958,2.126,2.1923,2.2443,2.3197,2.4084,2.4284,2.4343,2.4387,2.4397,2.4381,2.4577,2.4551,2.4598,2.4731,2.4589,2.4523,2.4542,2.4532,2.4391,2.4324,2.4444,2.4747,2.502,2.5263,2.5322,2.5147,2.5063,2.4634,2.4156,2.3776,2.3583,2.3583,2.3583,2.3583,2.3583,2.3583,2.3583,2.3583,2.3583,2.3583,2.3583,2.3583,2.3583,2.3583,2.3583,2.3583,2.3583,2.3583,2.3583,2.3583,2.3583,2.3573,2.3583,2.3583,2.3583,2.3583,2.3512,2.3512,2.3283,2.3301,2.325,2.316,2.3029,2.2995,2.2888,2.2671,2.2652,2.2567,2.2472,2.2397,2.2387,2.2387,2.2387,2.2387,2.2387,2.2387,2.2387,2.2387,2.2387,2.0268,2.0268,2.0268,2.0268,2.0268,2.0268,2.0268,2.0268,2.0268,2.0268,2.0268,2.0268,2.0268,2.0268,2.0268,2.0308,2.0409,2.0361,2.0361,2.0434,2.0361,2.0268,2.0268,2.0276,2.0353,2.0442,2.0491,2.0564,2.0588,2.0596,2.0637,2.0767,2.0913,2.101,2.1019,2.1108,2.1778,2.2615,2.3448,2.3882,2.3964,2.4287,2.4608,2.4608,2.4598,2.4655,2.4712,2.4759,2.4787,2.4844,2.4693,2.4589,2.458,2.458,2.4523,2.4485,2.4636,2.4801,2.4931,2.535,2.5443,2.5238,2.4938,2.4667,2.4094,2.3776,2.3592,2.3583,2.3583,2.3583,2.3583,2.3583,2.3583,2.3583,2.3583,2.3583,2.3583,2.3583,2.3583,2.3583,2.3583,2.3583,2.3583,2.3583,2.3564,2.3536,2.3484,2.3433,2.3503,2.3583,2.3583,2.3583,2.3512,2.3433,2.3072,2.2863,2.2784,2.2646,2.2461,2.2469,2.2713,2.2699,2.2574,2.2508,2.2434,2.2387,2.2387,2.2387,2.2387,2.2387,2.2387,2.2436,2.2485,2.2436,2.2436,2.0268,2.0268,2.0268,2.0268,2.0268,2.0268,2.0268,2.0268,2.0268,2.0268,2.0268,2.0268,2.0268,2.0268,2.0268,2.0276,2.0276,2.0268,2.0268,2.0268,2.0268,2.0268,2.0268,2.0336,2.0385,2.0539,2.0556,2.0653,2.0812,2.0807,2.0832,2.0929,2.11,2.1181,2.1222,2.1333,2.1844,2.2719,2.3656,2.3765,2.3492,2.3937,2.4364,2.4591,2.4664,2.4773,2.4882,2.4873,2.4873,2.4844,2.4769,2.4693,2.4684,2.4693,2.4684,2.4674,2.4797,2.4861,2.503,2.5266,2.5383,2.514,2.4768,2.4562,2.3937,2.372,2.3663,2.3592,2.3583,2.3583,2.3583,2.3583,2.3583,2.3583,2.3583,2.3583,2.3583,2.3583,2.3583,2.3583,2.3583,2.3583,2.3583,2.3583,2.3555,2.3507,2.3446,2.3334,2.3264,2.3254,2.3063,2.2965,2.3049,2.297,2.2752,2.2456,2.2346,2.2136,2.1954,2.2084,2.2425,2.2409,2.2226,2.2268,2.2387,2.2387,2.2387,2.2387,2.2387,2.2387,2.2436,2.2534,2.2583,2.2534,2.2485,2.0268,2.0268,2.032,2.0268,2.0268,2.0268,2.0268,2.0268,2.0268,2.0268,2.0268,2.0268,2.0268,2.0268,2.0268,2.0268,2.0268,2.0268,2.0268,2.0268,2.0276,2.0353,2.0369,2.0377,2.0393,2.0458,2.0604,2.0759,2.0926,2.1043,2.1067,2.1124,2.1246,2.1327,2.1406,2.1524,2.1713,2.2425,2.3128,2.3355,2.3137,2.3346,2.3565,2.401,2.4119,2.4283,2.4828,2.4828,2.4882,2.4882,2.4844,2.4924,2.4969,2.487,2.4861,2.5097,2.5062,2.5017,2.517,2.5343,2.5624,2.5511,2.5077,2.4513,2.4046,2.3999,2.3852,2.3677,2.3757,2.3649,2.3621,2.3583,2.363,2.3583,2.3583,2.3583,2.3583,2.3583,2.3583,2.3583,2.3583,2.3583,2.3738,2.3738,2.3531,2.3474,2.3147,2.3026,2.2595,2.2465,2.2216,2.212,2.2365,2.2397,2.236,2.2177,2.2022,2.1772,2.1479,2.1816,2.2226,2.2103,2.1946,2.224,2.2387,2.2387,2.2387,2.2387,2.2387,2.2387,2.2436,2.2583,2.2788,2.2877,2.2779,2.0255,2.0174,2.0279,2.0268,2.0268,2.0268,2.0268,2.0268,2.0268,2.0268,2.0268,2.0268,2.0268,2.0268,2.0268,2.0268,2.0268,2.0268,2.0268,2.0369,2.0409,2.0474,2.0515,2.0588,2.071,2.0783,2.0889,2.101,2.1189,2.1238,2.127,2.1319,2.1352,2.1368,2.1439,2.1658,2.1823,2.1932,2.2535,2.2973,2.2699,2.2973,2.3182,2.341,2.3455,2.3728,2.4228,2.4328,2.4555,2.4828,2.4882,2.51,2.5263,2.51,2.5208,2.5643,2.5535,2.5372,2.5327,2.5372,2.5161,2.5027,2.4769,2.4466,2.4236,2.4198,2.4169,2.405,2.3984,2.3909,2.3842,2.3833,2.3814,2.3639,2.3583,2.3583,2.3583,2.3583,2.3583,2.3583,2.3583,2.3583,2.379,2.3945,2.3656,2.3431,2.3034,2.2669,2.2278,2.2006,2.1846,2.1718,2.197,2.1789,2.1702,2.1681,2.1709,2.1411,2.1065,2.1438,2.1817,2.1857,2.1799,2.2142,2.2387,2.2387,2.2387,2.2387,2.2387,2.2387,2.2485,2.2642,2.2886,2.3219,2.317,2.0125,2.0136,2.019,2.0279,2.0312,2.0268,2.0268,2.0268,2.0268,2.0268,2.0268,2.0268,2.0268,2.0268,2.0268,2.0268,2.0268,2.0268,2.0268,2.0361,2.0426,2.0539,2.0621,2.0702,2.0791,2.1019,2.1124,2.1189,2.1246,2.1352,2.1368,2.1368,2.1384,2.1384,2.1494,2.1713,2.1823,2.1768,2.2042,2.259,2.2316,2.2644,2.3182,2.3355,2.3464,2.3792,2.4228,2.4446,2.4555,2.4773,2.4991,2.5263,2.5372,2.5426,2.5535,2.5816,2.5925,2.5653,2.5599,2.5253,2.487,2.4848,2.4766,2.458,2.4428,2.4406,2.4378,2.4273,2.4245,2.4169,2.4018,2.3871,2.3786,2.3592,2.3583,2.3583,2.3583,2.3583,2.3583,2.3583,2.3583,2.3677,2.4103,2.4299,2.3997,2.3638,2.3181,2.2682,2.2048,2.1896,2.1923,2.1786,2.175,2.1442,2.1086,2.1148,2.1217,2.1016,2.0838,2.0968,2.1219,2.1357,2.175,2.2191,2.2387,2.2387,2.2387,2.2387,2.2387,2.2387,2.2583,2.2877,2.3277,2.3619,2.3658,1.9906,2.0112,2.0128,2.0174,2.0304,2.032,2.0268,2.0268,2.0268,2.0268,2.0268,2.0268,2.0268,2.0268,2.0268,2.0268,2.0268,2.0268,2.0268,2.0284,2.0401,2.0466,2.0588,2.0702,2.0864,2.0905,2.1059,2.1189,2.1181,2.1319,2.1376,2.1439,2.1494,2.1494,2.1439,2.1384,2.1384,2.1439,2.1603,2.1932,2.2316,2.2535,2.3027,2.3464,2.3683,2.3901,2.4337,2.4501,2.4664,2.4828,2.4882,2.5208,2.5653,2.5208,2.5327,2.587,2.5372,2.5317,2.5707,2.5208,2.5026,2.5007,2.5023,2.4903,2.4671,2.4614,2.4495,2.4425,2.4255,2.4112,2.3918,2.3805,2.3729,2.3592,2.3583,2.3583,2.3583,2.3583,2.3583,2.3583,2.3635,2.3832,2.4341,2.459,2.4307,2.3915,2.3387,2.2755,2.2181,2.1923,2.2028,2.1771,2.1625,2.121,2.0887,2.0803,2.073,2.0597,2.0579,2.0727,2.0973,2.1219,2.1652,2.224,2.2534,2.2632,2.2534,2.2387,2.2534,2.2779,2.3023,2.3316,2.3707,2.401,2.4097,1.9752,1.9727,2.0014,2.0101,2.0166,2.0271,2.0268,2.0268,2.0268,2.0268,2.0268,2.0268,2.0268,2.0268,2.0268,2.0268,2.0268,2.0268,2.0268,2.0336,2.0418,2.0612,2.0734,2.0856,2.101,2.1173,2.1278,2.1287,2.1311,2.136,2.1376,2.1439,2.1768,2.1713,2.1494,2.1439,2.1549,2.1932,2.2097,2.2261,2.2754,2.2863,2.3027,2.351,2.3565,2.3846,2.4392,2.4446,2.461,2.4828,2.4882,2.5208,2.5599,2.5218,2.5381,2.5925,2.5762,2.5599,2.5762,2.5544,2.5535,2.549,2.5426,2.5397,2.5383,2.4995,2.4773,2.4513,2.4362,2.4264,2.4056,2.3928,2.3833,2.3621,2.3583,2.3583,2.3583,2.3583,2.3583,2.3583,2.3635,2.4203,2.4741,2.5173,2.499,2.4798,2.4333,2.3589,2.2944,2.242,2.222,2.1783,2.1425,2.1077,2.0763,2.0592,2.0332,2.0083,2.0189,2.0382,2.0678,2.104,2.1612,2.2142,2.2534,2.2837,2.273,2.2681,2.2974,2.3219,2.3609,2.3951,2.4292,2.4546,2.4692,1.9573,1.9549,1.9841,2.0063,2.0085,2.0247,2.0268,2.0268,2.0268,2.0268,2.0268,2.0268,2.0268,2.0268,2.0268,2.0268,2.0268,2.0268,2.0268,2.0336,2.0434,2.0621,2.0815,2.0994,2.1108,2.1311,2.1384,2.1376,2.1368,2.1376,2.1549,2.1823,2.2261,2.2316,2.2152,2.2143,2.2206,2.2535,2.2644,2.2863,2.3237,2.3455,2.3565,2.3792,2.3901,2.401,2.4228,2.4392,2.4501,2.4773,2.4991,2.5208,2.5436,2.5436,2.5436,2.587,2.6033,2.5707,2.549,2.6033,2.5925,2.5762,2.5816,2.5707,2.5599,2.5298,2.5033,2.481,2.4633,2.4353,2.416,2.4084,2.3824,2.3602,2.3583,2.3583,2.3611,2.3611,2.3592,2.3592,2.3738,2.4367,2.5089,2.5553,2.5769,2.5563,2.5359,2.4566,2.3758,2.3192,2.2602,2.2036,2.1395,2.0901,2.057,2.0233,1.9948,1.9664,1.9842,2.0197,2.0443,2.0815,2.1461,2.2054,2.2397,2.269,2.2877,2.3023,2.3512,2.3951,2.4389,2.4692,2.4935,2.4984,2.4984,1.937,1.9532,1.9719,1.9957,2.0068,2.0239,2.0268,2.0268,2.0268,2.0268,2.0268,2.0268,2.0268,2.0268,2.0268,2.0268,2.0268,2.0268,2.0268,2.0284,2.0401,2.0604,2.0828,2.0967,2.1132,2.1295,2.1384,2.1384,2.1384,2.1549,2.1823,2.2316,2.2854,2.2973,2.3018,2.3137,2.3137,2.3191,2.3191,2.3464,2.3892,2.401,2.4228,2.4446,2.461,2.461,2.4773,2.4773,2.4828,2.4882,2.4936,2.5263,2.5372,2.5208,2.5372,2.5589,2.5707,2.549,2.5263,2.587,2.5979,2.5707,2.5762,2.5426,2.5317,2.5372,2.5106,2.482,2.4561,2.4391,2.4211,2.3965,2.3729,2.3672,2.3592,2.3663,2.3701,2.3701,2.3672,2.3663,2.3747,2.4264,2.5192,2.5759,2.618,2.6292,2.6055,2.5789,2.4991,2.4038,2.3376,2.2491,2.1749,2.0857,2.0457,2.0255,1.9994,1.98,1.9848,2.0117,2.0366,2.0803,2.1493,2.2088,2.2317,2.269,2.3326,2.3853,2.4302,2.4692,2.482,2.5053,2.5161,2.5032,2.5081,1.9467,1.9549,1.9849,1.9998,1.9922,2.019,2.0268,2.0268,2.0268,2.0268,2.0268,2.0268,2.0268,2.0268,2.0268,2.0268,2.0268,2.0268,2.0268,2.0353,2.0434,2.0645,2.0824,2.1032,2.1181,2.1311,2.1384,2.1494,2.1549,2.1768,2.2362,2.2854,2.3455,2.3683,2.3901,2.4174,2.401,2.3837,2.3737,2.4065,2.4446,2.4555,2.4773,2.4828,2.4882,2.4882,2.4882,2.4882,2.4882,2.4882,2.4882,2.5045,2.5045,2.4991,2.51,2.5154,2.5436,2.5599,2.5154,2.5599,2.5816,2.549,2.5544,2.5762,2.5544,2.5308,2.5106,2.482,2.458,2.4419,2.4211,2.3965,2.3824,2.3795,2.3767,2.3748,2.3776,2.3748,2.372,2.3927,2.4012,2.4522,2.5398,2.5913,2.6334,2.6642,2.6745,2.654,2.5964,2.4935,2.3945,2.3047,2.1941,2.0975,2.0683,2.0445,2.0233,2.0014,2.002,2.0158,2.0569,2.1053,2.1687,2.2339,2.3031,2.3591,2.4205,2.4594,2.474,2.4765,2.4904,2.5225,2.5399,2.5333,2.5252,1.9475,1.9475,1.9941,2.0036,2.0044,2.0231,2.0268,2.0268,2.0268,2.0268,2.0268,2.0268,2.0268,2.0268,2.0268,2.0268,2.0268,2.0268,2.0268,2.0361,2.0531,2.0677,2.0864,2.1043,2.1213,2.1382,2.1603,2.1823,2.1987,2.259,2.3246,2.3455,2.4056,2.4283,2.4446,2.461,2.461,2.4446,2.4392,2.461,2.4773,2.4882,2.4882,2.4882,2.4882,2.4882,2.4882,2.4882,2.4882,2.4882,2.4882,2.4882,2.4936,2.4882,2.4882,2.4991,2.5164,2.5218,2.4991,2.5154,2.5154,2.51,2.5218,2.5327,2.5436,2.5317,2.5097,2.4848,2.4671,2.4466,2.423,2.4013,2.3984,2.3956,2.3899,2.3842,2.3824,2.3805,2.3951,2.4202,2.4568,2.5058,2.5604,2.6077,2.6488,2.6745,2.6847,2.6796,2.6118,2.5141,2.4254,2.3315,2.2132,2.1068,2.0835,2.0646,2.0389,2.0161,2.0149,2.0357,2.0782,2.1489,2.2309,2.3154,2.3997,2.4479,2.4858,2.4831,2.4956,2.5072,2.5247,2.5525,2.5753,2.5818,2.5753,1.9451,1.9411,1.9857,2.0158,2.0304,2.032,2.0268,2.0268,2.0268,2.0268,2.0268,2.0268,2.0268,2.0268,2.0268,2.0268,2.0344,2.0361,2.0393,2.0369,2.0629,2.0799,2.0929,2.1067,2.1254,2.1571,2.1932,2.2261,2.2699,2.3246,2.3792,2.411,2.4555,2.4773,2.4773,2.4828,2.4828,2.4773,2.4719,2.4828,2.4828,2.4882,2.4882,2.4882,2.4882,2.4882,2.4882,2.4882,2.4882,2.4882,2.4882,2.4882,2.4882,2.4882,2.4882,2.4936,2.4991,2.4991,2.4936,2.4991,2.4991,2.4936,2.4936,2.4991,2.51,2.5272,2.5062,2.4924,2.4712,2.4513,2.433,2.4264,2.4183,2.4141,2.4013,2.4117,2.4249,2.415,2.4061,2.4387,2.4788,2.5295,2.581,2.6334,2.6642,2.6847,2.6899,2.6899,2.6386,2.5398,2.4574,2.3686,2.2444,2.1362,2.0885,2.0652,2.0512,2.0335,2.0392,2.0668,2.1191,2.2031,2.2989,2.3927,2.4803,2.502,2.5303,2.5307,2.5433,2.5627,2.5833,2.5996,2.611,2.6185,2.6121,1.9703,1.9737,2.0006,2.0166,2.0312,2.0268,2.0268,2.0268,2.0268,2.0268,2.0268,2.0268,2.0268,2.0268,2.0268,2.0276,2.0361,2.045,2.0515,2.0629,2.0815,2.0937,2.1075,2.1205,2.1327,2.1579,2.2042,2.2854,2.3464,2.3947,2.4283,2.461,2.4882,2.4882,2.4882,2.4882,2.4882,2.4882,2.4882,2.4882,2.4882,2.4882,2.4882,2.4936,2.4936,2.4991,2.4991,2.4991,2.4936,2.4882,2.4882,2.4882,2.4882,2.4882,2.4882,2.4882,2.4882,2.4882,2.4882,2.4882,2.4882,2.4882,2.4882,2.4882,2.4936,2.5055,2.5045,2.4917,2.4778,2.4614,2.4463,2.4444,2.4353,2.4292,2.4232,2.4434,2.469,2.4475,2.428,2.4647,2.5026,2.5501,2.6067,2.6426,2.6745,2.6899,2.6899,2.6796,2.654,2.581,2.5089,2.41,2.2755,2.1778,2.1258,2.0997,2.0945,2.0893,2.0965,2.1268,2.1751,2.2989,2.4294,2.489,2.5577,2.5705,2.5794,2.5933,2.6082,2.6153,2.6218,2.6293,2.639,2.6476,2.6379,1.9743,1.9703,1.9955,2.0166,2.0304,2.0268,2.0268,2.0268,2.0268,2.0268,2.0268,2.0268,2.0268,2.0268,2.0268,2.0393,2.0442,2.0539,2.0637,2.0783,2.0962,2.1013,2.1197,2.1303,2.1625,2.1878,2.2699,2.3574,2.4174,2.4446,2.4664,2.4882,2.4882,2.4882,2.4882,2.4882,2.4882,2.4882,2.4882,2.4882,2.4882,2.4882,2.4882,2.4936,2.51,2.5208,2.5426,2.5426,2.548,2.5263,2.51,2.4936,2.4882,2.4882,2.4882,2.4882,2.4882,2.4882,2.4882,2.4882,2.4882,2.4882,2.4882,2.4882,2.4882,2.4991,2.4991,2.4873,2.4873,2.4747,2.4595,2.4548,2.4485,2.4472,2.4596,2.4813,2.4802,2.4562,2.4724,2.5132,2.5469,2.5707,2.617,2.6642,2.6899,2.6899,2.6899,2.6899,2.6591,2.6283,2.5553,2.478,2.3531,2.2599,2.2132,2.1821,2.1613,2.1561,2.1613,2.2529,2.3381,2.4498,2.5562,2.5894,2.6142,2.6239,2.6329,2.6408,2.6369,2.6369,2.6455,2.6552,2.6648,2.6713,2.6721,1.976,1.9678,1.9971,2.0182,2.0312,2.0268,2.0268,2.0268,2.0268,2.0268,2.0268,2.0268,2.0276,2.03,2.0276,2.0474,2.0588,2.0653,2.0796,2.0905,2.1083,2.1181,2.1246,2.1311,2.1688,2.2316,2.3137,2.3846,2.4555,2.4719,2.4773,2.4882,2.4882,2.4882,2.4882,2.4882,2.4882,2.4882,2.4882,2.4882,2.4882,2.4936,2.4991,2.5218,2.549,2.5816,2.6033,2.6196,2.625,2.5925,2.5381,2.51,2.4936,2.4882,2.4882,2.4882,2.4882,2.4882,2.4882,2.4882,2.4882,2.4882,2.4882,2.4882,2.4882,2.4882,2.4882,2.4882,2.4882,2.487,2.4719,2.4617,2.4617,2.4678,2.4909,2.5092,2.4933,2.4745,2.5088,2.5484,2.5716,2.5933,2.6386,2.6796,2.6899,2.6899,2.6899,2.6899,2.6796,2.654,2.6016,2.5501,2.4667,2.3841,2.3065,2.2858,2.2651,2.2599,2.2858,2.3945,2.4915,2.5645,2.6188,2.6557,2.6716,2.6659,2.6685,2.6703,2.6663,2.6656,2.6913,2.704,2.6737,2.6864,2.7133,2.0076,2.0174,2.0247,2.0296,2.032,2.0268,2.0268,2.0268,2.0268,2.0268,2.0268,2.0336,2.0385,2.0531,2.0369,2.0474,2.0787,2.0775,2.0913,2.1083,2.1222,2.1295,2.1382,2.1508,2.1814,2.2371,2.3027,2.3574,2.4119,2.4555,2.4882,2.4828,2.4828,2.4882,2.4882,2.4882,2.4882,2.4882,2.4882,2.4882,2.4936,2.4991,2.5263,2.549,2.5707,2.6088,2.6359,2.6522,2.6522,2.6305,2.587,2.5426,2.51,2.4936,2.4882,2.4882,2.4882,2.4882,2.4882,2.4882,2.4882,2.4882,2.4882,2.4882,2.4882,2.4882,2.4882,2.4936,2.4917,2.4851,2.4756,2.4823,2.4832,2.4826,2.4971,2.5186,2.5234,2.5101,2.5157,2.5528,2.5851,2.6191,2.6642,2.6899,2.6899,2.6899,2.6899,2.6899,2.6899,2.6694,2.6437,2.6067,2.5604,2.4719,2.379,2.3996,2.3893,2.379,2.3996,2.4873,2.5656,2.6283,2.6785,2.6877,2.6888,2.6823,2.6912,2.6992,2.7076,2.7119,2.7425,2.752,2.7166,2.7015,2.7296]},{"header":{"parameterUnit":"m.s-1","parameterCategory":1,"la1":31.0,"la2":29.5877,"lo1":-88.7671,"lo2":-86.6584,"dy":0.0162,"dx":0.0185,"nx":115,"ny":88,"refTime":"2023-10-01T06:00:00:Z","depth":0,"parameterNumber":3,"parameterNumberName":"V-component_of_WINDS"},"data":[0.0,0.0,0.0,0.0,0.0,0.0,0.0,0.0,0.0,0.0,0.0,0.0,0.0,0.0,0.0,0.0,0.0,0.0,0.0,0.0,0.0,0.0,0.0,0.0,0.0,0.0,0.0,0.0,0.0,0.0,0.0,0.0,0.0,0.0,0.0,0.0,0.0,0.0,0.0,0.0,0.0,0.0,0.0,0.0,0.0,0.0,0.0,0.0,0.0,0.0,0.0,0.0,0.0,0.0,0.0,0.0,0.0,0.0,0.0,0.0,0.0,0.0,0.0,0.0,0.0,0.0,0.0,0.0,0.0,0.0,0.0,0.0,0.0,0.0,0.0,0.0,0.0,0.0,0.0,0.0,0.0,0.0,0.0,0.0,0.0,0.0,0.0,0.0,0.0,0.0,0.0,0.0,0.0,0.0,0.0,0.0,0.0,0.0,0.0,0.0,0.0,0.0,0.0,0.0,0.0,0.0,0.0,0.0,0.0,0.0,0.0,0.0,0.0,0.0,0.0,0.0,0.0,0.0,0.0,0.0,0.0,0.0,0.0,0.0,0.0,0.0,0.0,0.0,0.0,0.0,0.0,0.0,0.0,0.0,0.0,0.0,0.0,0.0,0.0,0.0,0.0,0.0,0.0,0.0,0.0,0.0,0.0,0.0,0.0,0.0,0.0,0.0,0.0,0.0,0.0,0.0,0.0,0.0,0.0,0.0,0.0,0.0,0.0,0.0,0.0,0.0,0.0,0.0,0.0,0.0,0.0,0.0,0.0,0.0,0.0,0.0,0.0,0.0,0.0,0.0,0.0,0.0,0.0,0.0,0.0,0.0,0.0,0.0,0.0,0.0,0.0,0.0,0.0,0.0,0.0,0.0,0.0,0.0,0.0,0.0,0.0,0.0,0.0,0.0,0.0,0.0,0.0,0.0,0.0,0.0,0.0,0.0,0.0,0.0,0.0,0.0,0.0,0.0,0.0,0.0,0.0,0.0,0.0,0.0,0.0,0.0,0.0,0.0,0.0,0.0,0.0,0.0,0.0,0.0,0.0,0.0,0.0,0.0,0.0,0.0,0.0,0.0,0.0,0.0,0.0,0.0,0.0,0.0,0.0,0.0,0.0,0.0,0.0,0.0,0.0,0.0,0.0,0.0,0.0,0.0,0.0,0.0,0.0,0.0,0.0,0.0,0.0,0.0,0.0,0.0,0.0,0.0,0.0,0.0,0.0,0.0,0.0,0.0,0.0,0.0,0.0,0.0,0.0,0.0,0.0,0.0,0.0,0.0,0.0,0.0,0.0,0.0,0.0,0.0,0.0,0.0,0.0,0.0,0.0,0.0,0.0,0.0,0.0,0.0,0.0,0.0,0.0,0.0,0.0,0.0,0.0,0.0,0.0,0.0,0.0,0.0,0.0,0.0,0.0,0.0,0.0,0.0,0.0,0.0,0.0,0.0,0.0,0.0,0.0,0.0,0.0,0.0,0.0,0.0,0.0,0.0,0.0,0.0,0.0,0.0,0.0,0.0,0.0,0.0,0.0,0.0,0.0,0.0,0.0,0.0,0.0,0.0,0.0,0.0,0.0,0.0,0.0,0.0,0.0,0.0,0.0,0.0,0.0,0.0,0.0,0.0,0.0,0.0,0.0,0.0,0.0,0.0,0.0,0.0,0.0,0.0,0.0,0.0,0.0,0.0,0.0,0.0,0.0,0.0,0.0,0.0,0.0,0.0,0.0,0.0,0.0,0.0,0.0,0.0,0.0,0.0,0.0,0.0,0.0,0.0,0.0,0.0,0.0,0.0,0.0,0.0,0.0,0.0,0.0,0.0,0.0,0.0,0.0,0.0,0.0,0.0,0.0,0.0,0.0,0.0,0.0,0.0,0.0,0.0,0.0,0.0,0.0,0.0,0.0,0.0,0.0,0.0,0.0,0.0,0.0,0.0,0.0,0.0,0.0,0.0,0.0,0.0,0.0,0.0,0.0,0.0,0.0,0.0,0.0,0.0,0.0,0.0,0.0,0.0,0.0,0.0,0.0,0.0,0.0,0.0,0.0,0.0,0.0,0.0,0.0,0.0,0.0,0.0,0.0,0.0,0.0,0.0,0.0,0.0,0.0,0.0,0.0,0.0,0.0,0.0,0.0,0.0,0.0,0.0,0.0,0.0,0.0,0.0,0.0,0.0,0.0,0.0,0.0,0.0,0.0,0.0,0.0,0.0,0.0,0.0,0.0,0.0,0.0,0.0,0.0,0.0,0.0,0.0,0.0,0.0,0.0,0.0,0.0,0.0,0.0,0.0,0.0,0.0,0.0,0.0,0.0,0.0,0.0,0.0,0.0,0.0,0.0,0.0,0.0,0.0,0.0,0.0,0.0,0.0,0.0,0.0,0.0,0.0,0.0,0.0,0.0,0.0,0.0,0.0,0.0,0.0,0.0,0.0,0.0,0.0,0.0,0.0,0.0,0.0,0.0,0.0,0.0,0.0,0.0,0.0,0.0,0.0,0.0,0.0,0.0,0.0,0.0,0.0,0.0,0.0,0.0,0.0,0.0,0.0,0.0,0.0,0.0,0.0,0.0,0.0,0.0,0.0,0.0,0.0,0.0,0.0,0.0,0.0,0.0,0.0,0.0,0.0,0.0,0.0,0.0,0.0,0.0,0.0,0.0,0.0,0.0,0.0,0.0,0.0,0.0,0.0,0.0,0.0,0.0,0.0,0.0,0.0,0.0,0.0,0.0,0.0,0.0,0.0,0.0,0.0,0.0,0.0,0.0,0.0,0.0,0.0,0.0,0.0,0.0,0.0,0.0,0.0,0.0,0.0,0.0,0.0,0.0,0.0,0.0,0.0,0.0,0.0,0.0,0.0,0.0,0.0,0.0,0.0,0.0,0.0,0.0,0.0,0.0,0.0,0.0,0.0,0.0,0.0,0.0,0.0,0.0,0.0,0.0,0.0,0.0,0.0,0.0,0.0,0.0,0.0,0.0,0.0,0.0,0.0,0.0,0.0,0.0,0.0,0.0,0.0,0.0,0.0,0.0,0.0,0.0,0.0,0.0,0.0,0.0,0.0,0.0,0.0,0.0,0.0,0.0,0.0,0.0,0.0,0.0,0.0,0.0,0.0,0.0,0.0,0.0,0.0,0.0,0.0,0.0,0.0,0.0,0.0,0.0,0.0,0.0,0.0,0.0,0.0,0.0,0.0,0.0,0.0,0.0,0.0,0.0,0.0,0.0,0.0,0.0,0.0,0.0,0.0,0.0,0.0,0.0,0.0,0.0,0.0,0.0,0.0,0.0,0.0,0.0,0.0,0.0,0.0,0.0,0.0,0.0,0.0,0.0,0.0,0.0,0.0,0.0,0.0,0.0,0.0,0.0,0.0,0.0,0.0,0.0,0.0,0.0,0.0,0.0,0.0,0.0,0.0,0.0,0.0,0.0,0.0,0.0,0.0,0.0,0.0,0.0,0.0,0.0,0.0,0.0,0.0,0.0,0.0,0.0,0.0,0.0,0.0,0.0,0.0,0.0,0.0,0.0,0.0,0.0,0.0,0.0,0.0,0.0,0.0,0.0,0.0,0.0,0.0,0.0,0.0,0.0,0.0,0.0,0.0,0.0,0.0,0.0,0.0,0.0,0.0,0.0,0.0,0.0,0.0,0.0,0.0,0.0,0.0,0.0,0.0,0.0,0.0,0.0,0.0,0.0,0.0,0.0,0.0,0.0,0.0,0.0,0.0,0.0,0.0,0.0,0.0,0.0,0.0,0.0,0.0,0.0,0.0,0.0,0.0,0.0,0.0,0.0,0.0,0.0,0.0,0.0,0.0,0.0,0.0,0.0,0.0,0.0,0.0,0.0,0.0,0.0,0.0,0.0,0.0,0.0,0.0,0.0,0.0,0.0,0.0,0.0,0.0,0.0,0.0,0.0,0.0,0.0,0.0,0.0,0.0,0.0,0.0,0.0,0.0,0.0,0.0,0.0,0.0,0.0,0.0,0.0,0.0,0.0,0.0,0.0,0.0,0.0,0.0,0.0,0.0,0.0,0.0,0.0,0.0,0.0,0.0,0.0,0.0,0.0,0.0,0.0,0.0,0.0,0.0,0.0,0.0,0.0,0.0,0.0,0.0,0.0,0.0,0.0,0.0,0.0,0.0,0.0,0.0,0.0,0.0,0.0,0.0,0.0,0.0,0.0,0.0,0.0,0.0,0.0,0.0,0.0,0.0,0.0,0.0,0.0,0.0,0.0,0.0,0.0,0.0,0.0,0.0,0.0,0.0,0.0,0.0,0.0,0.0,3.6627,0.0,0.0,0.0,0.0,0.0,0.0,0.0,0.0,0.0,0.0,0.0,0.0,0.0,0.0,0.0,0.0,0.0,0.0,0.0,0.0,0.0,0.0,0.0,0.0,0.0,0.0,0.0,0.0,0.0,0.0,0.0,0.0,0.0,0.0,0.0,0.0,0.0,0.0,0.0,0.0,0.0,0.0,0.0,0.0,0.0,0.0,0.0,0.0,0.0,0.0,0.0,0.0,0.0,0.0,0.0,0.0,0.0,0.0,0.0,0.0,0.0,0.0,0.0,0.0,0.0,0.0,0.0,0.0,0.0,0.0,0.0,0.0,0.0,0.0,0.0,0.0,0.0,0.0,0.0,0.0,0.0,0.0,0.0,0.0,0.0,0.0,0.0,0.0,0.0,0.0,0.0,0.0,0.0,0.0,0.0,0.0,0.0,0.0,0.0,0.0,0.0,0.0,0.0,0.0,0.0,0.0,0.0,0.0,0.0,0.0,3.9983,4.0028,3.8388,3.7216,3.6639,0.0,0.0,0.0,0.0,0.0,0.0,0.0,0.0,0.0,0.0,0.0,0.0,0.0,0.0,0.0,0.0,0.0,0.0,0.0,0.0,0.0,0.0,0.0,0.0,0.0,0.0,0.0,0.0,0.0,0.0,0.0,0.0,0.0,0.0,0.0,0.0,0.0,0.0,0.0,0.0,0.0,0.0,0.0,0.0,0.0,0.0,0.0,0.0,0.0,0.0,0.0,0.0,0.0,0.0,0.0,0.0,0.0,0.0,0.0,0.0,0.0,0.0,0.0,0.0,0.0,0.0,0.0,0.0,0.0,0.0,0.0,0.0,0.0,0.0,0.0,0.0,0.0,0.0,0.0,0.0,0.0,0.0,0.0,0.0,0.0,0.0,0.0,0.0,0.0,0.0,0.0,0.0,0.0,0.0,0.0,0.0,0.0,0.0,0.0,0.0,0.0,0.0,0.0,0.0,0.0,0.0,0.0,0.0,0.0,0.0,0.0,0.0,3.8304,3.7551,3.7741,0.0,0.0,0.0,0.0,0.0,0.0,0.0,0.0,0.0,0.0,0.0,0.0,0.0,0.0,0.0,0.0,0.0,0.0,0.0,0.0,0.0,0.0,0.0,0.0,0.0,0.0,0.0,0.0,0.0,0.0,0.0,0.0,0.0,0.0,0.0,0.0,0.0,0.0,0.0,0.0,0.0,0.0,0.0,0.0,0.0,0.0,0.0,0.0,0.0,0.0,0.0,0.0,0.0,0.0,0.0,0.0,0.0,0.0,0.0,0.0,0.0,0.0,0.0,0.0,0.0,0.0,0.0,0.0,0.0,0.0,0.0,0.0,0.0,0.0,0.0,0.0,0.0,0.0,0.0,0.0,0.0,0.0,0.0,0.0,0.0,0.0,0.0,0.0,0.0,0.0,0.0,0.0,0.0,0.0,0.0,0.0,0.0,0.0,0.0,0.0,0.0,0.0,0.0,0.0,0.0,0.0,0.0,0.0,0.0,0.0,4.0352,4.1506,4.1464,0.0,4.1417,0.0,0.0,0.0,0.0,0.0,0.0,0.0,0.0,0.0,0.0,0.0,0.0,0.0,0.0,0.0,0.0,0.0,0.0,0.0,0.0,0.0,0.0,0.0,0.0,0.0,0.0,0.0,0.0,0.0,0.0,0.0,0.0,0.0,0.0,0.0,0.0,0.0,0.0,0.0,0.0,0.0,0.0,0.0,0.0,0.0,0.0,0.0,0.0,0.0,0.0,0.0,0.0,0.0,0.0,0.0,0.0,0.0,0.0,0.0,0.0,0.0,0.0,0.0,0.0,0.0,0.0,0.0,0.0,0.0,0.0,0.0,0.0,0.0,0.0,0.0,0.0,0.0,0.0,0.0,0.0,0.0,0.0,0.0,0.0,0.0,0.0,0.0,0.0,0.0,0.0,0.0,0.0,0.0,0.0,0.0,0.0,0.0,0.0,0.0,0.0,0.0,0.0,0.0,0.0,0.0,0.0,0.0,0.0,0.0,0.0,3.9568,4.0176,3.9856,3.9667,0.0,0.0,0.0,0.0,0.0,0.0,0.0,0.0,0.0,0.0,0.0,0.0,0.0,0.0,0.0,0.0,0.0,0.0,0.0,0.0,0.0,0.0,0.0,0.0,0.0,0.0,0.0,0.0,0.0,0.0,0.0,0.0,0.0,0.0,0.0,0.0,0.0,0.0,0.0,0.0,0.0,0.0,0.0,0.0,0.0,0.0,0.0,0.0,0.0,0.0,0.0,0.0,0.0,0.0,0.0,0.0,0.0,0.0,0.0,0.0,0.0,0.0,0.0,0.0,0.0,0.0,0.0,0.0,0.0,0.0,0.0,0.0,0.0,0.0,0.0,0.0,0.0,0.0,0.0,0.0,0.0,0.0,0.0,0.0,0.0,0.0,0.0,0.0,0.0,0.0,0.0,0.0,0.0,0.0,0.0,0.0,0.0,0.0,0.0,0.0,0.0,0.0,0.0,0.0,0.0,0.0,0.0,0.0,0.0,0.0,3.8785,3.9065,3.9373,3.9072,3.8802,3.8605,0.0,0.0,0.0,0.0,0.0,0.0,0.0,0.0,0.0,0.0,0.0,0.0,0.0,0.0,0.0,0.0,0.0,0.0,0.0,0.0,0.0,0.0,0.0,0.0,0.0,0.0,0.0,0.0,0.0,0.0,0.0,0.0,0.0,0.0,0.0,0.0,0.0,0.0,0.0,0.0,0.0,0.0,0.0,0.0,0.0,0.0,0.0,0.0,0.0,0.0,0.0,0.0,0.0,0.0,0.0,0.0,0.0,0.0,0.0,0.0,0.0,0.0,0.0,0.0,0.0,0.0,0.0,0.0,0.0,0.0,0.0,0.0,0.0,0.0,0.0,0.0,0.0,0.0,0.0,0.0,0.0,0.0,0.0,0.0,0.0,0.0,0.0,0.0,0.0,0.0,0.0,0.0,0.0,0.0,0.0,0.0,0.0,0.0,0.0,0.0,0.0,0.0,0.0,0.0,0.0,0.0,0.0,0.0,4.0727,3.9513,3.9241,4.0119,4.0623,4.0688,0.0,0.0,0.0,0.0,0.0,0.0,0.0,0.0,0.0,0.0,0.0,0.0,0.0,0.0,0.0,0.0,0.0,0.0,0.0,0.0,0.0,0.0,0.0,0.0,0.0,0.0,0.0,0.0,0.0,0.0,0.0,0.0,0.0,0.0,0.0,0.0,0.0,0.0,0.0,0.0,0.0,0.0,0.0,0.0,0.0,0.0,0.0,0.0,0.0,0.0,0.0,0.0,0.0,0.0,0.0,0.0,0.0,0.0,0.0,0.0,0.0,0.0,0.0,0.0,0.0,0.0,0.0,0.0,0.0,0.0,0.0,0.0,0.0,0.0,0.0,0.0,0.0,0.0,0.0,0.0,0.0,0.0,0.0,0.0,0.0,0.0,0.0,0.0,0.0,0.0,0.0,0.0,0.0,0.0,0.0,0.0,0.0,0.0,0.0,0.0,0.0,0.0,0.0,0.0,0.0,0.0,0.0,0.0,0.0,3.8085,3.8596,3.9522,4.0883,4.0355,3.9848,0.0,0.0,0.0,0.0,0.0,0.0,0.0,0.0,0.0,0.0,0.0,0.0,0.0,0.0,0.0,0.0,0.0,0.0,0.0,0.0,0.0,0.0,0.0,0.0,0.0,0.0,0.0,0.0,0.0,0.0,0.0,0.0,0.0,0.0,0.0,0.0,0.0,0.0,0.0,0.0,0.0,0.0,0.0,0.0,0.0,0.0,0.0,0.0,0.0,0.0,0.0,0.0,0.0,0.0,0.0,0.0,0.0,0.0,0.0,0.0,0.0,0.0,0.0,0.0,0.0,0.0,0.0,0.0,0.0,0.0,0.0,0.0,0.0,0.0,0.0,0.0,0.0,0.0,0.0,0.0,0.0,0.0,0.0,0.0,0.0,0.0,0.0,0.0,0.0,0.0,0.0,0.0,0.0,0.0,0.0,0.0,0.0,0.0,0.0,0.0,0.0,0.0,0.0,0.0,0.0,0.0,0.0,0.0,0.0,3.7274,0.0,3.9966,4.0237,3.9722,3.9072,0.0,0.0,0.0,0.0,0.0,0.0,0.0,0.0,0.0,0.0,0.0,0.0,0.0,0.0,0.0,0.0,0.0,0.0,0.0,0.0,0.0,0.0,0.0,0.0,0.0,0.0,0.0,0.0,0.0,0.0,0.0,0.0,0.0,0.0,0.0,0.0,0.0,0.0,0.0,0.0,0.0,0.0,0.0,0.0,0.0,0.0,0.0,0.0,0.0,0.0,0.0,0.0,0.0,0.0,0.0,0.0,0.0,0.0,0.0,0.0,0.0,0.0,0.0,0.0,0.0,0.0,0.0,0.0,0.0,0.0,0.0,0.0,0.0,0.0,0.0,0.0,0.0,0.0,0.0,0.0,0.0,0.0,0.0,0.0,0.0,0.0,0.0,0.0,0.0,0.0,0.0,0.0,0.0,0.0,0.0,0.0,0.0,0.0,0.0,0.0,0.0,0.0,0.0,0.0,0.0,0.0,0.0,0.0,3.7962,3.8877,4.0544,4.041,3.8201,3.903,3.8596,0.0,0.0,0.0,0.0,0.0,0.0,0.0,0.0,0.0,0.0,0.0,0.0,0.0,0.0,0.0,0.0,0.0,0.0,0.0,0.0,0.0,0.0,0.0,0.0,0.0,0.0,0.0,0.0,0.0,0.0,0.0,0.0,0.0,0.0,0.0,0.0,0.0,0.0,0.0,0.0,0.0,0.0,0.0,0.0,0.0,0.0,0.0,0.0,0.0,0.0,0.0,0.0,0.0,0.0,0.0,0.0,0.0,0.0,0.0,0.0,0.0,0.0,0.0,0.0,0.0,0.0,0.0,0.0,0.0,0.0,0.0,0.0,0.0,0.0,0.0,0.0,0.0,0.0,0.0,0.0,0.0,0.0,0.0,0.0,0.0,0.0,0.0,0.0,0.0,0.0,0.0,0.0,0.0,0.0,0.0,0.0,0.0,0.0,0.0,0.0,0.0,0.0,0.0,0.0,0.0,0.0,0.0,0.0,0.0,3.8223,3.9319,4.0393,4.1187,3.9669,3.8857,0.0,0.0,0.0,0.0,0.0,0.0,0.0,0.0,0.0,0.0,0.0,0.0,0.0,0.0,0.0,0.0,0.0,0.0,0.0,0.0,0.0,0.0,0.0,0.0,0.0,0.0,0.0,0.0,0.0,0.0,0.0,0.0,0.0,0.0,0.0,0.0,0.0,0.0,0.0,0.0,0.0,0.0,0.0,0.0,0.0,0.0,0.0,0.0,0.0,0.0,0.0,0.0,0.0,0.0,0.0,0.0,0.0,0.0,0.0,0.0,0.0,0.0,0.0,0.0,0.0,0.0,0.0,0.0,0.0,0.0,0.0,0.0,0.0,0.0,0.0,0.0,0.0,0.0,0.0,0.0,0.0,0.0,0.0,0.0,0.0,0.0,0.0,0.0,0.0,0.0,0.0,0.0,0.0,0.0,0.0,0.0,0.0,0.0,0.0,0.0,0.0,0.0,0.0,0.0,0.0,0.0,0.0,0.0,0.0,3.9947,4.0789,4.1787,4.2995,4.1252,3.9971,3.9316,0.0,0.0,0.0,0.0,0.0,0.0,0.0,0.0,0.0,0.0,0.0,0.0,0.0,0.0,0.0,0.0,0.0,0.0,0.0,0.0,0.0,0.0,0.0,0.0,0.0,0.0,0.0,0.0,0.0,0.0,0.0,0.0,0.0,0.0,0.0,0.0,0.0,0.0,0.0,0.0,0.0,0.0,0.0,0.0,0.0,0.0,0.0,0.0,0.0,0.0,0.0,0.0,0.0,0.0,0.0,0.0,0.0,0.0,0.0,0.0,0.0,0.0,0.0,0.0,0.0,0.0,0.0,0.0,0.0,0.0,0.0,0.0,0.0,0.0,0.0,0.0,0.0,0.0,0.0,0.0,0.0,0.0,0.0,0.0,0.0,0.0,0.0,0.0,0.0,0.0,0.0,0.0,0.0,0.0,0.0,0.0,0.0,0.0,0.0,0.0,0.0,0.0,0.0,0.0,0.0,0.0,0.0,0.0,4.3739,4.4601,4.4665,4.3913,4.362,4.1838,0.0,0.0,0.0,0.0,0.0,0.0,0.0,0.0,0.0,0.0,0.0,0.0,0.0,0.0,0.0,0.0,0.0,0.0,0.0,0.0,0.0,0.0,0.0,0.0,0.0,0.0,0.0,0.0,0.0,0.0,0.0,0.0,0.0,0.0,0.0,0.0,0.0,0.0,0.0,0.0,0.0,0.0,0.0,0.0,0.0,0.0,0.0,0.0,0.0,0.0,0.0,0.0,0.0,0.0,0.0,0.0,0.0,0.0,0.0,0.0,0.0,0.0,0.0,0.0,0.0,0.0,0.0,0.0,0.0,0.0,0.0,0.0,0.0,0.0,0.0,0.0,0.0,0.0,0.0,0.0,0.0,0.0,0.0,0.0,0.0,0.0,0.0,0.0,0.0,0.0,0.0,0.0,0.0,0.0,0.0,0.0,0.0,0.0,0.0,0.0,0.0,0.0,0.0,0.0,0.0,0.0,0.0,0.0,0.0,4.7979,4.9621,4.9925,4.8859,4.5993,4.38,0.0,0.0,0.0,0.0,0.0,0.0,0.0,0.0,0.0,0.0,0.0,0.0,0.0,0.0,0.0,0.0,0.0,0.0,0.0,0.0,0.0,0.0,0.0,0.0,0.0,0.0,0.0,0.0,0.0,0.0,0.0,0.0,0.0,0.0,0.0,0.0,0.0,0.0,0.0,0.0,0.0,0.0,0.0,0.0,0.0,0.0,0.0,0.0,0.0,0.0,0.0,0.0,0.0,0.0,0.0,0.0,0.0,0.0,0.0,0.0,0.0,0.0,0.0,0.0,0.0,0.0,0.0,0.0,0.0,0.0,0.0,0.0,0.0,0.0,0.0,0.0,0.0,0.0,0.0,0.0,0.0,0.0,0.0,0.0,0.0,0.0,0.0,0.0,0.0,0.0,0.0,0.0,0.0,0.0,0.0,0.0,0.0,0.0,0.0,0.0,0.0,0.0,0.0,0.0,0.0,0.0,0.0,0.0,4.6919,4.9842,5.3316,5.4642,5.3662,4.9962,4.6613,0.0,0.0,0.0,0.0,0.0,0.0,0.0,0.0,0.0,0.0,0.0,0.0,0.0,0.0,0.0,0.0,0.0,0.0,0.0,0.0,0.0,0.0,0.0,0.0,0.0,0.0,0.0,0.0,0.0,0.0,0.0,0.0,0.0,0.0,0.0,0.0,0.0,0.0,0.0,0.0,0.0,0.0,0.0,0.0,0.0,0.0,0.0,0.0,0.0,0.0,0.0,0.0,0.0,0.0,0.0,0.0,0.0,0.0,0.0,0.0,0.0,0.0,0.0,0.0,0.0,0.0,0.0,0.0,0.0,0.0,0.0,0.0,0.0,0.0,0.0,0.0,0.0,0.0,0.0,0.0,0.0,0.0,0.0,0.0,0.0,0.0,0.0,0.0,0.0,0.0,0.0,0.0,0.0,0.0,0.0,0.0,0.0,0.0,0.0,0.0,0.0,0.0,0.0,0.0,0.0,0.0,0.0,0.0,5.0175,5.0712,5.6091,5.858,5.7779,5.4151,4.9633,0.0,0.0,0.0,0.0,0.0,0.0,0.0,0.0,0.0,0.0,0.0,0.0,0.0,0.0,0.0,0.0,0.0,0.0,0.0,0.0,0.0,0.0,0.0,0.0,0.0,0.0,0.0,0.0,0.0,0.0,0.0,0.0,0.0,0.0,0.0,0.0,0.0,0.0,0.0,0.0,0.0,0.0,0.0,0.0,0.0,0.0,0.0,0.0,0.0,0.0,0.0,0.0,0.0,0.0,0.0,0.0,0.0,0.0,0.0,0.0,0.0,0.0,0.0,0.0,0.0,0.0,0.0,0.0,0.0,0.0,0.0,0.0,0.0,0.0,0.0,0.0,0.0,0.0,0.0,0.0,0.0,0.0,0.0,0.0,0.0,0.0,0.0,0.0,0.0,0.0,0.0,0.0,0.0,0.0,0.0,0.0,0.0,0.0,0.0,0.0,0.0,0.0,0.0,0.0,0.0,0.0,0.0,0.0,5.2451,5.5751,5.898,6.0269,5.9388,5.4185,5.0348,0.0,0.0,0.0,0.0,0.0,0.0,0.0,0.0,0.0,0.0,0.0,0.0,0.0,0.0,0.0,0.0,0.0,0.0,0.0,0.0,0.0,0.0,0.0,0.0,0.0,0.0,0.0,0.0,0.0,0.0,0.0,0.0,0.0,0.0,0.0,0.0,0.0,0.0,0.0,0.0,0.0,0.0,0.0,0.0,0.0,0.0,0.0,0.0,4.4704,0.0,0.0,0.0,0.0,0.0,0.0,0.0,0.0,0.0,0.0,0.0,0.0,0.0,0.0,0.0,0.0,0.0,0.0,0.0,0.0,0.0,0.0,0.0,0.0,0.0,0.0,0.0,0.0,0.0,0.0,0.0,0.0,0.0,0.0,0.0,0.0,0.0,0.0,0.0,0.0,0.0,0.0,0.0,0.0,0.0,0.0,0.0,0.0,0.0,0.0,0.0,0.0,0.0,0.0,0.0,0.0,0.0,0.0,0.0,5.3497,5.7301,5.9881,6.0986,6.0423,5.595,5.215,0.0,0.0,0.0,0.0,0.0,0.0,0.0,0.0,0.0,0.0,0.0,0.0,0.0,0.0,0.0,0.0,0.0,0.0,0.0,0.0,0.0,0.0,0.0,0.0,0.0,0.0,0.0,0.0,0.0,0.0,0.0,0.0,0.0,0.0,0.0,0.0,0.0,0.0,0.0,0.0,0.0,0.0,0.0,0.0,0.0,0.0,0.0,0.0,0.0,0.0,0.0,0.0,0.0,0.0,0.0,0.0,0.0,0.0,0.0,0.0,0.0,0.0,0.0,0.0,0.0,0.0,0.0,0.0,0.0,0.0,0.0,0.0,0.0,0.0,0.0,0.0,0.0,0.0,0.0,0.0,0.0,0.0,0.0,0.0,0.0,0.0,0.0,0.0,0.0,0.0,0.0,0.0,0.0,0.0,0.0,0.0,0.0,0.0,0.0,0.0,0.0,0.0,0.0,0.0,0.0,0.0,0.0,5.0276,5.4246,5.8212,6.0475,6.1602,6.1603,5.8285,5.4322,4.9886,0.0,0.0,0.0,0.0,0.0,0.0,0.0,0.0,0.0,0.0,0.0,0.0,0.0,0.0,0.0,0.0,0.0,0.0,0.0,0.0,0.0,0.0,0.0,0.0,0.0,0.0,0.0,0.0,0.0,0.0,0.0,0.0,0.0,0.0,0.0,0.0,0.0,0.0,4.2258,4.4447,0.0,0.0,0.0,0.0,0.0,0.0,0.0,0.0,4.6225,0.0,0.0,0.0,0.0,0.0,0.0,0.0,0.0,0.0,0.0,0.0,0.0,0.0,0.0,0.0,0.0,0.0,0.0,0.0,0.0,0.0,0.0,0.0,0.0,0.0,0.0,0.0,0.0,0.0,0.0,0.0,0.0,0.0,0.0,0.0,0.0,0.0,0.0,0.0,0.0,0.0,0.0,0.0,0.0,0.0,0.0,0.0,0.0,0.0,0.0,0.0,0.0,0.0,0.0,0.0,0.0,5.3011,5.2597,5.563,6.238,6.2985,6.3193,6.313,5.995,5.631,5.232,0.0,0.0,0.0,0.0,0.0,0.0,0.0,0.0,0.0,0.0,0.0,0.0,0.0,0.0,0.0,0.0,0.0,0.0,0.0,0.0,0.0,0.0,0.0,0.0,0.0,0.0,0.0,0.0,0.0,0.0,0.0,0.0,0.0,0.0,0.0,0.0,0.0,0.0,0.0,4.6967,4.8317,0.0,0.0,0.0,0.0,0.0,0.0,0.0,0.0,4.7513,0.0,0.0,0.0,0.0,0.0,0.0,0.0,0.0,0.0,0.0,0.0,0.0,0.0,0.0,0.0,0.0,0.0,0.0,0.0,0.0,0.0,0.0,0.0,0.0,0.0,0.0,0.0,0.0,0.0,0.0,0.0,0.0,0.0,0.0,0.0,0.0,0.0,0.0,0.0,0.0,0.0,0.0,0.0,0.0,0.0,0.0,0.0,0.0,0.0,0.0,0.0,0.0,0.0,0.0,0.0,5.3161,5.4849,5.8164,6.3368,6.359,6.359,6.3516,5.9504,5.6139,0.0,0.0,0.0,0.0,0.0,0.0,0.0,0.0,0.0,0.0,0.0,0.0,0.0,0.0,0.0,0.0,0.0,0.0,0.0,0.0,0.0,0.0,0.0,0.0,0.0,0.0,0.0,0.0,0.0,0.0,0.0,0.0,0.0,0.0,0.0,0.0,0.0,0.0,0.0,0.0,4.8196,4.9539,5.0245,0.0,0.0,0.0,0.0,0.0,0.0,4.8115,4.788,0.0,0.0,0.0,0.0,0.0,0.0,0.0,0.0,0.0,0.0,0.0,0.0,0.0,0.0,0.0,0.0,0.0,0.0,0.0,0.0,0.0,0.0,0.0,0.0,0.0,0.0,0.0,0.0,0.0,0.0,0.0,0.0,0.0,0.0,0.0,0.0,0.0,0.0,0.0,0.0,0.0,0.0,0.0,0.0,0.0,0.0,0.0,0.0,0.0,0.0,0.0,0.0,0.0,0.0,0.0,5.2505,5.637,6.005,6.3405,6.359,6.3602,6.355,5.8588,5.5388,0.0,0.0,0.0,0.0,0.0,0.0,0.0,0.0,0.0,0.0,0.0,0.0,0.0,0.0,0.0,0.0,0.0,0.0,0.0,0.0,0.0,0.0,0.0,0.0,0.0,0.0,0.0,0.0,0.0,0.0,0.0,0.0,0.0,0.0,0.0,0.0,0.0,0.0,0.0,0.0,0.0,5.0858,5.2328,5.0209,0.0,0.0,0.0,0.0,4.8719,4.9245,0.0,0.0,0.0,0.0,0.0,0.0,0.0,0.0,0.0,0.0,0.0,0.0,0.0,0.0,0.0,0.0,0.0,0.0,0.0,0.0,0.0,0.0,0.0,0.0,0.0,0.0,0.0,0.0,0.0,0.0,0.0,0.0,0.0,0.0,0.0,0.0,0.0,0.0,0.0,0.0,0.0,0.0,0.0,0.0,0.0,0.0,0.0,0.0,0.0,0.0,0.0,0.0,0.0,0.0,0.0,0.0,5.3309,5.6158,5.9515,6.3368,6.359,6.3647,6.3683,5.8037,5.4838,0.0,0.0,0.0,0.0,0.0,0.0,0.0,0.0,0.0,0.0,0.0,0.0,0.0,0.0,0.0,0.0,0.0,0.0,0.0,0.0,0.0,0.0,0.0,0.0,0.0,0.0,0.0,0.0,0.0,0.0,0.0,0.0,0.0,0.0,0.0,0.0,0.0,0.0,0.0,0.0,0.0,5.3046,5.1905,5.1409,5.1216,0.0,0.0,5.1406,5.1505,5.3419,0.0,0.0,0.0,0.0,0.0,0.0,0.0,0.0,0.0,0.0,0.0,0.0,0.0,0.0,0.0,0.0,0.0,0.0,0.0,0.0,0.0,0.0,0.0,0.0,0.0,0.0,0.0,0.0,0.0,0.0,0.0,0.0,0.0,0.0,0.0,0.0,0.0,0.0,0.0,0.0,0.0,0.0,0.0,0.0,0.0,0.0,0.0,0.0,0.0,0.0,0.0,0.0,0.0,0.0,0.0,5.0139,5.3605,5.8424,6.1775,6.3516,6.359,6.3613,6.368,5.7004,5.3654,0.0,0.0,0.0,0.0,0.0,0.0,0.0,0.0,0.0,0.0,0.0,0.0,0.0,0.0,0.0,0.0,0.0,0.0,0.0,0.0,0.0,0.0,0.0,0.0,0.0,0.0,0.0,0.0,0.0,0.0,0.0,0.0,0.0,0.0,0.0,0.0,0.0,0.0,0.0,0.0,0.0,0.0,5.436,5.3602,0.0,0.0,0.0,5.3413,5.3377,0.0,0.0,0.0,0.0,0.0,0.0,0.0,0.0,0.0,0.0,0.0,0.0,0.0,0.0,0.0,0.0,0.0,0.0,0.0,0.0,0.0,0.0,0.0,0.0,0.0,0.0,0.0,0.0,0.0,0.0,0.0,0.0,0.0,0.0,0.0,0.0,0.0,0.0,0.0,0.0,0.0,0.0,0.0,0.0,0.0,0.0,0.0,0.0,0.0,0.0,0.0,0.0,0.0,0.0,0.0,0.0,0.0,5.3679,6.0198,6.359,6.359,6.359,6.3639,6.3524,5.7311,0.0,0.0,0.0,0.0,0.0,0.0,0.0,0.0,0.0,0.0,0.0,0.0,0.0,0.0,0.0,0.0,0.0,0.0,0.0,0.0,0.0,0.0,0.0,0.0,0.0,0.0,0.0,3.8956,0.0,0.0,0.0,0.0,0.0,0.0,0.0,0.0,0.0,0.0,0.0,0.0,0.0,0.0,5.5631,5.634,5.5519,5.5195,0.0,0.0,5.5196,5.5116,5.6857,5.6784,0.0,0.0,0.0,0.0,0.0,0.0,0.0,0.0,0.0,0.0,0.0,0.0,0.0,0.0,0.0,0.0,0.0,0.0,0.0,0.0,0.0,0.0,0.0,0.0,0.0,0.0,0.0,0.0,0.0,0.0,0.0,0.0,0.0,0.0,0.0,0.0,0.0,0.0,0.0,0.0,0.0,0.0,0.0,0.0,0.0,0.0,0.0,0.0,0.0,0.0,0.0,0.0,0.0,0.0,0.0,5.3753,6.0198,6.3628,6.359,6.359,6.3647,6.3731,6.0115,5.6908,0.0,0.0,0.0,0.0,0.0,0.0,0.0,0.0,0.0,0.0,0.0,0.0,0.0,0.0,0.0,0.0,0.0,0.0,0.0,0.0,0.0,0.0,0.0,0.0,0.0,0.0,0.0,0.0,0.0,0.0,0.0,0.0,0.0,0.0,0.0,0.0,0.0,0.0,0.0,0.0,0.0,5.5633,5.6456,5.6621,5.7166,0.0,0.0,5.7,5.6931,5.9159,5.8916,5.3048,0.0,0.0,0.0,0.0,0.0,0.0,0.0,0.0,0.0,0.0,0.0,0.0,0.0,0.0,0.0,0.0,0.0,0.0,0.0,0.0,0.0,0.0,0.0,0.0,0.0,0.0,0.0,0.0,0.0,0.0,0.0,0.0,0.0,0.0,0.0,0.0,0.0,0.0,0.0,0.0,0.0,0.0,0.0,0.0,0.0,0.0,0.0,0.0,0.0,0.0,0.0,0.0,0.0,5.2431,5.5083,6.1163,6.4593,6.5113,6.4631,6.4356,6.4413,6.0628,5.7062,0.0,0.0,0.0,0.0,0.0,0.0,0.0,0.0,0.0,0.0,0.0,0.0,0.0,0.0,0.0,0.0,0.0,0.0,0.0,0.0,0.0,0.0,0.0,0.0,0.0,0.0,0.0,0.0,4.4019,4.4416,4.5464,0.0,0.0,0.0,0.0,0.0,0.0,0.0,0.0,0.0,0.0,5.9213,5.9505,6.0162,0.0,0.0,6.0808,6.0241,6.0151,6.0656,5.9381,5.4422,5.323,0.0,0.0,0.0,0.0,0.0,0.0,0.0,0.0,0.0,0.0,0.0,0.0,0.0,0.0,0.0,0.0,0.0,0.0,0.0,0.0,0.0,0.0,0.0,0.0,0.0,0.0,0.0,0.0,0.0,0.0,0.0,0.0,0.0,0.0,0.0,0.0,0.0,0.0,0.0,0.0,0.0,0.0,0.0,0.0,0.0,0.0,0.0,0.0,0.0,0.0,0.0,0.0,5.3218,5.6008,6.2053,6.5485,6.6091,6.5522,6.5076,6.473,6.1975,5.8714,0.0,0.0,0.0,0.0,0.0,0.0,0.0,0.0,0.0,0.0,0.0,0.0,0.0,0.0,0.0,0.0,0.0,0.0,0.0,0.0,0.0,0.0,0.0,0.0,0.0,0.0,0.0,0.0,4.5939,4.6261,4.6835,0.0,0.0,0.0,0.0,0.0,0.0,0.0,0.0,0.0,0.0,6.1653,6.213,6.2438,6.2684,6.2904,6.204,6.1417,6.1572,6.1417,5.9886,5.5639,0.0,0.0,0.0,0.0,0.0,0.0,0.0,0.0,0.0,0.0,0.0,0.0,0.0,0.0,0.0,0.0,0.0,0.0,0.0,0.0,0.0,0.0,0.0,0.0,0.0,0.0,0.0,0.0,0.0,0.0,3.957,0.0,0.0,0.0,0.0,0.0,0.0,0.0,0.0,0.0,0.0,0.0,0.0,0.0,0.0,0.0,0.0,0.0,0.0,0.0,0.0,0.0,0.0,5.4364,5.6082,6.2695,6.6079,6.6165,6.6091,6.5708,6.4891,6.4668,6.2691,5.8513,0.0,0.0,0.0,0.0,0.0,0.0,0.0,0.0,0.0,0.0,0.0,0.0,0.0,0.0,0.0,0.0,0.0,0.0,0.0,0.0,0.0,0.0,0.0,0.0,0.0,0.0,4.6478,4.7192,4.7741,0.0,0.0,0.0,0.0,0.0,0.0,0.0,0.0,0.0,0.0,6.0432,6.213,6.3747,6.2707,6.2083,6.2781,6.1028,5.9822,6.0646,6.1403,6.0575,0.0,0.0,0.0,0.0,0.0,0.0,0.0,0.0,0.0,0.0,0.0,0.0,0.0,0.0,0.0,0.0,0.0,0.0,0.0,0.0,0.0,0.0,0.0,0.0,0.0,0.0,0.0,4.499,4.3833,0.0,0.0,0.0,0.0,0.0,0.0,0.0,0.0,0.0,0.0,0.0,4.866,4.9611,0.0,0.0,0.0,0.0,0.0,0.0,0.0,0.0,0.0,0.0,0.0,0.0,5.5168,5.8485,6.4007,6.7156,6.7676,6.7156,6.6785,6.6451,6.5373,6.2569,5.7831,0.0,0.0,0.0,0.0,0.0,0.0,0.0,0.0,0.0,0.0,0.0,0.0,0.0,0.0,0.0,0.0,0.0,0.0,0.0,0.0,0.0,0.0,0.0,0.0,0.0,4.686,0.0,0.0,0.0,0.0,0.0,0.0,0.0,0.0,0.0,0.0,0.0,5.7468,5.965,6.2302,6.4039,6.409,6.462,6.5113,0.0,0.0,0.0,0.0,0.0,0.0,0.0,0.0,0.0,0.0,0.0,0.0,0.0,0.0,6.1772,5.553,5.4296,5.4052,5.3514,0.0,0.0,0.0,0.0,0.0,0.0,0.0,0.0,0.0,0.0,0.0,0.0,0.0,0.0,0.0,0.0,4.7243,0.0,0.0,0.0,0.0,0.0,0.0,0.0,0.0,5.2131,5.3874,5.3755,5.4822,5.4835,0.0,5.3856,5.1098,0.0,0.0,0.0,0.0,0.0,0.0,0.0,0.0,5.6721,5.9693,6.4971,6.7973,6.8456,6.8011,6.7565,6.7268,6.5671,6.31,5.954,5.5907,5.2991,0.0,0.0,0.0,0.0,0.0,0.0,0.0,0.0,0.0,0.0,0.0,0.0,0.0,0.0,0.0,0.0,0.0,0.0,0.0,0.0,0.0,0.0,0.0,4.8286,0.0,0.0,0.0,0.0,0.0,0.0,0.0,0.0,0.0,5.6077,5.8577,6.108,6.2719,6.4826,6.6088,6.5828,0.0,0.0,0.0,0.0,0.0,0.0,0.0,6.3113,6.3039,6.245,6.2081,6.2266,6.4241,6.5478,6.435,0.0,0.0,6.0433,5.9356,5.9485,5.9534,5.9854,6.0651,6.245,6.2904,6.3444,0.0,0.0,0.0,0.0,0.0,0.0,0.0,0.0,5.1964,5.2295,0.0,5.0963,0.0,0.0,0.0,0.0,0.0,5.3282,0.0,0.0,6.0582,6.2851,6.1226,6.1298,6.1368,6.1266,6.117,5.9414,5.6098,5.3094,0.0,0.0,0.0,0.0,0.0,0.0,5.8854,5.9963,6.554,6.8493,6.8493,6.8493,6.8122,6.7305,6.5708,6.4445,6.3542,6.0974,5.8463,5.5918,5.1102,0.0,0.0,0.0,0.0,0.0,0.0,0.0,0.0,0.0,0.0,0.0,0.0,0.0,0.0,0.0,0.0,0.0,0.0,0.0,0.0,4.998,0.0,0.0,0.0,0.0,0.0,0.0,0.0,0.0,0.0,0.0,5.97,6.2889,6.5925,6.7407,0.0,0.0,0.0,0.0,6.6756,6.6639,6.5975,6.5828,6.6625,6.7392,6.7486,6.6211,0.0,0.0,6.6495,6.7884,6.8836,6.7185,6.9727,7.138,6.9452,6.76,6.7061,6.8459,6.7652,6.7997,7.0706,7.0575,7.1045,5.8525,0.0,0.0,0.0,0.0,5.6171,5.7311,5.897,5.8572,5.7655,5.6388,5.5212,0.0,0.0,0.0,0.0,0.0,0.0,5.7811,5.9017,6.215,6.427,6.5577,6.6256,6.6264,6.5762,6.5725,6.4875,6.3275,6.2892,5.8847,5.147,0.0,0.0,0.0,0.0,6.0552,6.3259,6.6725,6.8531,6.8531,6.8531,6.8122,6.7305,6.6277,6.5336,6.4482,6.2606,6.0403,5.775,5.5138,0.0,0.0,0.0,0.0,0.0,0.0,0.0,0.0,0.0,0.0,0.0,0.0,0.0,0.0,0.0,0.0,0.0,0.0,0.0,5.2601,5.293,5.3624,0.0,0.0,0.0,0.0,0.0,0.0,0.0,0.0,0.0,6.6961,6.7006,6.7173,0.0,0.0,6.8462,6.8104,6.8262,6.8418,6.847,0.0,0.0,0.0,7.0077,7.0259,7.1542,7.2933,7.3791,7.364,7.3768,7.3734,7.3188,7.4465,7.5554,7.5499,7.3323,7.1767,7.2026,7.2188,7.2571,7.3511,7.4414,7.5355,6.7022,6.4138,6.1498,6.0358,6.0461,6.1694,6.2862,6.3945,6.4009,6.3651,6.2898,6.1336,5.884,5.5714,5.5086,0.0,0.0,0.0,6.215,6.3973,6.5317,6.7144,6.9247,6.9903,7.01,6.9985,6.9659,6.9251,6.866,6.808,6.4547,5.8164,0.0,0.0,5.7637,6.0259,6.2792,6.517,6.738,6.8531,6.8531,6.8531,6.8271,6.7788,6.6971,6.6191,6.5336,6.4382,6.2632,6.003,5.8343,5.5755,0.0,0.0,0.0,0.0,0.0,0.0,0.0,0.0,0.0,0.0,0.0,4.9246,4.6208,0.0,0.0,0.0,5.2264,5.4942,5.6951,5.7113,0.0,0.0,0.0,0.0,0.0,0.0,0.0,6.4457,6.7681,7.0238,7.1655,7.177,7.1347,7.0413,7.0467,7.0628,7.0721,0.0,7.2156,7.2183,7.3305,7.4219,7.4265,7.3895,7.4117,7.5579,7.6278,7.6778,7.726,7.7292,7.7273,7.7398,7.8216,7.9182,7.9702,7.8364,7.7027,7.6432,7.6692,7.7101,7.7435,7.8327,7.9033,7.4574,7.326,6.7212,6.4369,6.4065,6.6511,6.7579,6.7595,6.8389,6.9562,7.0695,6.8238,6.6558,6.5453,6.303,0.0,6.4457,6.6004,6.7486,6.9013,6.9756,7.0958,7.2469,7.2621,7.3043,7.3751,7.3081,7.2671,7.2447,7.0214,6.8543,6.7469,6.6097,6.437,6.2563,6.4014,6.5307,6.6208,6.7764,6.863,6.8716,6.8679,6.8679,6.8679,6.7899,6.7094,6.6239,6.6065,6.4867,6.2364,6.0652,5.8639,5.6135,0.0,0.0,0.0,0.0,0.0,0.0,0.0,0.0,0.0,0.0,0.0,0.0,0.0,0.0,0.0,5.6492,0.0,6.163,6.1838,0.0,0.0,0.0,6.125,6.1373,6.2867,6.5028,6.7963,0.0,0.0,7.4404,0.0,7.708,7.5038,7.407,7.4047,7.5425,7.6212,7.6861,7.6488,7.7361,7.7893,7.7678,7.786,7.8122,7.8494,7.8587,7.8648,7.8833,7.9316,7.9739,7.9814,8.104,8.2043,8.208,8.2377,8.2697,8.0965,8.078,8.104,8.1486,8.1746,8.182,7.6266,7.6117,7.5479,7.3629,7.1166,7.2121,7.231,7.1955,7.1864,7.1848,7.1786,7.0526,6.9365,6.8414,6.828,6.8687,6.9559,7.0435,7.1665,7.3125,7.3348,7.3967,7.4946,7.4972,7.5097,7.5246,7.5086,7.4728,7.4093,7.4067,7.2936,7.0865,7.1013,6.9036,6.5053,6.5878,6.7124,6.863,6.9063,6.9632,7.0301,7.0338,7.0301,7.0351,6.9571,6.8505,6.7149,6.5883,6.4428,6.2668,6.1063,5.9624,5.8216,5.4522,0.0,0.0,0.0,0.0,0.0,0.0,0.0,0.0,0.0,5.4019,4.8724,0.0,5.5406,0.0,6.011,6.31,6.375,6.4365,0.0,0.0,6.6825,6.7723,6.8978,7.0038,7.0937,7.1676,7.3545,7.5416,7.7103,7.7821,7.8536,7.9338,7.7882,7.6821,7.7221,7.7521,7.7792,7.7889,7.8567,7.9069,7.9232,7.9654,8.0365,8.0988,8.1114,8.1337,8.1931,8.2192,8.2303,8.234,8.26,8.2898,8.2935,8.3083,8.3083,8.2712,8.26,8.2452,8.2117,8.2489,8.2712,7.8551,7.8927,7.9901,7.8929,7.6657,7.6803,7.6414,7.5748,7.5463,7.5188,7.4907,7.3932,7.3177,7.265,7.288,7.3103,7.3417,7.3726,7.4329,7.5132,7.5132,7.5578,7.6358,7.6395,7.6581,7.6878,7.6544,7.6172,7.5726,7.5763,7.5055,7.3662,7.4108,7.2757,6.9677,6.8515,6.8453,6.9381,6.9481,6.9978,7.0858,7.0895,7.0363,6.9236,6.8518,6.6969,6.4533,6.3817,6.2545,6.0557,6.0429,6.0048,5.9054,5.5669,5.4214,0.0,0.0,0.0,0.0,0.0,0.0,0.0,0.0,0.0,0.0,0.0,5.819,6.0068,6.3799,6.6556,6.7728,6.8875,6.9987,7.0992,7.1784,7.2526,7.3082,7.3527,7.4232,7.5308,7.6532,7.8174,8.0344,8.0693,8.1331,8.314,8.1992,8.0565,7.9637,7.999,8.0442,8.0107,8.0772,8.1499,8.1848,8.2522,8.3163,8.3595,8.3685,8.3789,8.4198,8.4257,8.4257,8.4257,8.4272,8.4257,8.4272,8.4332,8.4413,8.4428,8.4435,8.4011,8.2815,8.286,8.3046,8.0689,8.1153,8.1769,8.1526,8.0653,8.0356,7.9616,7.8707,7.8564,7.8557,7.8633,7.7774,7.7335,7.719,7.6843,7.6651,7.6619,7.6375,7.6307,7.6432,7.6321,7.6692,7.7398,7.7287,7.7621,7.8253,7.7584,7.725,7.7213,7.6469,7.6047,7.5909,7.5959,7.5409,7.4273,7.1387,6.9769,6.9462,6.9702,7.0225,7.1031,7.0721,6.9434,6.7173,6.6153,6.4099,6.087,6.1135,6.0329,5.8164,5.9719,6.051,6.0013,5.7178,5.6657,0.0,5.5289,0.0,0.0,0.0,0.0,0.0,0.0,0.0,0.0,6.0609,6.2088,6.51,6.7741,7.0139,7.2181,7.3912,7.5007,7.5155,7.6051,7.6374,7.569,7.5777,7.6746,7.8881,7.9752,8.1125,8.3317,8.3779,8.4377,8.5578,8.5279,8.4017,8.2335,8.2929,8.3522,8.2967,8.349,8.4008,8.4657,8.5369,8.5744,8.5827,8.5626,8.567,8.5574,8.5596,8.5633,8.5633,8.5574,8.5596,8.567,8.5753,8.5879,8.5804,8.5869,8.5369,8.387,8.3425,8.3321,8.099,8.1126,8.1468,8.157,8.1482,8.1369,8.0563,7.932,7.906,7.94,8.0124,8.0505,8.0618,8.0402,7.9572,7.9501,7.9897,7.9163,7.9145,7.9725,7.9108,7.8885,7.8996,7.8402,7.8141,7.829,7.8141,7.8067,7.8067,7.7919,7.7404,7.6611,7.6611,7.5801,7.427,0.0,0.0,0.0,7.1122,7.1608,7.1695,6.9739,6.8122,6.6926,6.4274,0.0,6.0205,6.021,6.0108,5.9702,6.1017,0.0,0.0,0.0,0.0,0.0,0.0,0.0,0.0,0.0,0.0,0.0,6.532,6.3433,6.2677,6.626,6.8989,6.9941,7.2807,7.4572,7.4449,7.6539,7.7621,7.7151,7.8932,8.0111,7.9915,8.1041,8.2113,8.2384,8.2706,8.3344,8.4604,8.4819,8.5235,8.6292,8.6282,8.5756,8.4693,8.5101,8.5521,8.5446,8.5461,8.5671,8.5843,8.6016,8.6225,8.6061,8.6047,8.6055,8.6078,8.6078,8.6018,8.6055,8.5981,8.6055,8.6055,8.6047,8.6188,8.6076,8.6128,8.5725,8.4582,8.4315,8.41,8.1844,0.0,8.2414,8.231,0.0,8.1986,8.1392,8.0417,8.038,8.0618,8.1057,8.1432,8.1479,8.1281,8.0766,8.0617,8.0767,8.0325,8.0282,8.0668,8.0297,8.0097,8.0074,7.9688,7.9284,7.8982,7.8995,7.9037,7.9105,7.9068,7.9064,7.8945,7.8995,7.8508,7.7672,7.6855,7.5139,7.2558,7.2624,7.2951,7.3377,7.1826,7.0128,6.8492,0.0,0.0,0.0,0.0,0.0,0.0,0.0,0.0,0.0,0.0,0.0,6.5848,6.3823,6.376,6.6425,6.6293,6.7635,7.1243,7.1603,7.0499,6.7888,7.1256,7.3913,7.4835,7.644,7.7761,7.8676,7.9923,8.081,8.1312,8.2112,8.2722,8.3104,8.3519,8.3982,8.4287,8.4366,8.4935,8.6254,8.6043,8.637,8.7476,8.7377,8.7152,8.7063,8.6616,8.6294,8.6294,8.6706,8.693,8.6954,8.7234,8.7416,8.7453,8.7358,8.73,8.73,8.73,8.7263,8.7263,8.73,8.73,8.73,8.7358,8.7453,8.7467,8.7487,8.7188,8.626,8.5295,8.4493,8.3111,8.3655,8.3851,8.3536,8.2868,8.3023,8.2764,8.2264,0.0,0.0,0.0,8.197,8.1902,8.1663,8.1527,8.1363,8.1157,8.106,8.106,8.118,8.106,8.1,8.1,8.0851,8.0526,8.003,7.9993,8.0074,8.017,8.0183,8.0531,8.119,8.1228,8.1201,8.1112,7.9693,7.7808,7.5623,7.4305,7.4061,7.491,7.3902,7.2246,6.989,6.897,6.7037,6.3965,6.4378,6.4049,6.273,6.3737,6.5199,6.6815,6.5342,6.6041,6.9539,6.8489,6.8886,7.1712,7.2119,7.3089,7.4997,7.744,7.7502,7.4238,7.5969,7.7814,7.9286,7.9435,8.0348,8.2438,8.2789,8.3428,8.4923,8.4598,8.4623,8.5296,8.5111,8.5172,8.576,8.6022,8.6462,8.7739,8.7415,8.749,8.8729,8.8654,8.8428,8.8841,8.7926,8.7049,8.7124,8.7599,8.8002,8.8063,8.8368,8.8808,8.8696,8.8596,8.8644,8.8756,8.8793,8.8793,8.8748,8.8793,8.8696,8.8621,8.861,8.8846,8.8808,8.8908,8.8762,8.7858,8.6245,8.4887,8.5179,8.5261,8.5306,8.5306,8.5313,8.551,8.5625,8.5585,8.3534,8.2633,8.267,8.3434,8.3618,8.3383,8.2722,8.2634,8.2989,8.2431,8.2468,0.0,8.2431,8.2165,8.2127,8.1455,8.1126,8.116,8.1174,8.1239,8.1356,8.1368,8.1392,8.14,8.1387,8.1359,8.1112,8.0216,7.9583,7.9287,7.619,7.4671,7.4784,7.2696,7.0718,6.8901,6.7025,6.5018,6.3241,6.4014,6.4502,6.495,6.6785,6.8731,7.0745,7.0901,7.1814,7.3533,7.3452,7.3755,7.4751,7.5476,7.7166,8.0102,8.2716,8.3029,8.0451,8.0462,8.1114,8.2118,8.2155,8.2356,8.2795,8.3433,8.4009,8.4335,8.4824,8.5408,8.6124,8.6858,8.7472,8.8125,8.8434,8.8466,8.8804,8.8729,8.8954,8.9729,8.963,8.9818,8.9705,8.9254,8.8691,8.8654,8.8729,8.8804,8.8766,8.8865,8.895,8.8964,8.8936,8.9081,8.9629,8.9704,8.9704,8.9883,8.9756,8.9569,8.9058,8.895,8.8912,8.8912,8.8978,8.88,8.8509,8.7065,8.5599,8.6051,8.646,8.605,8.5893,8.5966,8.6139,8.628,8.6292,8.5272,8.4548,8.4172,8.411,8.3993,8.376,8.3423,8.3338,8.3489,8.3186,8.3224,8.3466,8.3186,8.3083,8.3128,8.2791,8.25,8.2296,8.2271,8.2335,8.2448,8.246,8.2661,8.3062,8.3514,8.3488,8.2998,8.3035,8.2848,8.2398,7.8441,7.6431,7.6468,7.4946,7.3832,7.3195,7.212,7.1454,7.0889,7.1168,7.1347,7.1322,7.2119,7.3212,7.4595,7.5259,7.6263,7.7798,7.8372,7.8946,7.9514,8.0255,8.1281,8.2755,8.3934,8.4572,8.4232,8.3755,8.3693,8.4097,8.3759,8.3697,8.4097,8.451,8.4936,8.5387,8.6175,8.6787,8.7182,8.8335,8.9212,8.9545,9.0038,9.0357,9.0357,9.0357,9.0231,9.0268,8.9893,8.9592,8.9592,8.9254,8.8992,8.8992,8.8992,8.8992,8.8992,8.8992,8.8992,8.8992,8.8992,8.9142,8.9517,8.9555,8.9592,8.9555,8.9592,8.9405,8.8992,8.8616,8.8579,8.8917,8.8616,8.8499,8.8556,8.7469,8.5788,8.7026,8.78,8.6978,8.6671,8.6742,8.6827,8.6888,8.6984,8.6878,8.6506,8.5842,8.485,8.417,8.3889,8.3902,8.3835,8.3712,8.3767,8.3781,8.374,8.3781,8.3862,8.3969,8.3969,8.3762,8.3414,8.3389,8.3463,8.3572,8.3735,8.429,8.5108,8.5713,8.5587,8.4795,8.521,8.5021,8.4016,8.0543,7.8891,7.9339,7.8562,7.8142,7.8138,7.7994,7.7987,7.8042,7.7969,7.7703,7.7169,7.6948,7.7241,7.8063,7.8817,7.9868,8.1327,8.2292,8.3065,8.3552,8.4051,8.4448,8.4636,8.5011,8.5725,8.6814,8.6664,8.6012,8.5411,8.4899,8.4861,8.5186,8.5449,8.5913,8.6701,8.7377,8.7889,8.8377,8.9466,9.0292,9.0494,9.0907,9.1207,9.1409,9.1184,9.0681,9.0193,8.963,8.9292,8.9254,8.9142,8.8992,8.8992,8.8992,8.8992,8.8992,8.8992,8.8992,8.8992,8.8992,8.9142,8.9292,8.933,8.9292,8.9405,8.9367,8.9254,8.9029,8.8579,8.8466,8.8841,8.8428,8.7889,8.7759,8.6939,8.5513,8.8742,8.9407,8.8585,8.8469,8.8636,8.8575,8.8705,8.8928,8.8221,8.7909,8.7648,8.6032,8.4824,8.4148,8.4215,8.4164,8.4022,8.4268,8.4293,8.4153,8.4356,8.4419,8.4419,8.4431,8.4467,8.4514,8.4526,8.4611,8.4831,8.5449,8.6208,8.6856,8.6921,8.6455,8.5637,8.5034,8.4266,8.3349,8.2193,8.2344,8.3776,8.3143,8.242,8.1751,8.1071,8.0379,7.9741,7.9681,7.9643,7.9578,7.9519,7.9887,8.0683,8.1543,8.2415,8.3324,8.4195,8.4886,8.5374,8.5307,8.5575,8.6288,8.7602,8.8466,8.8729,8.933,8.8415,8.6288,8.595,8.6063,8.5449,8.6012,8.6814,8.7565,8.7865,8.8353,8.963,9.0104,9.0494,9.132,9.0944,9.0606,9.1409,9.0569,8.978,9.0306,9.0118,8.9879,8.978,8.9367,8.8992,8.8992,8.8992,8.9006,8.9006,8.8992,8.8992,8.8992,8.8992,8.9231,8.9644,8.9893,9.0043,8.963,8.9893,8.963,8.9217,8.8879,8.8804,8.8841,8.8302,8.7411,8.6026,8.5497,8.4928,8.9621,8.9984,8.9208,8.9023,8.9224,8.9184,8.9251,8.9322,8.8981,8.8579,8.8128,8.7345,8.6276,8.5046,8.4607,8.4368,8.4293,8.4443,8.4456,8.4368,8.4468,8.453,8.4591,8.4641,8.4928,8.5501,8.5539,8.5827,8.6329,8.672,8.7037,8.7368,8.7724,8.751,8.6829,8.7333,8.7208,8.6413,8.6539,8.6955,8.717,8.479,8.2952,8.238,8.2842,8.2631,8.1653,8.1837,8.1875,8.1474,8.142,8.1728,8.2562,8.3839,8.4976,8.581,8.7015,8.7537,8.721,8.743,8.7698,8.7954,8.8579,8.9179,8.9667,8.9991,8.9367,8.794,8.779,8.7828,8.7527,8.779,8.8128,8.8503,8.8917,8.9503,9.0104,9.0681,9.1282,9.2033,9.192,9.1996,9.2611,9.192,9.1169,9.0982,9.0569,9.0029,8.9592,8.9179,8.9029,8.9006,8.9075,8.9088,8.9019,8.8992,8.8992,8.9019,8.9075,8.9341,8.9409,8.9563,8.9553,8.9545,8.9569,8.9494,8.9067,8.8579,8.8353,8.8592,8.8818,8.8002,8.6282,8.5944,8.5378,8.9958,9.0151,8.955,8.932,8.9462,8.9423,8.9462,8.9476,8.9488,8.9149,8.8633,8.8407,8.7651,8.648,8.5624,8.4995,8.4618,8.4843,8.4817,8.4628,8.4628,8.479,8.5025,8.4836,8.5224,8.5976,8.6064,8.6632,8.7592,8.7743,8.7857,8.8122,8.8653,8.8539,8.7933,8.8956,8.907,8.835,8.8842,8.9146,8.8705,8.6212,8.4462,8.4079,8.4886,8.4816,8.3573,8.3999,8.4037,8.3508,8.343,8.3764,8.4647,8.6,8.7175,8.8035,8.925,8.9641,8.8946,8.9291,8.9495,8.9395,8.9517,8.993,9.0494,9.0982,9.0869,9.0118,9.0005,8.993,8.9367,8.9555,8.978,9.0005,9.0569,9.093,9.132,9.1845,9.2409,9.2934,9.2747,9.2671,9.2784,9.2183,9.147,9.0719,9.0193,8.9705,8.9179,8.8992,8.9006,8.9047,8.9157,8.9133,8.9075,8.9116,8.9102,8.9129,8.9224,8.9238,8.9129,8.9224,8.9265,8.9423,8.9218,8.9129,8.917,8.8654,8.8173,8.8535,8.8685,8.8258,8.6688,8.6513,8.6025,8.9601,9.0303,8.9684,8.9451,8.9604,8.9488,8.9528,8.9729,8.9667,8.9604,8.9552,8.892,8.8553,8.8314,8.7409,8.6225,8.4989,8.564,8.565,8.5044,8.498,8.5332,8.595,8.5268,8.5382,8.6277,8.6341,8.7087,8.8501,8.8577,8.8956,8.9601,8.9726,8.9373,8.8791,8.8905,8.835,8.8021,8.7945,8.7705,8.7743,8.811,8.8136,8.7985,8.7618,8.6822,8.6,8.5962,8.5962,8.5924,8.5848,8.6265,8.7099,8.7971,8.8805,8.9626,9.0424,9.0788,9.0569,9.0486,9.0412,9.0334,9.0921,9.1409,9.162,9.2723,9.3084,9.2559,9.2333,9.1808,9.0695,9.0921,9.1582,9.2258,9.2484,9.2859,9.3625,9.3437,9.385,9.3775,9.3235,9.2498,9.0944,9.0329,9.0306,8.9757,8.9231,8.9104,8.9029,8.8992,8.9061,8.9157,8.9187,8.9187,8.9224,8.9251,8.9331,8.9358,8.9345,8.9359,8.9359,8.9397,8.9397,8.9384,8.9307,8.9307,8.9333,8.9169,8.8802,8.8724,8.8496,8.7816,8.7083,8.6691,8.6302,9.0395,8.9928,8.964,8.9591,8.9704,8.9667,8.9742,8.9778,8.9741,8.9779,8.974,8.9487,8.907,8.8577,8.8794,8.7974,8.6547,8.6772,8.6758,8.6493,8.6493,8.6682,8.6872,8.6644,8.6994,8.7698,8.7741,8.8274,8.9222,8.9373,8.9523,8.9975,9.0492,9.0642,9.0561,9.0991,9.1031,9.0644,9.0176,8.9837,8.9651,8.9525,8.9373,8.9373,8.9108,8.8312,8.6985,8.7402,8.7478,8.6985,8.6947,8.7099,8.7478,8.8653,8.9752,9.0586,9.1382,9.1748,9.1619,9.1554,9.1647,9.1941,9.2213,9.2622,9.3076,9.3625,9.385,9.3587,9.3512,9.3203,9.2899,9.2518,9.2596,9.3347,9.355,9.3625,9.3775,9.355,9.3385,9.3813,9.3662,9.3278,9.2659,9.2166,9.1513,9.0808,9.0188,8.9606,8.9132,8.9075,8.917,8.92,8.9333,8.9451,8.9438,8.9386,8.9373,8.9436,8.9449,8.9425,8.9438,8.9489,8.954,8.9462,8.9425,8.9462,8.9425,8.9425,8.9109,8.9045,8.8779,8.8349,8.7665,8.7475,8.712,9.0733,8.9692,8.9629,8.9704,8.9778,8.979,8.979,8.979,8.979,8.979,8.979,8.979,8.9487,8.9158,8.9611,8.932,8.8258,8.7919,8.7691,8.7423,8.7423,8.7599,8.7823,8.7645,8.7984,8.8737,8.8781,8.9152,8.9873,9.0214,9.0262,9.0117,9.0915,9.1228,9.1221,9.1617,9.1775,9.1589,9.1086,9.071,9.0598,9.0131,8.979,8.979,8.979,8.9184,8.7857,8.8312,8.8388,8.7895,8.7781,8.8047,8.8653,8.9866,9.0851,9.1496,9.2254,9.2658,9.2567,9.273,9.304,9.3337,9.337,9.3629,9.4085,9.4146,9.4033,9.3845,9.3732,9.3789,9.3719,9.3224,9.3205,9.3958,9.4108,9.4117,9.405,9.3547,9.3518,9.3827,9.3662,9.3608,9.3648,9.2876,9.2176,9.1733,9.0925,9.0107,8.9666,8.9334,8.9305,8.9358,8.9464,8.9579,8.9616,8.9591,8.9566,8.9616,8.9566,8.9553,8.9541,8.9604,8.9642,8.9528,8.954,8.954,8.954,8.9502,8.9489,8.9488,8.9362,8.8984,8.8615,8.8409,8.8042,9.0461,8.9768,8.9767,8.9854,8.979,8.979,8.979,8.979,8.9802,8.9814,8.9814,8.9802,8.9801,8.9801,8.9935,8.9944,8.978,8.9128,8.8407,8.7817,8.7703,8.8178,8.8889,8.8269,8.8318,8.909,8.9025,8.9444,9.0182,9.0818,9.0867,9.0472,9.1092,9.1168,9.0293,9.0517,9.0309,9.0388,9.0266,9.0004,8.9828,8.9828,8.979,8.979,8.979,8.9449,8.8615,8.8653,8.8691,8.8615,8.8653,8.9411,9.0738,9.1723,9.2292,9.2405,9.3125,9.3478,9.3513,9.4067,9.4316,9.4281,9.4328,9.4277,9.4311,9.4349,9.4098,9.357,9.3396,9.3347,9.3399,9.3347,9.356,9.4239,9.4349,9.4307,9.4222,9.4194,9.4137,9.3946,9.3452,9.2894,9.2768,9.2472,9.1996,9.1812,9.1278,9.0726,9.0532,9.0123,8.9689,8.9717,9.0045,9.031,9.007,8.9816,8.9816,8.9803,8.9741,8.9716,8.9704,8.9729,8.9716,8.9667,8.9667,8.9667,8.9654,8.9654,8.9642,8.9616,8.9591,8.9528,8.9236,8.8981,8.9001,9.1357,9.0676,9.0687,9.0321,8.9828,8.979,8.979,8.9802,8.9875,8.9923,8.9935,9.0055,9.0052,9.0064,9.0137,9.0502,9.0985,9.0684,9.0163,8.9463,8.9361,8.9486,8.9672,8.9531,8.9569,8.9809,8.9914,9.0067,9.0228,9.0521,9.0479,9.0508,9.1216,9.1483,9.1205,9.1705,9.1918,9.1665,9.1124,9.0798,9.0636,9.0093,8.979,8.979,8.979,8.9638,8.9449,8.9449,8.9449,8.9449,8.998,9.0813,9.1837,9.2709,9.3176,9.3277,9.3972,9.4414,9.4363,9.4577,9.4663,9.4543,9.4554,9.45,9.4418,9.4418,9.4305,9.404,9.404,9.4068,9.4149,9.4176,9.4211,9.438,9.4404,9.4404,9.4349,9.4335,9.4265,9.4151,9.3897,9.3798,9.3638,9.3064,9.2631,9.2638,9.2051,9.1523,9.1434,9.125,9.1266,9.1331,9.1357,9.1004,9.0637,9.0321,9.0207,8.998,8.979,8.979,8.979,8.979,8.979,8.979,8.979,8.979,8.979,8.9778,8.9741,8.9741,8.9704,8.9629,8.9528,8.9438,8.9371,9.2292,9.1571,9.1534,9.1267,9.0811,9.0811,9.0848,9.0896,9.0967,9.1003,9.1064,9.1084,9.1119,9.113,9.1164,9.1492,9.1998,9.207,9.1788,9.1243,9.0855,9.0638,9.0443,9.0683,9.0988,9.1265,9.137,9.1179,9.0808,9.1113,9.1032,9.0705,9.1326,9.1533,9.1261,9.1636,9.1777,9.1525,9.0998,9.071,9.0535,9.0093,8.979,8.979,8.979,8.979,8.9828,9.0093,9.0283,9.0472,9.1382,9.2254,9.2784,9.3542,9.4048,9.4162,9.4465,9.4768,9.4806,9.4755,9.4767,9.4676,9.4663,9.4661,9.4557,9.4567,9.4567,9.453,9.4543,9.4608,9.4636,9.4663,9.461,9.4581,9.4543,9.454,9.45,9.4431,9.4376,9.4293,9.4265,9.4293,9.4184,9.3971,9.3584,9.3566,9.3029,9.2487,9.2424,9.2263,9.224,9.2215,9.2039,9.1622,9.1142,9.0889,9.0662,9.0245,8.979,8.979,8.979,8.979,8.979,8.979,8.979,8.979,8.979,8.979,8.9766,8.979,8.979,8.9729,8.9642,8.9541,8.9438,9.3163,9.2405,9.238,9.2379,9.2363,9.2375,9.2371,9.258,9.2615,9.2539,9.2577,9.2497,9.2573,9.2699,9.2562,9.2759,9.2999,9.3077,9.311,9.282,9.2319,9.1659,9.1113,9.1582,9.2155,9.2739,9.2902,9.2569,9.1898,9.2422,9.2264,9.0971,9.138,9.131,9.0644,9.0288,9.0327,9.0224,8.9965,8.9916,8.9866,8.9828,8.979,8.979,8.979,8.979,8.9866,9.0624,9.1192,9.142,9.2683,9.3429,9.3732,9.4389,9.473,9.4692,9.4768,9.4806,9.4806,9.4806,9.4793,9.478,9.478,9.4806,9.4767,9.4741,9.4741,9.4754,9.4767,9.478,9.478,9.478,9.478,9.4793,9.4754,9.4702,9.4634,9.4527,9.4459,9.4431,9.4418,9.4445,9.454,9.4478,9.4468,9.4394,9.3944,9.3616,9.3401,9.3137,9.2645,9.2633,9.2885,9.2279,9.1875,9.1496,9.1155,9.0169,8.979,8.979,8.979,8.979,8.979,8.979,8.979,8.979,8.979,8.979,8.979,8.979,8.979,8.979,8.9729,8.9629,8.9502,9.401,9.329,9.3352,9.3072,9.2539,9.2623,9.2682,9.2729,9.2821,9.297,9.2905,9.2945,9.3082,9.3017,9.3088,9.3377,9.3873,9.4048,9.4059,9.4021,9.3846,9.3197,9.2607,9.2656,9.2886,9.3153,9.3268,9.2962,9.2771,9.3028,9.2526,9.1468,9.161,9.1243,9.0262,9.0178,9.0008,8.9863,8.9852,8.9866,8.9866,8.9866,8.979,8.979,8.9828,8.9866,8.998,9.123,9.2329,9.2936,9.329,9.3896,9.4389,9.4692,9.4806,9.4806,9.4806,9.4806,9.4806,9.4806,9.4806,9.4806,9.4806,9.4806,9.4806,9.4806,9.4806,9.4806,9.4806,9.4806,9.4806,9.4806,9.4806,9.4806,9.4806,9.478,9.4741,9.4715,9.465,9.4557,9.4567,9.454,9.4527,9.4567,9.4621,9.4572,9.4513,9.4376,9.4173,9.4135,9.3707,9.401,9.4073,9.3239,9.2595,9.2216,9.1496,9.0207,8.979,8.979,8.979,8.979,8.979,8.979,8.979,8.979,8.979,8.979,8.979,8.979,8.979,8.979,8.9753,8.9667,8.9528,9.4617,9.4212,9.4349,9.4118,9.3759,9.3792,9.385,9.3919,9.4013,9.4009,9.4058,9.4114,9.4146,9.4146,9.4146,9.4414,9.4872,9.4911,9.4911,9.4911,9.4872,9.4414,9.3803,9.365,9.3841,9.4146,9.4146,9.3994,9.3715,9.3606,9.3044,9.2328,9.2158,9.1751,9.1316,9.1128,9.1093,9.106,9.0974,9.0937,9.0937,9.0876,9.0851,9.0851,9.0851,9.0965,9.1496,9.238,9.2949,9.3176,9.3669,9.4313,9.473,9.4806,9.4806,9.4806,9.4806,9.4806,9.4806,9.4806,9.4806,9.4806,9.4806,9.4806,9.4806,9.4806,9.4806,9.4806,9.4806,9.4806,9.4806,9.4806,9.4806,9.4806,9.4806,9.4806,9.4806,9.4793,9.4767,9.4702,9.4663,9.465,9.4594,9.4623,9.4663,9.4689,9.4703,9.4717,9.4717,9.4806,9.4806,9.4806,9.4616,9.377,9.2898,9.2405,9.1609,9.0396,8.979,8.979,8.979,8.979,8.979,8.979,8.979,8.979,8.979,8.979,8.979,8.979,8.979,8.9778,8.9753,8.9729,8.9591,9.5021,9.5033,9.5155,9.5263,9.5318,9.5391,9.5295,9.55,9.5435,9.5446,9.5446,9.556,9.538,9.5609,9.5293,9.5522,9.5522,9.5484,9.5522,9.5522,9.5446,9.5102,9.4605,9.4529,9.4796,9.5255,9.5571,9.514,9.4621,9.4391,9.3865,9.3198,9.2866,9.2744,9.2392,9.248,9.2618,9.248,9.2245,9.2299,9.2351,9.2239,9.2102,9.2254,9.2026,9.2329,9.2911,9.3403,9.3277,9.2481,9.3972,9.4654,9.4806,9.4806,9.4806,9.4806,9.4806,9.4806,9.4806,9.4806,9.4806,9.4806,9.492,9.4844,9.4882,9.492,9.5021,9.4806,9.4806,9.4806,9.4806,9.4806,9.4806,9.4806,9.4806,9.4806,9.4806,9.4806,9.4806,9.4806,9.4793,9.4806,9.4806,9.4806,9.4793,9.4741,9.478,9.4793,9.4806,9.4806,9.4806,9.4806,9.4541,9.4162,9.3315,9.2557,9.1571,9.0548,9.0017,8.979,8.979,8.979,8.979,8.979,8.979,8.979,8.979,8.979,8.979,8.979,8.979,8.979,8.9778,8.9766,8.9679,9.5143,9.5155,9.5312,9.5383,9.5417,9.5509,9.5576,9.5598,9.5609,9.5609,9.5609,9.5609,9.5609,9.5609,9.5609,9.5609,9.5609,9.5609,9.5609,9.5609,9.5609,9.556,9.5331,9.5293,9.5407,9.5609,9.5609,9.5484,9.532,9.5134,9.4777,9.388,9.3692,9.3355,9.2751,9.2813,9.2623,9.2694,9.2732,9.3079,9.3349,9.2996,9.2922,9.3264,9.2784,9.2456,9.2683,9.3252,9.3479,9.3631,9.4199,9.4806,9.4806,9.4806,9.4806,9.4806,9.4806,9.4806,9.4806,9.4806,9.4806,9.4844,9.5248,9.5551,9.492,9.5362,9.5362,9.4983,9.4806,9.4806,9.4806,9.4806,9.4806,9.4806,9.4806,9.4806,9.4806,9.4806,9.4806,9.4806,9.4806,9.4806,9.4806,9.4806,9.4806,9.4806,9.4806,9.4806,9.4806,9.4806,9.4806,9.4806,9.4692,9.4313,9.3593,9.2746,9.1837,9.0965,9.0396,8.9828,8.9828,8.979,8.979,8.979,8.979,8.979,8.979,8.979,8.979,8.979,8.979,8.979,8.979,8.979,8.9741,9.5312,9.5324,9.5452,9.5498,9.5509,9.5576,9.5609,9.5609,9.5609,9.5609,9.5609,9.5609,9.5609,9.5609,9.5609,9.5609,9.5609,9.5609,9.5609,9.5609,9.5609,9.5609,9.5609,9.5609,9.5609,9.5609,9.5609,9.5609,9.5598,9.5504,9.5212,9.4715,9.458,9.4404,9.3923,9.3809,9.4006,9.4075,9.4002,9.4149,9.4308,9.4413,9.4364,9.4553,9.3959,9.3479,9.3593,9.3934,9.4124,9.4275,9.4579,9.4806,9.4806,9.4806,9.4806,9.4806,9.4806,9.4806,9.4806,9.4806,9.4806,9.4844,9.5286,9.5172,9.4958,9.5248,9.5248,9.492,9.4806,9.4806,9.4806,9.4806,9.4806,9.4806,9.4806,9.4806,9.4806,9.4806,9.4806,9.4806,9.4806,9.4806,9.4806,9.4806,9.4806,9.4806,9.4806,9.4806,9.4806,9.4806,9.4806,9.4806,9.4806,9.4465,9.3745,9.2986,9.2178,9.142,9.0813,9.0245,8.9904,8.9828,8.979,8.979,8.979,8.979,8.979,8.979,8.979,8.979,8.979,8.979,8.979,8.979,8.9729,9.544,9.5452,9.5554,9.5609,9.5609,9.5598,9.5609,9.5609,9.5609,9.5609,9.5609,9.5609,9.5609,9.5609,9.5609,9.5637,9.5789,9.5637,9.5637,9.5942,9.5675,9.5637,9.5609,9.5609,9.5609,9.5609,9.5609,9.5609,9.5576,9.5498,9.5414,9.5318,9.5274,9.5072,9.5268,9.5368,9.5364,9.5531,9.5479,9.5553,9.5586,9.5932,9.5882,9.5425,9.4983,9.4717,9.4793,9.4983,9.5058,9.5172,9.5058,9.4983,9.4983,9.4844,9.492,9.4958,9.5109,9.5134,9.5134,9.5096,9.5096,9.5147,9.5096,9.5058,9.5058,9.5134,9.5071,9.492,9.4806,9.4806,9.4806,9.4806,9.4806,9.4806,9.4806,9.4806,9.4806,9.4806,9.4806,9.4806,9.4806,9.4806,9.4806,9.4806,9.4806,9.4806,9.4806,9.4806,9.4806,9.4806,9.4806,9.4806,9.4806,9.4806,9.4162,9.3517,9.2683,9.214,9.1458,9.0889,9.0359,9.0321,9.0283,8.9866,8.979,8.979,8.979,8.979,8.979,8.979,8.979,8.979,8.979,8.979,8.9716,9.5565,9.5565,9.5587,9.5609,9.5609,9.5609,9.5609,9.5609,9.5609,9.5609,9.5609,9.5609,9.5609,9.5609,9.5609,9.5942,9.621,9.5904,9.5904,9.6248,9.5942,9.5609,9.5609,9.5609,9.5609,9.5609,9.5609,9.5609,9.5598,9.5576,9.5509,9.5429,9.5471,9.5482,9.5482,9.5494,9.6009,9.6547,9.6543,9.6655,9.6841,9.6565,9.6173,9.5564,9.5248,9.5362,9.5779,9.5917,9.6182,9.6751,9.622,9.5917,9.5728,9.5248,9.521,9.5513,9.5816,9.5854,9.5741,9.5841,9.622,9.6537,9.6145,9.5803,9.5779,9.5741,9.5324,9.4958,9.4806,9.4806,9.4806,9.4806,9.4806,9.4806,9.4806,9.4806,9.4806,9.4806,9.4806,9.4806,9.4806,9.4806,9.4806,9.4806,9.4806,9.4806,9.4806,9.4806,9.4806,9.4806,9.4806,9.4806,9.4806,9.4806,9.4654,9.401,9.3328,9.2974,9.2405,9.1799,9.1344,9.1117,9.0851,9.0131,8.979,8.979,8.979,8.979,8.979,8.979,8.979,8.979,8.979,8.979,8.979,9.5653,9.5609,9.5609,9.5609,9.5609,9.5609,9.5609,9.5609,9.5609,9.5609,9.5609,9.5609,9.5609,9.5609,9.5609,9.5866,9.6019,9.5866,9.5866,9.6057,9.5789,9.5609,9.5609,9.5609,9.5609,9.5609,9.5609,9.5609,9.5609,9.5598,9.5603,9.5646,9.5891,9.6196,9.631,9.6692,9.6948,9.7379,9.7433,9.7468,9.7578,9.7047,9.6678,9.6714,9.6271,9.6347,9.6561,9.6713,9.6865,9.7016,9.6523,9.641,9.6334,9.6031,9.5475,9.5665,9.6271,9.6523,9.6321,9.637,9.6671,9.651,9.6243,9.5827,9.5563,9.5324,9.5248,9.4945,9.4806,9.4806,9.4806,9.4806,9.4806,9.4806,9.4806,9.4806,9.4806,9.4806,9.4806,9.4806,9.4806,9.4806,9.4806,9.4806,9.4806,9.4806,9.4806,9.4806,9.4806,9.4806,9.4806,9.4806,9.4806,9.4806,9.4806,9.4427,9.3783,9.3441,9.3088,9.2481,9.1723,9.1192,9.0624,8.9942,8.979,8.979,8.979,8.979,8.979,8.979,8.979,8.979,8.979,8.979,8.979,9.5724,9.5609,9.5609,9.5609,9.5609,9.5609,9.5609,9.5609,9.5609,9.5609,9.5609,9.5609,9.5609,9.5609,9.5637,9.5713,9.5789,9.5751,9.5751,9.5942,9.5713,9.5609,9.5609,9.5609,9.5609,9.5609,9.5609,9.5609,9.5675,9.5866,9.5904,9.616,9.6733,9.7165,9.7268,9.7551,9.8002,9.8222,9.8199,9.8067,9.7781,9.7499,9.7585,9.8242,9.766,9.7333,9.7547,9.7585,9.7749,9.766,9.7281,9.6954,9.7333,9.694,9.6196,9.5703,9.6764,9.7016,9.695,9.7047,9.7337,9.7315,9.6301,9.5774,9.5474,9.5324,9.4844,9.4806,9.4806,9.4806,9.4806,9.4806,9.4806,9.4806,9.4806,9.4806,9.4806,9.4806,9.4806,9.4806,9.4806,9.4806,9.4806,9.4806,9.4806,9.4806,9.4806,9.4806,9.4806,9.4806,9.4806,9.4806,9.4806,9.4806,9.4806,9.4806,9.4162,9.3593,9.3201,9.2709,9.1799,9.0927,9.0434,9.0093,8.9828,8.979,8.979,8.979,8.979,8.979,8.979,8.979,8.979,8.979,8.979,9.5621,9.5609,9.5609,9.5609,9.5609,9.5609,9.5609,9.5609,9.5609,9.5609,9.5609,9.5609,9.5609,9.5609,9.5609,9.6019,9.6248,9.5942,9.5904,9.6248,9.5866,9.5609,9.5609,9.5609,9.5713,9.5751,9.5713,9.5609,9.5904,9.6477,9.6706,9.6898,9.7509,9.7956,9.8006,9.8338,9.8433,9.8888,9.8931,9.8757,9.8424,9.7852,9.7636,9.7585,9.7622,9.7787,9.8343,9.847,9.8659,9.919,9.8621,9.8356,9.8432,9.8394,9.7825,9.756,9.7812,9.834,9.8069,9.8128,9.8355,9.8118,9.7131,9.6555,9.5991,9.5362,9.4806,9.4806,9.4806,9.4806,9.4806,9.4806,9.4806,9.4806,9.4806,9.4806,9.4806,9.4806,9.4806,9.4806,9.4806,9.4806,9.4806,9.4806,9.4806,9.4806,9.4806,9.4768,9.4806,9.4806,9.4806,9.4806,9.4743,9.4743,9.4478,9.4554,9.4124,9.3542,9.3012,9.2658,9.1799,9.0927,9.0851,9.051,9.0131,8.9828,8.979,8.979,8.979,8.979,8.979,8.979,8.979,8.979,8.979,9.5609,9.5609,9.5609,9.5609,9.5609,9.5609,9.5609,9.5609,9.5609,9.5609,9.5609,9.5609,9.5609,9.5609,9.5609,9.5801,9.6019,9.5789,9.5789,9.6133,9.5789,9.5609,9.5609,9.5648,9.5751,9.6172,9.6401,9.6745,9.6859,9.6898,9.7089,9.77,9.8388,9.8846,9.8884,9.9305,9.952,9.9693,9.9581,9.9478,9.9338,9.9018,9.8697,9.8697,9.8659,9.8887,9.9114,9.9303,9.9417,9.9645,9.9038,9.8621,9.8583,9.8583,9.8356,9.8204,9.8811,9.9011,9.8616,9.8912,9.905,9.8699,9.7526,9.6466,9.5967,9.5362,9.4844,9.4806,9.4806,9.4806,9.4806,9.4806,9.4806,9.4806,9.4806,9.4806,9.4806,9.4806,9.4806,9.4806,9.4806,9.4806,9.4806,9.4806,9.473,9.4616,9.4629,9.4642,9.4705,9.4806,9.4806,9.4806,9.4743,9.4642,9.4288,9.4098,9.3554,9.2985,9.2226,9.1822,9.152,9.1041,9.075,9.0485,8.998,8.979,8.979,8.979,8.979,8.979,8.979,8.9778,8.9766,8.9778,8.9778,9.5609,9.5609,9.5609,9.5609,9.5609,9.5609,9.5609,9.5609,9.5609,9.5609,9.5609,9.5609,9.5609,9.5609,9.5609,9.5648,9.5648,9.5609,9.5609,9.5609,9.5609,9.5609,9.5609,9.5675,9.5904,9.663,9.6706,9.7165,9.765,9.7891,9.8006,9.8464,9.9266,9.9649,9.984,10.0095,10.0345,10.015,9.9974,9.9948,10.0012,9.9947,9.9803,9.9788,9.985,9.9823,9.9796,9.9758,9.9758,9.9645,9.9341,9.9038,9.9,9.9038,9.9,9.8962,9.9455,9.9479,9.9236,9.9256,9.9267,9.8764,9.7972,9.6936,9.5563,9.5134,9.4907,9.4844,9.4806,9.4806,9.4806,9.4806,9.4806,9.4806,9.4806,9.4806,9.4806,9.4806,9.4806,9.4806,9.4806,9.4806,9.4806,9.4806,9.4692,9.4503,9.4478,9.4465,9.4402,9.4364,9.425,9.4073,9.3972,9.3871,9.3643,9.3312,9.2857,9.2425,9.1665,9.1112,9.0787,9.0509,9.0192,8.994,8.979,8.979,8.979,8.979,8.979,8.979,8.9778,8.9753,8.9741,8.9753,8.9766,9.5609,9.5609,9.5598,9.5609,9.5609,9.5609,9.5609,9.5609,9.5609,9.5609,9.5609,9.5609,9.5609,9.5609,9.5609,9.5609,9.5609,9.5609,9.5609,9.5609,9.5648,9.5751,9.5828,9.5866,9.5942,9.6248,9.6936,9.7662,9.8185,9.8999,9.9114,9.9381,9.9954,10.0336,10.0439,10.0454,10.0533,10.0377,10.0177,10.0165,10.0215,10.0126,10.0075,10.001,9.9983,9.9944,9.981,9.981,9.9796,9.9796,9.9645,9.9504,9.9452,9.9517,9.9479,9.9501,9.959,9.9642,9.9563,9.9559,9.9528,9.9315,9.874,9.7634,9.622,9.6031,9.5665,9.5185,9.5286,9.5071,9.4958,9.4806,9.4996,9.4806,9.4806,9.4806,9.4806,9.4806,9.4806,9.4806,9.4806,9.4806,9.4767,9.4767,9.4376,9.4149,9.3707,9.3656,9.344,9.335,9.3209,9.3031,9.2932,9.2844,9.2692,9.2375,9.2171,9.1789,9.1216,9.0654,9.0192,8.9901,8.9899,8.9827,8.979,8.979,8.979,8.979,8.979,8.979,8.9778,8.9741,8.9729,8.9667,8.9692,9.5293,9.4911,9.5407,9.5609,9.5609,9.5609,9.5609,9.5609,9.5609,9.5609,9.5609,9.5609,9.5609,9.5609,9.5609,9.5609,9.5609,9.5609,9.5609,9.5828,9.6019,9.6324,9.6515,9.6859,9.7432,9.7776,9.8273,9.8846,9.9687,9.9916,10.0069,10.0298,10.0451,10.0527,10.0592,10.0545,10.051,10.0486,10.0352,10.0253,10.0315,10.0253,10.0165,10.0152,10.0101,10.0037,9.9957,9.9892,9.9877,9.981,9.9796,9.9742,9.97,9.9742,9.9714,9.9603,9.9631,9.9673,9.9725,9.9673,9.9525,9.8995,9.8657,9.8129,9.6978,9.6827,9.6713,9.6461,9.6196,9.5892,9.5627,9.5589,9.5513,9.5033,9.4806,9.4806,9.4806,9.4806,9.4806,9.4806,9.4806,9.4806,9.4754,9.4715,9.4224,9.3757,9.3252,9.2859,9.2793,9.2777,9.2775,9.2685,9.2625,9.2307,9.2167,9.1851,9.1523,9.1152,9.0791,9.0383,9.0011,8.9961,8.9935,8.9851,8.979,8.979,8.979,8.979,8.979,8.979,8.9766,8.9767,8.9704,8.9579,8.9591,9.4681,9.4479,9.4987,9.5407,9.556,9.5609,9.5609,9.5609,9.5609,9.5609,9.5609,9.5609,9.5609,9.5609,9.5609,9.5609,9.5609,9.5609,9.5609,9.5789,9.6095,9.663,9.7012,9.7394,9.7815,9.8884,9.9381,9.9687,9.9954,10.0451,10.0527,10.0527,10.0604,10.0604,10.058,10.0533,10.051,10.0521,10.0462,10.034,10.0401,10.0328,10.0165,10.0165,10.0139,10.0062,9.9957,9.9904,9.9877,9.9823,9.9769,9.97,9.9673,9.9659,9.9631,9.9599,9.9571,9.9641,9.9655,9.9663,9.9517,9.9201,9.91,9.8583,9.7977,9.766,9.7547,9.713,9.7016,9.6713,9.6107,9.5741,9.54,9.4844,9.4806,9.4806,9.4806,9.4806,9.4806,9.4806,9.4806,9.4742,9.4474,9.4383,9.4057,9.3503,9.2974,9.2695,9.2727,9.2763,9.2877,9.2749,9.2597,9.2187,9.1789,9.1374,9.0996,9.0803,9.0483,9.0373,9.0113,9.0041,8.9947,8.9839,8.979,8.979,8.979,8.979,8.979,8.979,8.9741,8.9667,8.9604,8.9514,8.9464,9.365,9.4365,9.4441,9.4911,9.5522,9.5598,9.5609,9.5609,9.5609,9.5609,9.5609,9.5609,9.5609,9.5609,9.5609,9.5609,9.5609,9.5609,9.5609,9.5686,9.5981,9.6286,9.6859,9.7394,9.8158,9.8349,9.9075,9.9687,9.9649,10.0298,10.0566,10.0592,10.058,10.058,10.0592,10.0604,10.0604,10.0592,10.0557,10.0486,10.0401,10.0352,10.024,10.0139,10.0088,10.0036,9.993,9.989,9.985,9.981,9.9796,9.9714,9.9641,9.9714,9.9725,9.9585,9.9673,9.9687,9.9627,9.9714,9.968,9.9604,9.9439,9.9187,9.8721,9.8494,9.8242,9.7736,9.7054,9.6486,9.593,9.5475,9.5172,9.4844,9.4806,9.4806,9.4806,9.4806,9.4806,9.4806,9.4793,9.4703,9.4332,9.4025,9.3776,9.3312,9.2721,9.2556,9.2615,9.2877,9.3093,9.2913,9.2746,9.2562,9.2074,9.1012,9.0468,9.0338,9.0262,9.0228,9.0171,9.0113,8.997,8.9827,8.9753,8.9729,8.9753,8.979,8.9753,8.9692,8.9629,8.9553,8.9451,8.941,8.9346,9.2924,9.2809,9.3906,9.4567,9.4872,9.5369,9.5609,9.5609,9.5609,9.5609,9.5609,9.5609,9.5609,9.5609,9.5609,9.5609,9.5609,9.5609,9.5609,9.5675,9.6057,9.6974,9.7547,9.812,9.8846,9.961,10.0107,10.0145,10.026,10.0489,10.0566,10.0592,10.0521,10.0533,10.058,10.0592,10.0569,10.0486,10.045,10.0413,10.0303,10.0278,10.024,10.0088,10.0075,10.0049,9.9917,9.9904,9.9864,9.981,9.9796,9.9714,9.9655,9.9752,9.9711,9.9571,9.9613,9.9655,9.9613,9.9669,9.9631,9.9683,9.9659,9.9545,9.9267,9.9325,9.8897,9.8318,9.7712,9.7092,9.6258,9.5968,9.5589,9.4958,9.4806,9.4806,9.4806,9.4806,9.4806,9.4806,9.4793,9.465,9.4389,9.4154,9.3879,9.3566,9.3042,9.267,9.267,9.316,9.3449,9.3191,9.3033,9.2913,9.2463,9.1701,9.1238,9.1294,9.083,9.0306,9.0239,9.0236,9.002,8.9851,8.9753,8.9717,8.9704,8.9716,8.9642,8.9579,8.9476,8.9386,8.9294,8.9265,8.9224,9.2083,9.1969,9.3344,9.4136,9.449,9.5255,9.5609,9.5609,9.5609,9.5609,9.5609,9.5609,9.5609,9.5609,9.5609,9.5609,9.5609,9.5609,9.5609,9.5675,9.6133,9.7012,9.7929,9.877,9.9305,10.026,10.0604,10.0566,10.0527,10.0566,10.0569,10.051,10.0413,10.0401,10.0438,10.0399,10.0425,10.0352,10.0328,10.0278,10.0152,10.0101,10.0075,10.0062,10.0036,10.001,9.9957,9.9917,9.989,9.9823,9.9769,9.9714,9.9697,9.9697,9.9697,9.9585,9.9542,9.9627,9.9683,9.9542,9.9571,9.9613,9.9599,9.9627,9.9655,9.9611,9.9477,9.9049,9.857,9.7674,9.6675,9.6372,9.5551,9.4882,9.4806,9.4806,9.492,9.492,9.4844,9.4844,9.4767,9.4648,9.4459,9.4335,9.4114,9.3765,9.3416,9.3102,9.2909,9.3454,9.392,9.3814,9.3601,9.3553,9.3266,9.27,9.2362,9.2264,9.1626,9.0868,9.0573,9.0609,9.0257,8.9913,8.9828,8.9754,8.9667,8.9629,8.9502,8.9386,8.9267,8.9224,8.9157,8.9143,8.9143,9.1128,9.1892,9.2771,9.3639,9.4414,9.5216,9.5609,9.5609,9.5609,9.5609,9.5609,9.5609,9.5609,9.5609,9.5609,9.5609,9.5609,9.5609,9.5609,9.5686,9.5981,9.6936,9.7727,9.8376,9.9419,10.0183,10.0604,10.0604,10.0604,10.0569,10.051,10.0401,10.024,10.0253,10.0202,10.0215,10.0215,10.0203,10.0203,10.0139,9.9998,10.001,9.9957,9.9904,9.9864,9.9864,9.9823,9.9823,9.981,9.9796,9.9783,9.97,9.9673,9.9714,9.9673,9.9617,9.9627,9.9683,9.97,9.9585,9.9557,9.9627,9.9613,9.9659,9.9687,9.9673,9.9539,9.9087,9.8508,9.7825,9.7105,9.612,9.5172,9.4945,9.4844,9.4907,9.5058,9.5058,9.4945,9.4907,9.4805,9.4674,9.4431,9.4279,9.4203,9.401,9.3751,9.3784,9.3677,9.4006,9.4415,9.4589,9.4442,9.4323,9.3971,9.3535,9.3312,9.3153,9.2384,9.1686,9.1391,9.1012,9.0611,9.0266,8.9928,8.9754,8.9591,8.9412,8.9331,8.9224,8.931,8.9205,8.9215,8.9129,8.9116,9.1586,9.1969,9.3382,9.383,9.3726,9.4987,9.5609,9.5609,9.5609,9.5609,9.5609,9.5609,9.5609,9.5609,9.5609,9.5609,9.5609,9.5609,9.5609,9.5751,9.6133,9.7127,9.7967,9.8682,9.9649,10.026,10.0604,10.058,10.0569,10.0521,10.0351,10.024,10.0101,10.0088,10.0036,9.997,10.001,10.0011,10.0075,9.9996,9.9904,9.9877,9.9823,9.981,9.9796,9.9796,9.9796,9.9796,9.9796,9.9796,9.9796,9.9755,9.9755,9.9769,9.9742,9.9728,9.9697,9.9655,9.9728,9.9655,9.9599,9.9683,9.9669,9.9613,9.9669,9.9649,9.9539,9.9087,9.8583,9.7939,9.7105,9.612,9.5551,9.5437,9.5324,9.5248,9.5362,9.5248,9.5134,9.5082,9.498,9.4608,9.4376,9.4236,9.416,9.4073,9.4044,9.4102,9.4222,9.45,9.4715,9.4857,9.5039,9.4857,9.4761,9.4413,9.4179,9.3906,9.3186,9.2597,9.2306,9.1876,9.1207,9.0647,9.0272,8.9804,8.9358,8.9251,8.9211,8.9488,8.9611,8.944,8.931,8.945,8.9352,9.1625,9.1625,9.3563,9.4261,9.4299,9.5178,9.5609,9.5609,9.5609,9.5609,9.5609,9.5609,9.5609,9.5609,9.5609,9.5609,9.5609,9.5609,9.5609,9.5789,9.6592,9.728,9.8158,9.8999,9.9801,10.0325,10.0557,10.051,10.0474,10.034,10.019,10.0101,9.9958,9.9944,9.9904,9.9864,9.9864,9.9904,9.9917,9.9864,9.9823,9.9796,9.9796,9.9796,9.9796,9.9796,9.9796,9.9796,9.9796,9.9796,9.9796,9.9796,9.9783,9.9796,9.9796,9.9769,9.9766,9.9752,9.9769,9.9728,9.9728,9.9742,9.9752,9.9725,9.9697,9.9687,9.9501,9.9201,9.8721,9.8129,9.7181,9.6309,9.6196,9.6082,9.5854,9.5627,9.5551,9.5475,9.5398,9.5295,9.4999,9.4548,9.4321,9.4231,9.4117,9.4044,9.4015,9.403,9.418,9.4445,9.4636,9.4832,9.5155,9.5276,9.5208,9.5089,9.4905,9.4594,9.4037,9.3513,9.3259,9.2618,9.1821,9.1168,9.0546,9.0174,8.9827,8.9348,8.9232,8.9646,9.0083,9.0127,9.0184,9.0409,9.0184,9.151,9.1079,9.3421,9.4834,9.5522,9.5598,9.5609,9.5609,9.5609,9.5609,9.5609,9.5609,9.5609,9.5609,9.5609,9.5609,9.5713,9.5789,9.5942,9.5828,9.705,9.7853,9.8464,9.9114,9.9992,10.0404,10.0486,10.0413,10.0315,10.019,10.0062,9.9945,9.9877,9.9823,9.9823,9.981,9.981,9.9823,9.9837,9.981,9.981,9.9796,9.9796,9.9796,9.9796,9.9796,9.9796,9.9796,9.9796,9.9796,9.9796,9.9796,9.9796,9.9796,9.9796,9.9783,9.9769,9.9769,9.9783,9.9769,9.9769,9.9783,9.9783,9.9769,9.9742,9.9738,9.959,9.9504,9.9114,9.8318,9.7357,9.7092,9.6991,9.6599,9.6309,9.6726,9.7257,9.6637,9.5613,9.5369,9.4781,9.4404,9.4265,9.416,9.4073,9.4015,9.4,9.4,9.4146,9.4376,9.4594,9.478,9.5082,9.5371,9.5437,9.5367,9.5477,9.5156,9.4664,9.4444,9.4128,9.3333,9.2418,9.1695,9.0976,9.0795,9.0473,9.0107,8.9991,9.0301,9.0649,9.0846,9.1057,9.132,9.1094,9.2695,9.2607,9.3868,9.4872,9.556,9.5609,9.5609,9.5609,9.5609,9.5609,9.5609,9.5609,9.5609,9.5609,9.5609,9.5648,9.5789,9.621,9.6515,9.705,9.7929,9.8502,9.9152,9.9763,10.0336,10.0442,10.0462,10.024,10.0139,9.9985,9.9944,9.9864,9.9796,9.9796,9.9796,9.9796,9.9796,9.9796,9.9796,9.9796,9.9796,9.9796,9.9796,9.9783,9.9783,9.9769,9.9769,9.9769,9.9783,9.9796,9.9796,9.9796,9.9796,9.9796,9.9796,9.9796,9.9796,9.9796,9.9796,9.9796,9.9796,9.9796,9.9796,9.9796,9.9783,9.9793,9.9755,9.9707,9.9379,9.8494,9.7888,9.7812,9.7674,9.7206,9.6738,9.7774,9.8797,9.7482,9.6041,9.5302,9.4637,9.4349,9.4194,9.4094,9.4044,9.4,9.4,9.403,9.4102,9.4265,9.4459,9.4676,9.5008,9.5277,9.5394,9.5452,9.5463,9.5475,9.5059,9.4952,9.4922,9.3947,9.2891,9.2086,9.1451,9.1334,9.1269,9.1189,9.1146,9.1207,9.1432,9.1695,9.2033,9.2333,9.1996,9.2886,9.2695,9.3879,9.4872,9.5522,9.5609,9.5609,9.5609,9.5609,9.5609,9.5609,9.5609,9.5609,9.5609,9.5609,9.5942,9.6172,9.663,9.7089,9.7776,9.8617,9.9125,9.9725,10.0222,10.0392,10.0498,10.0315,10.0113,9.997,9.9904,9.985,9.9796,9.9796,9.9796,9.9796,9.9796,9.9796,9.9796,9.9796,9.9796,9.9796,9.9796,9.9796,9.9783,9.9742,9.9714,9.9659,9.9659,9.9645,9.97,9.9742,9.9783,9.9796,9.9796,9.9796,9.9796,9.9796,9.9796,9.9796,9.9796,9.9796,9.9796,9.9796,9.9796,9.9796,9.9769,9.9769,9.9758,9.9758,9.9025,9.8418,9.8229,9.8204,9.7926,9.729,9.7477,9.7883,9.738,9.625,9.5458,9.4843,9.4293,9.4165,9.4073,9.4,9.4,9.4,9.4,9.4088,9.4174,9.4335,9.454,9.4819,9.5045,9.5155,9.5227,9.5274,9.5286,9.5274,9.4982,9.4655,9.4089,9.336,9.2782,9.2307,9.2076,9.201,9.1906,9.1958,9.1958,9.2258,9.2596,9.2934,9.316,9.2995,9.2962,9.258,9.3955,9.4949,9.556,9.5609,9.5609,9.5609,9.5609,9.5609,9.5609,9.5609,9.5648,9.5762,9.5648,9.6324,9.6859,9.7165,9.7574,9.8349,9.919,9.9649,9.9954,10.026,10.0419,10.0401,10.0215,10.0049,9.9877,9.9837,9.9823,9.9796,9.9796,9.9796,9.9796,9.9796,9.9796,9.9796,9.9796,9.9796,9.9796,9.9783,9.9769,9.9752,9.9683,9.9599,9.9542,9.95,9.9485,9.9571,9.9711,9.9742,9.9783,9.9796,9.9796,9.9796,9.9796,9.9796,9.9796,9.9796,9.9796,9.9796,9.9796,9.9796,9.9796,9.9796,9.9796,9.9796,9.9796,9.9517,9.8911,9.8735,9.8735,9.8519,9.7856,9.7244,9.7285,9.7212,9.6358,9.5526,9.4938,9.4312,9.4146,9.403,9.4,9.4,9.4,9.4,9.403,9.4102,9.4208,9.4349,9.453,9.4741,9.4933,9.4983,9.5033,9.5045,9.4983,9.4715,9.4424,9.4067,9.3836,9.3773,9.3362,9.2972,9.268,9.2553,9.2605,9.277,9.2899,9.3147,9.3437,9.3685,9.3852,9.4452,9.4911,9.5255,9.5484,9.5598,9.5609,9.5609,9.5609,9.5609,9.5609,9.5609,9.5675,9.5904,9.6592,9.5828,9.6324,9.7536,9.7738,9.8388,9.919,9.984,10.0183,10.0325,10.0378,10.0471,10.0389,10.024,10.0113,9.9983,9.9877,9.9796,9.981,9.981,9.9796,9.9796,9.9796,9.9796,9.9796,9.9796,9.9796,9.9783,9.9769,9.97,9.9683,9.9627,9.9528,9.9457,9.9413,9.9413,9.9471,9.9585,9.9659,9.9742,9.9783,9.9796,9.9796,9.9796,9.9796,9.9796,9.9796,9.9796,9.9796,9.9796,9.9796,9.9796,9.9796,9.9796,9.9783,9.9707,9.9442,9.9063,9.9328,9.9366,9.8884,9.8324,9.7825,9.7571,9.6839,9.5976,9.5272,9.4618,9.4241,9.4073,9.4,9.4,9.4,9.4,9.4,9.4,9.4059,9.4131,9.4194,9.4321,9.4516,9.4754,9.4702,9.4728,9.4754,9.4702,9.4476,9.4307,9.4174,9.3992,9.3925,9.3963,9.3737,9.3468,9.3364,9.3462,9.3612,9.3522,9.3657,9.3964,9.4211,9.4414]}]]